[[{"header":{"parameterUnit":"m.s-1","parameterCategory":1,"la1":30.6,"la2":28.766,"lo1":-90.7593,"lo2":-88.6598,"dy":0.0162,"dx":0.0183,"nx":116,"ny":114,"refTime":"2023-05-18T12:00:00:Z","depth":0,"parameterNumber":2,"parameterNumberName":"U-component_of_WINDS"},"data":[0.0,0.0,0.0,0.0,0.0,0.0,0.0,0.0,0.0,0.0,0.0,0.0,0.0,0.0,0.0,0.0,0.0,0.0,0.0,0.0,0.0,0.0,0.0,0.0,0.0,0.0,0.0,0.0,0.0,0.0,0.0,0.0,0.0,0.0,0.0,0.0,0.0,0.0,0.0,0.0,0.0,0.0,0.0,0.0,0.0,0.0,0.0,0.0,0.0,0.0,0.0,0.0,0.0,0.0,0.0,0.0,0.0,0.0,0.0,0.0,0.0,0.0,0.0,0.0,0.0,0.0,0.0,0.0,0.0,0.0,0.0,0.0,0.0,0.0,0.0,0.0,0.0,0.0,0.0,0.0,0.0,0.0,0.0,0.0,0.0,0.0,0.0,0.0,0.0,0.0,0.0,0.0,0.0,0.0,0.0,0.0,0.0,0.0,0.0,0.0,0.0,0.0,0.0,0.0,0.0,0.0,0.0,0.0,0.0,0.0,0.0,0.0,0.0,0.0,0.0,0.0,0.0,0.0,0.0,0.0,0.0,0.0,0.0,0.0,0.0,0.0,0.0,0.0,0.0,0.0,0.0,0.0,0.0,0.0,0.0,0.0,0.0,0.0,0.0,0.0,0.0,0.0,0.0,0.0,0.0,0.0,0.0,0.0,0.0,0.0,0.0,0.0,0.0,0.0,0.0,0.0,0.0,0.0,0.0,0.0,0.0,0.0,0.0,0.0,0.0,0.0,0.0,0.0,0.0,0.0,0.0,0.0,0.0,0.0,0.0,0.0,0.0,0.0,0.0,0.0,0.0,0.0,0.0,0.0,0.0,0.0,0.0,0.0,0.0,0.0,0.0,0.0,0.0,0.0,0.0,0.0,0.0,0.0,0.0,0.0,0.0,0.0,0.0,0.0,0.0,0.0,0.0,0.0,0.0,0.0,0.0,0.0,0.0,0.0,0.0,0.0,0.0,0.0,0.0,0.0,0.0,0.0,0.0,0.0,0.0,0.0,0.0,0.0,0.0,0.0,0.0,0.0,0.0,0.0,0.0,0.0,0.0,0.0,0.0,0.0,0.0,0.0,0.0,0.0,0.0,0.0,0.0,0.0,0.0,0.0,0.0,0.0,0.0,0.0,0.0,0.0,0.0,0.0,0.0,0.0,0.0,0.0,0.0,0.0,0.0,0.0,0.0,0.0,0.0,0.0,0.0,0.0,0.0,0.0,0.0,0.0,0.0,0.0,0.0,0.0,0.0,0.0,0.0,0.0,0.0,0.0,0.0,0.0,0.0,0.0,0.0,0.0,0.0,0.0,0.0,0.0,0.0,0.0,0.0,0.0,0.0,0.0,0.0,0.0,0.0,0.0,0.0,0.0,0.0,0.0,0.0,0.0,0.0,0.0,0.0,0.0,0.0,0.0,0.0,0.0,0.0,0.0,0.0,0.0,0.0,0.0,0.0,0.0,0.0,0.0,0.0,0.0,0.0,0.0,0.0,0.0,0.0,0.0,0.0,0.0,0.0,0.0,0.0,0.0,0.0,0.0,0.0,0.0,0.0,0.0,0.0,0.0,0.0,0.0,0.0,0.0,0.0,0.0,0.0,0.0,0.0,0.0,0.0,0.0,0.0,0.0,0.0,0.0,0.0,0.0,0.0,0.0,0.0,0.0,0.0,0.0,0.0,0.0,0.0,0.0,0.0,0.0,0.0,0.0,0.0,0.0,0.0,0.0,0.0,0.0,0.0,0.0,0.0,0.0,0.0,0.0,0.0,0.0,0.0,0.0,0.0,0.0,0.0,0.0,0.0,0.0,0.0,0.0,0.0,0.0,0.0,0.0,0.0,0.0,0.0,0.0,0.0,0.0,0.0,0.0,0.0,0.0,0.0,0.0,0.0,0.0,0.0,0.0,0.0,0.0,0.0,0.0,0.0,0.0,0.0,0.0,0.0,0.0,0.0,0.0,0.0,0.0,0.0,0.0,0.0,0.0,0.0,0.0,0.0,0.0,0.0,0.0,0.0,0.0,0.0,0.0,0.0,0.0,0.0,0.0,0.0,0.0,0.0,0.0,0.0,0.0,0.0,0.0,0.0,0.0,0.0,0.0,0.0,0.0,0.0,0.0,0.0,0.0,0.0,0.0,0.0,0.0,0.0,0.0,0.0,0.0,0.0,0.0,0.0,0.0,0.0,0.0,0.0,0.0,0.0,0.0,0.0,0.0,0.0,0.0,0.0,0.0,0.0,0.0,0.0,0.0,0.0,0.0,0.0,0.0,0.0,0.0,0.0,0.0,0.0,0.0,0.0,0.0,0.0,0.0,0.0,0.0,0.0,0.0,0.0,0.0,0.0,0.0,0.0,0.0,0.0,0.0,0.0,0.0,0.0,0.0,0.0,0.0,0.0,0.0,0.0,0.0,0.0,0.0,0.0,0.0,0.0,0.0,0.0,0.0,0.0,0.0,0.0,0.0,0.0,0.0,0.0,0.0,0.0,0.0,0.0,0.0,0.0,0.0,0.0,0.0,0.0,0.0,0.0,0.0,0.0,0.0,0.0,0.0,0.0,0.0,0.0,0.0,0.0,0.0,0.0,0.0,0.0,0.0,0.0,0.0,0.0,0.0,0.0,0.0,0.0,0.0,0.0,0.0,0.0,0.0,0.0,0.0,0.0,0.0,0.0,0.0,0.0,0.0,0.0,0.0,0.0,0.0,0.0,0.0,0.0,0.0,0.0,0.0,0.0,0.0,0.0,0.0,0.0,0.0,0.0,0.0,0.0,0.0,0.0,0.0,0.0,0.0,0.0,0.0,0.0,0.0,0.0,0.0,0.0,0.0,0.0,0.0,0.0,0.0,0.0,0.0,0.0,0.0,0.0,0.0,0.0,0.0,0.0,0.0,0.0,0.0,0.0,0.0,0.0,0.0,0.0,0.0,0.0,0.0,0.0,0.0,0.0,0.0,0.0,0.0,0.0,0.0,0.0,0.0,0.0,0.0,0.0,0.0,0.0,0.0,0.0,0.0,0.0,0.0,0.0,0.0,0.0,0.0,0.0,0.0,0.0,0.0,0.0,0.0,0.0,0.0,0.0,0.0,0.0,0.0,0.0,0.0,0.0,0.0,0.0,0.0,0.0,0.0,0.0,0.0,0.0,0.0,0.0,0.0,0.0,0.0,0.0,0.0,0.0,0.0,0.0,0.0,0.0,0.0,0.0,0.0,0.0,0.0,0.0,0.0,0.0,0.0,0.0,0.0,0.0,0.0,0.0,0.0,0.0,0.0,0.0,0.0,0.0,0.0,0.0,0.0,0.0,0.0,0.0,0.0,0.0,0.0,0.0,0.0,0.0,0.0,0.0,0.0,0.0,0.0,0.0,0.0,0.0,0.0,0.0,0.0,0.0,0.0,0.0,0.0,0.0,0.0,0.0,0.0,0.0,0.0,0.0,0.0,0.0,0.0,0.0,0.0,0.0,0.0,0.0,0.0,0.0,0.0,0.0,0.0,0.0,0.0,0.0,0.0,0.0,0.0,0.0,0.0,0.0,0.0,0.0,0.0,0.0,0.0,0.0,0.0,0.0,0.0,0.0,0.0,0.0,0.0,0.0,0.0,0.0,0.0,0.0,0.0,0.0,0.0,0.0,0.0,0.0,0.0,0.0,0.0,0.0,0.0,0.0,0.0,0.0,0.0,0.0,0.0,0.0,0.0,0.0,0.0,0.0,0.0,0.0,0.0,0.0,0.0,0.0,0.0,0.0,0.0,0.0,0.0,0.0,0.0,0.0,0.0,0.0,0.0,0.0,0.0,0.0,0.0,0.0,0.0,0.0,0.0,0.0,0.0,0.0,0.0,0.0,0.0,0.0,0.0,0.0,0.0,0.0,0.0,0.0,0.0,0.0,0.0,0.0,0.0,0.0,0.0,0.0,0.0,0.0,0.0,0.0,0.0,0.0,0.0,0.0,0.0,0.0,0.0,0.0,0.0,0.0,0.0,0.0,0.0,0.0,0.0,0.0,0.0,0.0,0.0,0.0,0.0,0.0,0.0,0.0,0.0,0.0,0.0,0.0,0.0,0.0,0.0,0.0,0.0,0.0,0.0,0.0,0.0,0.0,0.0,0.0,0.0,0.0,0.0,0.0,0.0,0.0,0.0,0.0,0.0,0.0,0.0,0.0,0.0,0.0,0.0,0.0,0.0,0.0,0.0,0.0,0.0,0.0,0.0,0.0,0.0,0.0,0.0,0.0,0.0,0.0,0.0,0.0,0.0,0.0,0.0,0.0,0.0,0.0,0.0,0.0,0.0,0.0,0.0,0.0,0.0,0.0,0.0,0.0,0.0,0.0,0.0,0.0,0.0,0.0,0.0,0.0,0.0,0.0,0.0,0.0,0.0,0.0,0.0,0.0,0.0,0.0,0.0,0.0,0.0,0.0,0.0,0.0,0.0,0.0,0.0,0.0,0.0,0.0,0.0,0.0,0.0,0.0,0.0,0.0,0.0,0.0,0.0,0.0,0.0,0.0,0.0,0.0,0.0,0.0,0.0,0.0,0.0,0.0,0.0,0.0,0.0,0.0,0.0,0.0,0.0,0.0,0.0,0.0,0.0,0.0,0.0,0.0,0.0,0.0,0.0,0.0,0.0,0.0,0.0,0.0,0.0,0.0,0.0,0.0,0.0,0.0,0.0,0.0,0.0,0.0,0.0,0.0,0.0,0.0,0.0,0.0,0.0,0.0,0.0,0.0,0.0,0.0,0.0,0.0,0.0,0.0,0.0,0.0,0.0,0.0,0.0,0.0,0.0,0.0,0.0,0.0,0.0,0.0,0.0,0.0,0.0,0.0,0.0,0.0,0.0,0.0,0.0,0.0,0.0,0.0,0.0,0.0,0.0,0.0,0.0,0.0,0.0,0.0,0.0,0.0,0.0,0.0,0.0,0.0,0.0,0.0,0.0,0.0,0.0,0.0,0.0,0.0,0.0,0.0,0.0,0.0,0.0,0.0,0.0,0.0,0.0,0.0,0.0,0.0,0.0,0.0,0.0,0.0,0.0,0.0,0.0,0.0,0.0,0.0,0.0,0.0,0.0,0.0,0.0,0.0,0.0,0.0,0.0,0.0,0.0,0.0,0.0,0.0,0.0,0.0,0.0,0.0,0.0,0.0,0.0,0.0,0.0,0.0,0.0,0.0,0.0,0.0,0.0,0.0,0.0,0.0,0.0,0.0,0.0,0.0,0.0,0.0,0.0,0.0,0.0,0.0,0.0,0.0,0.0,0.0,0.0,0.0,0.0,0.0,0.0,0.0,0.0,0.0,0.0,0.0,0.0,0.0,0.0,0.0,0.0,0.0,0.0,0.0,0.0,0.0,0.0,0.0,0.0,0.0,0.0,0.0,0.0,0.0,0.0,0.0,0.0,0.0,0.0,0.0,0.0,0.0,0.0,0.0,0.0,0.0,0.0,0.0,0.0,0.0,0.0,0.0,0.0,0.0,0.0,0.0,0.0,0.0,0.0,0.0,0.0,0.0,0.0,0.0,0.0,0.0,0.0,0.0,0.0,0.0,0.0,0.0,0.0,0.0,0.0,0.0,0.0,0.0,0.0,0.0,0.0,0.0,0.0,0.0,0.0,0.0,0.0,0.0,0.0,0.0,0.0,0.0,0.0,0.0,0.0,0.0,0.0,0.0,0.0,0.0,0.0,0.0,0.0,0.0,0.0,0.0,0.0,0.0,0.0,0.0,0.0,0.0,0.0,0.0,0.0,0.0,0.0,0.0,0.0,0.0,0.0,0.0,0.0,0.0,0.0,0.0,0.0,0.0,0.0,0.0,0.0,0.0,0.0,0.0,0.0,0.0,0.0,0.0,0.0,0.0,0.0,0.0,0.0,0.0,0.0,0.0,0.0,0.0,0.0,0.0,0.0,0.0,0.0,0.0,0.0,0.0,0.0,0.0,0.0,0.0,0.0,0.0,0.0,0.0,0.0,0.0,0.0,0.0,0.0,0.0,0.0,0.0,0.0,0.0,0.0,0.0,0.0,0.0,0.0,0.0,0.0,0.0,0.0,0.0,0.0,0.0,0.0,0.0,0.0,0.0,0.0,0.0,0.0,0.0,0.0,0.0,0.0,0.0,0.0,0.0,0.0,1.5186,0.0,0.0,0.0,0.0,0.0,0.0,0.0,0.0,0.0,0.0,0.0,0.0,0.0,0.0,0.0,0.0,0.0,0.0,0.0,0.0,0.0,0.0,0.0,0.0,0.0,0.0,0.0,0.0,0.0,0.0,0.0,0.0,0.0,0.0,0.0,0.0,0.0,0.0,0.0,0.7654,0.859,0.859,0.868,0.8676,0.859,0.0,0.0,0.0,0.0,0.0,0.0,0.0,0.0,0.0,0.0,0.0,0.0,0.0,0.0,0.0,0.0,0.0,0.0,0.0,0.0,0.0,0.0,0.0,0.0,0.0,0.0,0.0,0.0,0.0,0.0,0.0,0.0,0.0,0.0,0.0,0.0,0.0,0.0,0.0,0.0,0.0,0.0,0.0,0.0,0.0,0.0,0.0,0.0,0.0,0.0,0.0,0.0,0.0,0.0,0.0,0.0,0.0,0.0,0.0,0.0,0.0,0.0,0.0,0.0,0.0,0.0,0.0,0.0,0.0,0.0,0.0,1.5378,0.0,0.0,0.0,0.0,0.0,0.0,0.0,0.0,0.0,0.0,0.0,0.0,0.0,0.0,0.0,0.0,0.0,0.0,0.0,0.0,0.0,0.0,0.0,0.0,0.2635,0.2635,0.2877,0.0,0.0,0.0,0.0,0.0,0.0,0.0,0.0,0.4855,0.5849,0.6051,0.7827,0.8684,0.8684,0.8684,0.8684,0.868,0.8619,0.0,0.0,0.0,0.0,0.0,0.0,0.0,0.0,0.0,0.0,0.0,0.0,0.0,0.0,0.0,0.0,0.0,0.0,0.0,0.0,0.0,0.0,0.0,0.0,0.0,0.0,0.0,0.0,0.0,0.0,0.0,0.0,0.0,0.0,0.0,0.0,0.0,0.0,0.0,0.0,0.0,0.0,0.0,0.0,0.0,0.0,0.0,0.0,0.0,0.0,0.0,0.0,0.0,0.0,0.0,0.0,0.0,0.0,0.0,0.0,0.0,0.0,0.0,0.0,0.0,1.5808,1.5808,1.5808,1.5808,1.5808,1.5808,1.5808,0.0,0.0,0.0,0.0,0.0,0.0,0.0,0.0,0.0,0.0,0.0,0.0,0.0,0.0,0.0,0.0,0.0,0.0,0.0,0.0,0.0,0.0,0.2373,0.2347,0.2347,0.254,0.2556,0.0,0.0,0.0,0.0,0.0,0.0,0.4017,0.5296,0.6451,0.7433,0.8509,0.9027,0.9027,0.9027,0.9027,0.9015,0.8729,0.859,0.859,0.0,0.0,0.0,0.0,0.0,0.0,0.0,0.0,0.0,0.0,0.0,0.0,0.0,0.0,0.0,0.0,0.0,0.0,0.0,0.0,0.0,0.0,0.0,0.0,0.0,0.0,0.0,0.0,0.0,0.0,0.0,0.0,0.0,0.0,0.0,0.0,0.0,0.0,0.0,0.0,0.0,1.4939,1.4979,0.0,0.0,0.0,0.0,0.0,0.0,0.0,0.0,0.0,0.0,0.0,0.0,0.0,0.0,1.5748,1.5748,1.5768,1.5808,1.5808,1.5808,1.5808,1.5808,1.5808,1.5808,1.5808,0.0,1.5808,1.5808,0.0,0.0,0.0,0.0,0.0,0.0,0.0,0.0,0.0,0.0,0.0,0.0,0.0,0.0,0.0,0.0,0.0,0.0,0.0,0.0,0.0,0.1969,0.2017,0.2017,0.2828,0.3,0.2252,0.0,0.0,0.0,0.0,0.2726,0.3941,0.5197,0.6695,0.8485,0.8909,0.9096,0.9096,0.9096,0.9096,0.9092,0.8957,0.8887,0.8887,0.8887,0.0,0.0,0.0,0.0,0.0,0.0,0.0,0.0,0.0,0.0,0.0,0.0,0.0,0.0,0.0,0.0,0.0,0.0,0.0,0.0,0.0,0.0,0.0,0.0,0.0,0.0,0.0,0.0,0.0,0.0,0.0,0.0,0.0,0.0,0.0,0.0,0.0,0.0,0.0,1.5344,1.5451,1.5451,1.5451,1.5451,0.0,0.0,0.0,0.0,0.0,0.0,0.0,0.0,0.0,1.5808,1.5808,1.5808,1.5808,1.5808,1.5808,1.5808,1.5808,1.5808,1.5808,1.5808,1.5808,1.5808,1.5808,1.5808,1.5808,1.5808,1.5808,1.5808,0.0,0.0,0.0,0.0,0.0,0.0,0.0,0.0,0.0,0.0,0.0,0.0,0.0,0.0,0.0,0.0,0.0,0.0,0.1517,0.1673,0.1768,0.1699,0.278,0.3054,0.208,0.2726,0.0,0.0,0.194,0.2603,0.4118,0.5761,0.743,0.9116,0.9187,0.9234,0.9234,0.9234,0.9234,0.9234,0.9234,0.9181,0.9096,0.9096,0.9154,0.9245,0.0,0.0,0.0,0.0,0.0,0.0,0.0,0.0,0.0,0.0,0.0,0.0,0.0,0.0,0.0,0.0,0.0,0.0,0.0,0.0,0.0,0.0,0.0,0.0,0.0,0.0,0.0,0.0,0.0,0.0,0.0,0.0,0.0,0.0,0.0,0.0,0.0,1.5668,1.5808,1.5808,1.5808,1.5808,0.0,0.0,0.0,0.0,0.0,0.0,1.5808,1.5808,1.5808,1.5808,1.5808,1.5808,1.5808,1.5808,1.5808,1.5808,1.5808,1.5808,1.5808,1.5808,1.5808,1.5808,1.5808,1.5808,1.5808,1.5808,1.5808,1.5808,1.5808,1.5808,0.0,1.5808,1.5808,1.5808,0.0,0.0,0.0,0.0,0.0,0.0,0.0,0.0,0.0,0.0,0.0,0.1508,0.1506,0.1683,0.1708,0.1438,0.1953,0.2081,0.1569,0.1757,0.1773,0.1547,0.1764,0.2906,0.5074,0.7687,0.9082,0.9184,0.9456,0.9575,0.9575,0.9575,0.9575,0.9575,0.9575,0.9389,0.9096,0.9096,0.9638,1.0422,0.9471,0.0,0.0,0.0,0.0,0.0,0.0,0.0,0.0,0.0,0.0,0.0,0.0,0.0,0.0,0.0,0.0,0.0,0.0,0.0,0.0,0.0,0.0,0.0,0.0,0.0,0.0,0.0,0.0,0.0,0.0,0.0,0.0,0.0,0.0,0.0,0.0,0.0,0.0,1.5808,1.5808,0.0,0.0,0.0,0.0,1.5808,1.5808,1.5808,1.5808,1.5808,1.5808,1.5808,1.5808,1.5808,1.5808,1.5808,1.5808,1.5808,1.5808,1.5808,1.5808,1.5808,1.5808,1.5808,1.5808,1.5808,1.5808,1.5808,1.5808,1.5808,1.5808,1.5808,1.5808,1.5808,1.5808,1.5808,0.0,0.0,0.0,0.0,0.0,0.0,0.0,0.0,0.0,0.1542,0.1517,0.1473,0.1431,0.1509,0.1503,0.1413,0.2313,0.2795,0.2538,0.272,0.2768,0.2594,0.2676,0.3836,0.6166,0.7852,0.8857,0.9212,0.913,0.9249,0.9603,0.943,0.943,0.9603,0.9603,0.9535,0.9413,0.9413,0.9964,1.0759,1.0391,1.0403,0.0,0.0,0.0,0.0,0.0,0.0,0.0,0.0,0.0,0.0,0.0,0.0,0.0,0.0,0.0,0.0,0.0,0.0,0.0,0.0,0.0,0.0,0.0,0.0,0.0,0.0,0.0,0.0,0.0,0.0,0.0,0.0,0.0,0.0,0.0,0.0,0.0,1.5808,1.5808,0.0,0.0,1.5808,1.5808,1.5808,1.5683,1.5666,1.5778,1.5683,1.5659,1.5808,1.5808,1.5808,1.5808,1.5808,1.5901,1.6112,1.6112,1.6213,1.6393,1.6393,1.6393,1.6393,1.6393,1.6393,1.6393,1.6393,1.6142,1.5808,1.5808,1.5921,1.6112,1.6112,1.6233,1.6393,0.0,0.0,0.0,0.0,0.0,0.0,0.0,0.0,0.1562,0.1511,0.1472,0.1457,0.1415,0.1391,0.1417,0.1427,0.2269,0.2741,0.2613,0.2778,0.2997,0.3188,0.3901,0.5029,0.6631,0.7808,0.8584,0.8935,0.8853,0.8977,0.9327,0.9232,0.9286,0.948,0.9554,0.9603,0.9603,0.9603,1.0138,1.0972,1.062,1.0605,1.0806,0.0,0.0,0.0,0.0,0.0,0.0,0.0,0.0,0.0,0.0,0.0,0.0,0.0,0.0,0.0,0.0,0.0,0.0,0.0,0.0,0.0,0.0,0.0,0.0,0.0,0.0,0.0,0.0,0.0,0.0,0.0,0.0,0.0,0.0,0.0,1.5808,1.5808,1.5808,1.5808,1.5808,1.5808,1.5808,1.5808,1.5683,1.5635,1.5706,1.5662,1.565,1.5691,1.5783,1.5835,1.5835,1.5835,1.5958,1.6173,1.6173,1.6247,1.6431,1.6431,1.6431,1.6431,1.6431,1.6431,1.6431,1.6431,1.6257,1.5987,1.6077,1.6246,1.6444,1.6444,1.654,1.6707,0.0,0.0,0.0,0.0,0.0,0.0,0.0,0.1545,0.1491,0.1506,0.1431,0.1391,0.1391,0.1391,0.1426,0.1502,0.1691,0.1745,0.1665,0.1794,0.2302,0.3221,0.5281,0.6412,0.6462,0.7733,0.8382,0.8407,0.8651,0.8775,0.88,0.9055,0.9187,0.9212,0.948,0.9603,0.9603,0.9603,1.0207,1.1052,1.0039,1.0281,1.1194,0.0,0.0,0.0,0.0,0.0,0.0,0.0,0.0,0.0,0.0,0.0,0.0,0.0,0.0,0.0,0.0,0.0,0.0,0.0,0.0,0.0,0.0,0.0,0.0,0.0,0.0,0.0,0.0,0.0,0.0,0.0,0.0,0.0,1.5666,1.5808,1.5808,1.5808,1.5808,1.5808,1.5778,1.5791,1.5791,1.5791,1.5804,1.5709,1.5519,1.5751,1.5761,1.5509,1.5763,1.591,1.591,1.5916,1.5922,1.5935,1.5941,1.5954,1.596,1.596,1.596,1.596,1.596,1.596,1.596,1.596,1.6087,1.6371,1.6601,1.6714,1.672,1.672,1.6727,1.6708,0.0,0.0,0.0,0.0,0.0,0.0,0.0,0.1507,0.1484,0.1432,0.1418,0.1391,0.1391,0.1432,0.1472,0.1503,0.1593,0.1965,0.2717,0.2088,0.2483,0.4273,0.5682,0.6761,0.7537,0.7914,0.8212,0.8407,0.8283,0.8407,0.88,0.868,0.8836,0.9212,0.9286,0.9406,0.9603,0.9603,0.9772,1.0088,1.0571,1.093,1.1194,0.0,0.0,0.0,0.0,0.0,0.0,0.0,0.0,0.0,0.0,0.0,0.0,0.0,0.0,0.0,0.0,0.0,0.0,0.0,0.0,0.0,0.0,0.0,0.0,0.0,0.0,0.0,0.0,0.0,0.0,0.0,0.0,1.5326,1.573,1.5808,1.5808,1.5808,1.5808,1.573,1.5588,1.5768,1.5862,1.5879,1.5701,1.5724,1.6059,1.5776,1.5664,1.5795,1.5865,1.591,1.591,1.6081,1.6278,1.6481,1.667,1.688,1.707,1.707,1.707,1.707,1.707,1.707,1.707,1.707,1.7097,1.7129,1.6619,1.667,1.7053,1.7053,1.7065,1.7068,0.0,0.0,0.0,0.0,0.0,0.0,0.0,0.1502,0.148,0.1398,0.1391,0.1391,0.1391,0.1463,0.1509,0.1498,0.1567,0.1871,0.2479,0.2356,0.3022,0.4724,0.5832,0.6911,0.7988,0.7988,0.8088,0.8233,0.8088,0.8162,0.8457,0.8432,0.856,0.8857,0.8981,0.9183,0.943,0.943,0.9505,0.9649,1.0281,1.0522,1.0567,1.1028,1.0522,0.9747,1.0812,1.1194,1.1341,1.2363,0.0,0.0,0.0,0.0,0.0,0.0,0.0,0.0,0.0,0.0,0.0,0.0,0.0,0.0,0.0,0.0,0.0,0.0,0.0,0.0,0.0,0.0,0.0,0.0,1.5214,1.5717,1.5844,1.5762,1.5759,1.5975,1.5899,1.5849,1.5852,1.5868,1.5891,1.5903,1.5758,1.5809,1.6113,1.5939,1.5896,1.6072,1.6184,1.6246,1.6246,1.6402,1.6557,1.6686,1.6859,1.7015,1.717,1.717,1.717,0.0,1.717,1.717,1.717,1.717,1.7219,0.0,0.0,0.0,0.0,0.0,1.7081,1.6981,0.0,0.0,0.0,0.0,0.0,0.0,0.0,0.1502,0.148,0.1398,0.1391,0.1391,0.1391,0.1466,0.1497,0.15,0.1557,0.1663,0.1766,0.2797,0.3798,0.4749,0.5832,0.6836,0.7789,0.7939,0.7988,0.7988,0.7988,0.7988,0.8013,0.8237,0.8382,0.8407,0.8651,0.8903,0.9158,0.9158,0.9307,0.9554,0.9554,0.9579,0.9698,1.0665,1.0424,0.9747,1.0812,1.1194,1.1365,1.2514,0.0,0.0,0.0,0.0,0.0,0.0,0.0,0.0,0.0,0.0,0.0,0.0,0.0,0.0,0.0,0.0,0.0,0.0,0.0,0.0,0.0,0.0,0.0,0.0,1.5491,1.5872,1.5896,1.5675,1.5713,1.6244,1.6063,1.5971,1.6192,1.6043,1.5948,1.5948,1.596,1.6003,1.6019,0.0,0.0,0.0,0.0,1.67,1.67,1.673,1.6748,1.6748,1.6779,1.6791,1.6791,1.6791,1.6791,1.6791,1.6791,1.6791,1.6791,1.6791,1.6919,1.716,1.7412,1.7498,1.7473,1.7226,1.6973,0.0,0.0,0.0,0.0,0.0,0.0,0.0,0.0,0.1502,0.148,0.1398,0.1391,0.1391,0.1391,0.1461,0.1496,0.1502,0.1552,0.1961,0.2821,0.3899,0.4574,0.4799,0.5832,0.6487,0.6711,0.7565,0.7988,0.7988,0.7988,0.7988,0.7988,0.8063,0.8187,0.8407,0.8457,0.863,0.8874,0.8874,0.9031,0.9286,0.9286,0.9406,0.9628,0.9821,0.9772,0.9747,1.0812,1.1194,1.1492,1.3366,1.4124,1.449,1.5469,1.5808,0.0,0.0,0.0,0.0,0.0,0.0,0.0,0.0,0.0,0.0,0.0,0.0,0.0,0.0,0.0,0.0,0.0,0.0,0.0,1.4238,1.5024,1.5639,1.5877,1.567,1.5707,1.6227,1.6059,1.5846,1.567,1.6006,1.6222,1.6222,1.6416,1.6631,1.6866,1.6707,0.0,1.6622,1.6676,1.67,1.67,1.6911,1.7014,1.702,0.0,0.0,1.7363,1.7363,1.7363,1.7363,1.7363,1.7363,1.7363,1.7363,1.7386,1.7431,1.7478,1.7498,1.7492,1.7441,1.7246,1.7024,0.0,0.0,0.0,0.0,0.0,0.0,0.0,0.1512,0.1486,0.1464,0.1422,0.1418,0.1456,0.1475,0.1508,0.1547,0.206,0.2622,0.3173,0.3699,0.4475,0.5554,0.5604,0.6107,0.7188,0.7739,0.7988,0.7988,0.7988,0.7988,0.7988,0.7988,0.8063,0.8212,0.8212,0.8357,0.8602,0.8602,0.8754,0.9006,0.9006,0.908,0.9229,0.9501,0.9603,0.9677,1.0207,1.04,1.0714,1.2805,1.3487,1.3776,1.5296,1.5808,1.5391,0.0,0.0,0.0,0.0,0.0,0.0,0.0,0.0,0.0,0.0,0.0,0.0,0.0,0.0,1.2244,0.0,0.0,1.3864,1.4507,1.4737,1.4891,1.5025,1.516,1.5519,1.6228,1.6189,1.6094,1.6101,1.633,1.6493,1.6493,1.6633,1.6811,1.7079,1.6978,1.696,1.7086,1.7092,1.7092,1.7092,1.7381,1.7514,1.7485,1.7756,1.7889,1.7889,1.7889,1.7841,1.7708,1.7708,1.7635,1.7514,1.7514,1.7514,1.7484,1.7506,1.7407,1.729,1.729,1.7119,1.6884,0.0,0.0,0.0,0.0,0.0,0.0,0.0,0.1545,0.1492,0.1508,0.1431,0.1422,0.1469,0.1481,0.1516,0.1602,0.2574,0.3299,0.3499,0.3499,0.4277,0.6009,0.5454,0.5827,0.7335,0.7789,0.7988,0.7988,0.7988,0.7988,0.7988,0.7988,0.7988,0.7988,0.7988,0.8113,0.8333,0.8333,0.8482,0.8726,0.8726,0.8751,0.885,0.9278,0.9451,0.9451,0.9451,0.948,0.9846,1.1931,1.263,1.2944,1.483,1.5439,1.501,1.2872,1.2436,0.0,0.0,0.0,0.0,0.0,0.0,0.0,0.0,0.0,1.2449,1.1404,1.188,1.2422,1.2208,1.307,1.3971,1.4496,1.435,1.4227,1.4271,1.464,1.528,1.6267,1.6369,1.6464,1.6679,1.6755,1.6779,1.6779,1.6595,1.6709,1.7231,1.6768,1.6833,1.763,1.7399,1.7244,1.7244,1.7727,1.7835,1.7588,1.8063,1.8294,1.8294,1.8294,1.8173,1.7986,1.7986,1.7865,1.7671,1.7671,1.7671,1.7671,1.7671,1.7509,1.731,1.7207,1.7032,1.6857,0.0,0.0,0.0,0.0,0.0,0.0,0.0,0.0,0.1492,0.1508,0.1431,0.1414,0.1417,0.1468,0.1525,0.1582,0.2568,0.3599,0.4549,0.4624,0.4724,0.4974,0.5782,0.5882,0.5175,0.7033,0.7988,0.7988,0.7988,0.7988,0.7988,0.7988,0.7988,0.7988,0.7988,0.8017,0.8038,0.8038,0.8212,0.8457,0.8457,0.8577,0.88,0.8874,0.8899,0.8899,0.8899,0.9055,0.955,1.1634,1.2339,1.2557,1.3734,1.4106,1.3655,1.1341,1.1463,1.1853,0.9509,0.9595,1.058,1.1639,1.2083,1.2469,0.0,0.0,1.2484,1.1987,1.2751,1.3219,1.2197,1.3792,1.4708,1.2991,1.3535,1.4277,1.4516,1.4619,1.5132,1.6515,1.6647,1.6677,1.6708,1.6922,1.705,1.705,1.6233,1.6342,1.7739,1.5562,1.546,1.813,1.7015,1.6358,1.6358,1.7602,1.762,1.6397,1.768,1.8294,1.8294,1.8294,1.8275,1.8245,1.8245,1.8227,1.8203,1.8203,1.8203,1.8203,1.8203,1.8185,1.81,1.7618,1.7448,1.7423,0.0,0.0,0.0,0.0,0.0,0.0,0.0,0.0,0.0,0.0,0.148,0.1462,0.1462,0.1516,0.1563,0.1588,0.258,0.3399,0.3848,0.4449,0.5074,0.5704,0.6159,0.6484,0.6656,0.7534,0.7988,0.7988,0.7988,0.7988,0.7988,0.7988,0.7988,0.7988,0.7988,0.7988,0.7988,0.7988,0.8063,0.8162,0.8162,0.8233,0.8333,0.8333,0.8333,0.8382,0.8676,0.8874,0.0,1.0685,1.1194,1.1365,1.2401,1.2751,1.2436,1.0852,1.0779,1.0974,1.001,0.9624,0.9934,0.0,1.1711,1.1589,1.2699,1.2692,1.2252,1.1419,1.1614,1.2021,1.219,1.25,1.2878,0.0,1.2795,1.2326,1.2441,1.3276,1.4124,1.4708,1.5544,1.6016,1.584,1.6078,1.5954,1.5285,1.4841,1.5266,1.6828,1.5073,1.4964,1.6996,1.6502,1.6187,1.6187,1.7745,1.8237,1.7664,1.8417,1.8784,1.8784,1.8784,1.8668,1.8511,1.836,1.8294,1.8294,1.8294,1.8294,1.8294,1.8294,1.839,1.8475,1.8094,1.7986,1.7986,0.0,0.0,0.0,0.0,0.0,0.0,0.0,0.0,0.0,0.0,0.1507,0.1493,0.1493,0.1533,0.1587,0.1595,0.232,0.2873,0.3173,0.3924,0.4826,0.5907,0.6234,0.6761,0.7537,0.7565,0.7715,0.7988,0.7715,0.7715,0.7988,0.7988,0.7988,0.7988,0.7988,0.7988,0.7988,0.7988,0.7988,0.7988,0.7988,0.7988,0.7988,0.7988,0.7988,0.8038,0.8432,0.8627,0.885,0.9924,1.0293,1.0411,1.1146,1.139,1.1165,1.0071,0.9768,0.9817,0.9875,0.9552,0.0,1.1228,1.1249,1.1071,1.1672,1.1887,1.1615,1.0432,1.0478,1.0945,1.1792,1.1515,1.1628,1.3019,1.1935,1.0936,1.1009,1.2086,1.3045,1.3424,1.4429,1.4875,1.436,1.4822,1.4796,1.3998,1.3617,1.4106,1.5638,1.4045,1.3947,1.5778,1.5463,1.5243,1.5243,1.6841,1.7474,1.7087,1.8076,1.8515,1.8515,1.8912,1.9001,1.8814,1.8589,1.8511,1.8511,1.8511,1.8511,1.8511,1.8511,1.8625,1.8802,1.8577,1.8463,1.839,0.0,0.0,0.0,0.0,0.0,0.0,0.0,0.0,0.0,0.0,0.0,0.0,0.0,0.1502,0.1539,0.1594,0.1624,0.2095,0.3123,0.3224,0.3723,0.4799,0.5857,0.6412,0.6437,0.6462,0.6961,0.7988,0.6961,0.6989,0.7988,0.7988,0.7988,0.7988,0.7988,0.7988,0.7988,0.7988,0.7988,0.7988,0.7988,0.7988,0.7988,0.7988,0.7988,0.7988,0.8017,0.8187,0.8581,0.9657,0.9998,1.0022,1.0047,1.0071,0.9801,0.8457,0.8222,0.8395,0.851,0.9302,1.0084,1.0158,1.1059,1.1686,1.0613,1.0569,1.0398,0.9203,0.9884,1.0699,1.0754,1.1624,1.2005,1.0973,1.0854,1.1005,1.1261,1.1449,1.2103,1.3512,1.372,1.3319,0.0,1.3215,1.3977,1.4095,1.2959,1.2914,1.4462,1.2053,1.194,1.4851,1.3615,1.2898,1.2898,1.4311,1.4343,1.3005,1.5771,1.7071,1.7109,1.8483,1.9104,1.9092,1.9086,1.9086,1.9086,1.9086,1.9086,1.9086,1.9086,1.9086,1.9092,1.9086,1.8923,1.8638,0.0,0.0,0.0,0.0,0.0,0.0,0.0,0.0,0.0,0.0,0.0,0.0,0.0,0.0,0.0,0.0,0.1569,0.1744,0.2118,0.2797,0.3349,0.3723,0.4776,0.5327,0.5327,0.6032,0.6587,0.6936,0.7288,0.7637,0.7988,0.7988,0.7988,0.7988,0.7988,0.7988,0.7988,0.7988,0.7988,0.7988,0.7988,0.7988,0.7988,0.7988,0.7988,0.7988,0.0,0.8063,0.8187,0.8552,0.8676,0.8676,0.8676,0.8676,0.8599,0.8286,0.8367,0.8705,0.938,0.9447,0.9457,1.0085,1.0081,0.9836,0.9457,0.9442,0.9399,0.8992,0.921,0.975,1.0535,1.0351,1.0213,1.0617,1.0257,0.995,1.003,1.0975,1.1833,1.2311,1.2487,0.0,0.0,0.0,0.0,1.1763,1.1309,1.1766,1.3297,1.1618,1.1516,1.3436,1.3046,1.2816,1.2816,1.4189,1.4646,1.4222,1.6101,1.7012,1.7044,1.8451,1.911,1.911,1.911,1.911,1.911,1.911,1.911,1.911,1.911,1.9213,1.9346,1.9171,1.9165,1.9201,0.0,0.0,0.0,0.0,0.0,0.0,0.0,0.0,0.0,0.0,0.0,0.0,0.0,0.0,0.0,0.0,0.0,0.1605,0.1599,0.2238,0.2797,0.3173,0.3848,0.4398,0.4799,0.5104,0.5457,0.5832,0.6531,0.7058,0.7437,0.7814,0.7988,0.7988,0.7988,0.7988,0.7988,0.7988,0.7988,0.7988,0.7988,0.7988,0.7988,0.7988,0.7988,0.0,0.7988,0.7988,0.7988,0.7988,0.7988,0.7988,0.7988,0.805,0.8163,0.8367,0.8564,0.8834,0.9503,0.93,0.9051,0.9651,0.9352,0.8912,0.8912,0.8912,0.8912,0.8912,0.8912,0.9127,0.9915,0.9427,0.9172,1.0018,0.9724,0.943,0.9456,1.0383,1.1027,1.1027,1.1172,1.1343,0.0,0.0,0.0,1.0695,1.0605,1.103,1.208,1.1209,1.1111,1.2033,1.2062,1.2062,1.2062,1.2947,1.3632,1.4156,1.5066,1.5776,1.6268,1.7184,1.7867,1.8355,1.8355,1.865,1.911,1.911,1.911,1.911,1.911,1.9213,1.934,1.9171,1.9213,1.9334,0.0,0.0,0.0,0.0,0.0,0.0,0.0,0.0,0.0,0.0,0.0,0.0,0.0,0.0,0.0,0.0,0.0,0.0,0.1594,0.1598,0.2042,0.3069,0.3122,0.3599,0.4624,0.3699,0.3699,0.4724,0.4774,0.5327,0.6334,0.7413,0.7914,0.7914,0.7963,0.7988,0.7988,0.7988,0.7988,0.7988,0.7988,0.7988,0.7988,0.7988,0.7988,0.7988,0.7988,0.7988,0.7988,0.7988,0.7988,0.7988,0.7988,0.8147,0.8352,0.8615,0.8706,0.8716,0.8869,0.8912,0.8912,0.8912,0.8912,0.8912,0.8912,0.8912,0.8912,0.8912,0.8912,0.8912,0.0,0.0,0.8956,0.9148,0.9305,0.9432,0.9578,0.9727,0.9792,0.0,0.0,0.0,0.0,0.0,0.0,1.0894,0.0,1.0748,1.0894,1.0765,1.0688,1.0688,1.0688,1.0688,1.0688,1.0688,1.1376,1.2684,1.2783,1.3501,1.4782,1.4875,1.5619,1.6877,1.6877,1.77,1.8976,1.8976,1.904,1.911,1.911,1.911,1.911,1.911,1.911,1.911,0.0,0.0,0.0,0.0,0.0,0.0,0.0,0.0,0.0,0.0,0.0,0.0,0.0,0.0,0.0,0.0,0.0,0.0,0.1536,0.1566,0.1731,0.2002,0.2004,0.2145,0.2422,0.2923,0.3323,0.3599,0.4398,0.4949,0.5227,0.6309,0.6811,0.6836,0.7637,0.7988,0.7988,0.7988,0.7988,0.7988,0.7988,0.7988,0.7988,0.7988,0.7988,0.7988,0.7988,0.7988,0.7988,0.7988,0.7988,0.7988,0.7988,0.8147,0.8332,0.8512,0.8621,0.8716,0.8869,0.8912,0.8912,0.8912,0.8912,0.8912,0.8912,0.8912,0.8912,0.8912,0.8912,0.8912,0.0,0.0,0.0,0.896,0.9211,0.0,0.9435,0.9659,0.0,0.9792,0.0,1.0239,1.0308,1.0616,0.0,0.0,1.0772,1.0704,1.0742,1.0708,1.0688,1.0688,1.0688,1.0688,1.0688,1.0688,1.0883,1.1244,1.2293,1.298,1.337,1.4418,1.5103,1.5429,1.5429,1.6236,1.7534,1.7534,1.8156,1.911,1.911,1.911,1.911,1.911,1.911,1.911,0.0,0.0,0.0,0.0,0.0,0.0,0.0,0.0,0.0,0.0,0.0,0.0,0.0,0.0,0.0,0.0,0.0,0.0,0.0,0.1535,0.1558,0.1595,0.1588,0.1603,0.1591,0.2196,0.2496,0.2496,0.3574,0.4099,0.4124,0.5204,0.5704,0.5754,0.6808,0.7288,0.7338,0.7789,0.7988,0.0,0.0,0.7988,0.7988,0.7988,0.7988,0.7988,0.7988,0.7988,0.7988,0.7988,0.7988,0.8027,0.8094,0.8201,0.8338,0.852,0.8645,0.8716,0.8869,0.8912,0.8912,0.8912,0.8912,0.8912,0.8912,0.8912,0.8912,0.8912,0.8912,0.8912,0.8912,0.8912,0.8933,0.0,0.0,0.0,0.9462,0.9625,0.9721,0.0,1.0093,0.0,1.0312,1.065,1.0887,0.0,1.0796,1.0786,1.0786,1.0725,1.0688,1.0688,1.0688,1.0688,1.0688,1.0688,1.0688,1.0721,1.1508,1.1868,1.1901,1.2684,1.3407,1.3993,0.0,1.5131,1.7012,1.7012,1.7829,1.911,1.911,1.911,1.911,1.911,1.911,1.911,0.0,0.0,0.0,0.0,0.0,0.0,0.0,0.0,0.0,0.0,0.0,0.0,0.0,0.0,0.0,0.0,0.0,0.0,0.0,0.0,0.1532,0.1583,0.1588,0.158,0.161,0.1611,0.1588,0.1592,0.2521,0.2998,0.3022,0.4074,0.4599,0.4624,0.5707,0.6259,0.6462,0.7388,0.7864,0.7988,0.7988,0.7988,0.7988,0.0,0.7988,0.7988,0.7988,0.7988,0.7988,0.7988,0.7988,0.8037,0.8197,0.8267,0.8325,0.8594,0.8679,0.8716,0.8865,0.8912,0.8912,0.8912,0.8912,0.8912,0.8912,0.8912,0.8912,0.8912,0.8912,0.8912,0.8912,0.8912,0.8953,0.9131,0.0,0.9305,0.954,0.9612,0.9683,0.9775,1.0093,1.0312,1.0312,1.065,1.085,1.0698,1.083,1.0907,1.0884,1.0759,1.0688,1.0688,1.0688,1.0688,1.0688,1.0688,1.0688,1.0688,1.0688,1.0688,1.0688,1.0688,1.1376,1.2524,0.0,0.0,1.6457,1.6651,1.7539,1.8842,1.904,1.911,1.911,1.911,1.911,1.911,0.0,0.0,0.0,0.0,0.0,0.0,0.0,0.0,0.0,0.0,0.1391,0.1415,0.0,0.0,0.0,0.0,0.0,0.0,0.0,0.0,0.0,0.152,0.1521,0.1548,0.1603,0.1604,0.1592,0.1592,0.1793,0.1869,0.1894,0.2973,0.3473,0.3524,0.4601,0.5579,0.6412,0.6587,0.7188,0.7988,0.7988,0.7988,0.7988,0.7988,0.0,0.0,0.7988,0.7988,0.7988,0.7988,0.7988,0.7995,0.8047,0.8054,0.8111,0.8435,0.8523,0.8581,0.8835,0.8912,0.8912,0.8912,0.8912,0.8912,0.8912,0.8912,0.8912,0.8912,0.8912,0.8912,0.8912,0.8912,0.8919,0.8946,0.9181,0.939,0.9441,0.9632,0.9761,0.0,1.0093,1.0312,1.0312,0.0,0.0,0.0,0.0,0.0,1.0732,1.0701,1.0688,1.0688,1.0688,1.0688,1.0688,1.0688,1.0688,1.0688,1.0688,1.0688,1.0688,1.0688,1.0817,1.1049,0.0,0.0,1.3632,1.4772,1.6073,1.7469,1.865,1.911,1.911,1.911,1.911,1.911,0.0,0.0,0.0,0.0,0.0,0.0,0.0,0.1391,0.1391,0.1391,0.1391,0.1391,0.1391,0.1391,0.0,0.0,0.0,0.0,0.0,0.0,0.0,0.0,0.1495,0.1517,0.1547,0.1548,0.1555,0.1545,0.0,0.1578,0.1618,0.2138,0.2374,0.2447,0.4074,0.5074,0.5629,0.6758,0.7537,0.7988,0.7988,0.7988,0.7988,0.0,0.0,0.0,0.7988,0.7988,0.7988,0.7988,0.7988,0.7988,0.7988,0.7988,0.8074,0.8394,0.8509,0.855,0.8828,0.8912,0.8912,0.8912,0.8912,0.8912,0.8912,0.8912,0.8912,0.8912,0.8912,0.8912,0.8912,0.8912,0.8936,0.9039,0.9199,0.9345,0.9479,0.9622,0.9707,0.9781,0.9991,1.0192,0.0,0.0,0.0,0.0,0.0,0.0,1.0694,1.0688,1.0688,1.0688,1.0688,1.0688,1.0688,1.0688,1.0688,1.0688,1.0688,1.0688,1.0688,1.0688,1.0688,1.0688,0.0,0.0,1.2849,1.3538,1.5066,1.7077,1.7727,1.8451,1.911,1.911,1.911,1.911,0.0,0.0,0.0,0.0,0.0,0.0,0.0,0.1448,0.1495,0.148,0.1525,0.157,0.157,0.1525,0.148,0.0,0.0,0.0,0.0,0.0,0.0,0.0,0.0,0.0,0.0,0.0,0.0,0.0,0.1502,0.0,0.0,0.0,0.0,0.0,0.3353,0.4359,0.4899,0.6606,0.7587,0.0,0.0,0.7988,0.0,0.0,0.0,0.0,0.0,0.7988,0.7988,0.7988,0.7988,0.7988,0.7988,0.7988,0.8067,0.8357,0.8485,0.854,0.8787,0.8885,0.8912,0.8912,0.8912,0.8912,0.8912,0.8912,0.8912,0.8912,0.8912,0.8912,0.8912,0.8912,0.8956,0.9158,0.9238,0.9325,0.9571,0.9635,0.9696,0.9775,0.9927,0.0,1.0266,0.0,0.0,0.0,0.0,0.0,1.0694,1.0688,1.0688,1.0688,1.0688,1.0688,1.0688,1.0688,1.0688,1.0688,1.0688,1.0688,1.0688,1.0688,1.0688,1.0688,0.0,0.0,0.0,1.2684,1.4086,1.6166,1.6748,1.7662,1.8682,1.8976,1.911,1.911,0.0,0.0,0.0,0.0,0.0,0.0,0.0,0.1612,0.1755,0.1768,0.1974,0.2131,0.2131,0.1907,0.1772,0.0,0.0,0.0,0.0,0.0,0.0,0.0,0.0,0.0,0.0,0.0,0.0,0.0,0.0,0.0,0.0,0.0,0.0,0.0,0.0,0.0,0.4824,0.4999,0.0,0.0,0.0,0.0,0.0,0.0,0.0,0.0,0.0,0.7988,0.7988,0.7988,0.7988,0.7988,0.7988,0.7988,0.8047,0.8267,0.8406,0.8546,0.8686,0.8804,0.8912,0.8912,0.8912,0.8912,0.8912,0.8912,0.8912,0.8912,0.8912,0.8912,0.8912,0.8912,0.8956,0.9158,0.9298,0.9447,0.9588,0.969,0.9775,0.9788,0.0,0.0,1.0266,0.0,0.0,0.0,0.0,0.0,0.0,1.0688,1.0688,1.0688,1.0688,1.0688,1.0688,1.0688,1.0688,1.0688,1.0688,1.0688,1.0688,1.0688,1.0688,1.0688,0.0,0.0,0.0,1.226,1.2947,1.3436,1.6003,1.7077,1.734,1.8617,1.911,1.911,0.0,0.0,0.0,0.0,0.0,0.0,0.1594,0.1661,0.1773,0.1897,0.2007,0.2115,0.2246,0.2158,0.2029,0.0,0.0,0.0,0.0,0.0,0.0,0.0,0.0,0.0,0.0,0.0,0.0,0.0,0.0,0.0,0.0,0.0,0.0,0.0,0.0,0.0,0.0,0.0,0.0,0.0,0.0,0.0,0.0,0.0,0.0,0.0,0.0,0.0,0.7988,0.7988,0.7988,0.7988,0.7988,0.7988,0.8044,0.825,0.8396,0.8543,0.8669,0.8794,0.8912,0.8912,0.8912,0.8912,0.8912,0.8912,0.8912,0.8912,0.8912,0.8912,0.8912,0.8912,0.899,0.9281,0.9369,0.9462,0.9703,0.9754,0.9792,0.9792,0.9846,0.0,0.0,0.0,0.0,0.0,0.0,0.0,0.0,1.0688,1.0688,1.0688,1.0688,1.0688,1.0688,1.0688,1.0688,1.0688,1.0688,1.0688,1.0688,1.0688,1.0688,1.0688,0.0,0.0,0.0,1.131,1.2029,1.2914,1.4021,1.5516,1.7093,1.7809,1.862,1.937,0.0,0.0,0.0,0.0,0.0,0.1838,0.1767,0.1831,0.1919,0.208,0.2165,0.2271,0.2397,0.2418,0.23,0.1976,0.0,0.0,0.0,0.0,0.0,0.0,0.0,0.0,0.0,0.0,0.0,0.1525,0.0,0.0,0.0,0.0,0.0,0.0,0.0,0.0,0.0,0.0,0.0,0.0,0.0,0.0,0.0,0.0,0.0,0.0,0.0,0.0,0.0,0.0,0.0,0.7988,0.7988,0.7988,0.8037,0.817,0.8332,0.8478,0.8601,0.8727,0.8855,0.8899,0.8912,0.8912,0.8912,0.8912,0.8912,0.8912,0.8912,0.8912,0.8912,0.8912,0.9007,0.9334,0.941,0.9486,0.9748,0.9792,0.9792,0.9792,0.0,0.0,0.0,0.0,0.0,0.0,0.0,0.0,0.0,1.0688,1.0688,1.0688,1.0688,1.0688,1.0688,1.0688,1.0688,1.0688,1.0688,1.0688,1.0688,1.0735,1.0752,0.0,0.0,0.0,0.0,1.085,1.1416,1.2378,1.2774,1.4157,1.6019,1.7086,1.8083,1.9043,0.0,0.0,0.0,0.0,0.0,0.0,0.1923,0.2113,0.2295,0.2306,0.2523,0.2692,0.2692,0.2692,0.2587,0.2314,0.0,0.0,0.0,0.0,0.0,0.0,0.0,0.0,0.0,0.0,0.1794,0.1794,0.1525,0.1391,0.0,0.0,0.0,0.0,0.0,0.0,0.0,0.0,0.0,0.0,0.0,0.0,0.0,0.0,0.0,0.0,0.0,0.0,0.0,0.0,0.0,0.0,0.0,0.7988,0.7988,0.7992,0.815,0.8328,0.8471,0.8598,0.8723,0.8872,0.8912,0.8912,0.8912,0.8912,0.8912,0.8912,0.8912,0.8912,0.8912,0.8912,0.9007,0.9334,0.941,0.9486,0.9748,0.9792,0.9792,0.0,0.0,0.0,0.0,0.0,0.0,0.0,0.0,0.0,0.0,1.0688,1.0688,1.0688,1.0688,1.0688,1.0688,1.0688,1.0688,1.0688,1.0688,1.0688,1.0691,1.0843,0.0,0.0,0.0,0.0,0.0,1.1193,1.1193,1.1365,1.2761,1.3305,1.3682,1.6528,1.7612,1.7853,0.0,0.0,0.0,0.0,0.0,0.0,0.0,0.2181,0.2287,0.2425,0.2507,0.2568,0.2568,0.2568,0.2528,0.2447,0.0,0.0,0.0,0.0,0.0,0.0,0.0,0.0,0.0,0.0,0.1974,0.1794,0.1705,0.157,0.1391,0.1391,0.1665,0.0,0.0,0.0,0.0,0.0,0.0,0.0,0.0,0.0,0.0,0.0,0.0,0.0,0.0,0.0,0.0,0.0,0.0,0.0,0.0,0.0,0.0,0.7988,0.815,0.8328,0.8468,0.8594,0.872,0.8872,0.8912,0.8912,0.8912,0.8912,0.8912,0.8912,0.8912,0.8912,0.8912,0.8912,0.9007,0.9334,0.941,0.9486,0.9748,0.9792,0.0,0.9792,0.9927,0.0,0.0,0.0,0.0,0.0,0.0,0.0,0.0,0.0,1.0688,1.0688,1.0688,1.0688,1.0688,1.0688,1.0688,1.0688,1.0688,1.0688,1.0691,1.0843,0.0,0.0,0.0,0.0,0.0,1.0904,1.086,1.0893,1.1356,1.2122,1.3199,1.5257,1.665,1.7718,0.0,0.0,0.0,0.0,0.0,0.0,0.0,0.2314,0.2353,0.249,0.2491,0.2491,0.2491,0.2491,0.2491,0.2491,0.0,0.0,0.0,0.0,0.0,0.0,0.0,0.0,0.0,0.2312,0.2203,0.2064,0.1997,0.1861,0.1705,0.1705,0.2174,0.3065,0.4223,0.0,0.0,0.0,0.0,0.0,0.0,0.0,0.8137,0.0,0.0,0.0,0.0,0.0,0.0,0.0,0.0,0.0,0.0,0.0,0.0,0.0,0.8081,0.8228,0.8454,0.8554,0.8676,0.8858,0.8912,0.8912,0.8912,0.8912,0.8912,0.8912,0.8912,0.8912,0.8912,0.8912,0.9007,0.9334,0.941,0.9486,0.9748,0.0,0.0,0.9869,0.0,0.0,0.0,0.0,0.0,0.0,0.0,0.0,0.0,0.0,1.0688,1.0688,1.0688,1.0688,1.0688,1.0688,1.0688,1.0688,1.0688,1.0657,1.0639,0.0,0.0,0.0,0.0,0.0,0.0,1.0725,1.0688,1.0688,1.0688,1.1244,1.2279,1.4476,1.5846,1.6915,0.0,0.0,0.0,0.0,0.0,0.0,0.0,0.0,0.2491,0.2491,0.2491,0.2491,0.2491,0.2491,0.2491,0.2491,0.0,0.0,0.0,0.0,0.0,0.0,0.0,0.0,0.0,0.2561,0.2459,0.2486,0.231,0.2221,0.2199,0.2266,0.3245,0.4932,0.5063,0.6179,0.793,0.0,0.0,0.0,0.0,0.0,0.0,0.0,0.0,0.0,0.0,0.0,0.0,0.0,0.0,0.0,0.0,0.0,0.0,0.0,0.0,0.0,0.0,0.8502,0.8554,0.8821,0.8902,0.8912,0.8912,0.8912,0.0,0.8912,0.8912,0.8912,0.8912,0.8912,0.9007,0.9334,0.941,0.0,0.0,0.9792,0.0,0.0,0.0,0.0,0.0,0.0,0.0,0.0,0.0,0.0,0.0,0.0,1.0688,1.0688,1.0677,1.0677,1.0688,1.0688,1.0714,1.0704,1.0704,1.0622,1.048,0.0,0.0,0.0,0.0,0.0,0.0,1.0694,1.0654,1.0654,1.0654,1.0654,1.1031,1.3987,1.5148,1.5641,0.0,0.0,0.0,0.0,0.0,0.0,0.0,0.0,0.0,0.0,0.2491,0.2491,0.2491,0.2491,0.2491,0.0,0.0,0.0,0.0,0.0,0.0,0.0,0.0,0.0,0.0,0.2693,0.2615,0.2431,0.2427,0.2357,0.2221,0.2935,0.358,0.4225,0.5711,0.7022,0.8146,0.8324,0.0,0.0,0.0,0.0,0.0,0.0,0.0,0.0,0.7988,0.7988,0.0,0.0,0.0,0.0,0.0,0.0,0.0,0.0,0.7988,0.8054,0.8294,0.0,0.8526,0.8716,0.8825,0.8912,0.0,0.8912,0.8912,0.8912,0.8912,0.8912,0.8912,0.8912,0.9007,0.9334,0.0,0.9486,0.9748,0.0,0.0,0.0,0.0,0.0,0.0,0.0,0.0,0.0,0.0,0.0,0.0,0.0,1.0688,1.0688,1.0605,1.0602,1.0684,1.0688,1.0663,1.0548,1.0548,1.047,1.0334,0.0,0.0,0.0,0.0,0.0,1.0538,1.0429,1.0385,1.0385,1.0385,1.0385,1.061,1.2418,1.3707,1.4796,0.0,0.0,0.0,0.0,0.0,0.0,0.0,0.0,0.0,0.0,0.0,0.0,0.0,0.0,0.0,0.0,0.0,0.0,0.0,0.0,0.0,0.0,0.0,0.2572,0.2601,0.2694,0.269,0.2587,0.2644,0.2627,0.2536,0.3472,0.4206,0.4805,0.676,0.7915,0.8388,0.851,0.8536,0.0,0.8624,0.0,0.0,0.0,0.0,0.0,0.8137,0.8113,0.0,0.7988,0.7988,0.7988,0.0,0.0,0.0,0.0,0.7988,0.8033,0.8143,0.8319,0.8546,0.8672,0.8798,0.8912,0.8912,0.8912,0.8912,0.8912,0.8912,0.8912,0.8912,0.8912,0.9007,0.0,0.941,0.0,0.0,0.0,0.9792,0.0,0.0,0.0,0.0,0.0,0.0,0.0,0.0,0.0,0.0,0.0,1.0517,1.0517,1.0439,1.0466,1.0616,1.0551,1.0477,1.0395,1.0395,1.0317,1.0147,0.0,0.0,0.0,0.0,0.0,1.0178,1.01,1.007,1.007,1.007,1.007,1.0263,1.1721,1.3083,1.443,0.0,0.0,0.0,0.0,0.0,0.0,0.0,0.0,0.0,0.0,0.0,0.0,0.0,0.0,0.0,0.0,0.0,0.0,0.0,0.0,0.0,0.0,0.0,0.2598,0.2802,0.2744,0.2807,0.3021,0.2932,0.2897,0.292,0.4009,0.5099,0.6207,0.7874,0.859,0.859,0.859,0.8688,0.8791,0.8722,0.0,0.0,0.0,0.0,0.0,0.0,0.0,0.0,0.8038,0.8038,0.7988,0.7988,0.0,0.0,0.0,0.0,0.0,0.7988,0.8238,0.8512,0.8638,0.8764,0.8882,0.8906,0.8912,0.8912,0.8912,0.8912,0.8912,0.8912,0.8912,0.9007,0.0,0.0,0.0,0.9754,0.9792,0.0,0.0,0.0,0.0,0.0,0.0,0.0,0.0,0.0,0.0,0.0,0.0,0.0,1.0312,1.0256,1.0304,1.0422,1.0327,1.0266,1.0246,1.0246,1.0164,0.9984,0.9984,0.0,0.0,0.0,0.0,0.9792,0.9792,0.9792,0.9792,0.9792,0.9792,0.9957,1.1275,1.2734,1.4289,0.0,0.0,0.0,0.0,0.0,0.0,0.0,0.0,0.0,0.0,0.0,0.0,0.0,0.0,0.0,0.0,0.0,0.0,0.0,0.0,0.0,0.2491,0.2491,0.2913,0.3768,0.3074,0.3124,0.399,0.3263,0.2897,0.2941,0.4676,0.6432,0.8164,0.8476,0.859,0.859,0.859,0.8688,0.8791,0.8733,0.0,0.0,0.0,0.0,0.0,0.0,0.0,0.0,0.8258,0.8187,0.7988,0.7988,0.0,0.0,0.0,0.0,0.0,0.7988,0.817,0.8362,0.8509,0.8632,0.875,0.8882,0.8912,0.8912,0.8912,0.8912,0.8912,0.8912,0.8912,0.9007,0.0,0.0,0.0,0.0,0.0,0.0,0.0,0.0,0.0,0.0,0.0,0.0,0.0,0.0,0.0,0.0,0.0,0.0,1.0312,1.012,1.0065,1.0086,1.0226,1.0215,1.0055,1.0055,0.9974,0.9825,0.9825,0.9812,0.0,0.0,0.9792,0.9792,0.9792,0.9792,0.9792,0.9792,0.9792,0.9822,1.0059,1.1694,1.4131,0.0,0.0,0.0,0.0,0.0,0.0,0.0,0.0,0.0,0.0,0.0,0.0,0.0,0.0,0.0,0.0,0.0,0.0,0.0,0.0,0.0,0.3291,0.3313,0.3291,0.3246,0.3423,0.3481,0.3453,0.3087,0.3163,0.3698,0.5586,0.7231,0.859,0.859,0.859,0.859,0.859,0.8635,0.8706,0.0,0.0,0.0,0.0,0.0,0.0,0.0,0.0,0.0,0.0,0.8113,0.7988,0.7988,0.0,0.0,0.0,0.0,0.0,0.7988,0.8067,0.8197,0.8451,0.8598,0.8723,0.8875,0.8912,0.8912,0.8912,0.8912,0.8912,0.8912,0.8912,0.9007,0.9334,0.0,0.0,0.0,0.0,0.0,0.0,0.0,0.0,0.0,0.0,0.0,0.0,0.0,0.0,0.0,0.0,0.0,0.0,0.9934,0.9896,0.9896,0.9995,0.9995,0.9896,0.9896,0.9859,0.9792,0.9792,0.9792,0.9792,0.0,0.9792,0.9792,0.9792,0.9792,0.9792,0.9792,0.9792,0.997,1.1382,1.3092,1.5021,0.0,0.0,0.0,0.0,0.0,0.0,0.0,0.0,0.0,0.0,0.0,0.0,0.0,0.0,0.0,0.0,0.0,0.0,0.0,0.0,0.3284,0.4268,0.4358,0.4037,0.332,0.39,0.385,0.3152,0.2984,0.3499,0.4654,0.6096,0.743,0.859,0.859,0.859,0.859,0.859,0.8615,0.8676,0.0,0.0,0.0,0.0,0.0,0.0,0.0,0.0,0.0,0.0,0.0,0.0,0.0,0.0,0.0,0.7988,0.7988,0.7988,0.7988,0.7988,0.8084,0.8408,0.857,0.8706,0.8869,0.8912,0.8912,0.8912,0.8912,0.8912,0.8912,0.8936,0.0,0.934,0.0,0.0,0.0,0.0,0.0,0.0,0.0,0.0,0.0,0.0,0.0,0.0,0.0,0.0,0.0,0.0,0.0,0.0,0.9792,0.9792,0.9792,0.9792,0.9792,0.9792,0.9792,0.9792,0.9792,0.9792,0.9792,0.9792,0.9792,0.9792,0.9792,0.9792,0.9792,0.9792,0.9792,0.9792,1.0122,1.2736,1.4321,1.5391,0.0,0.0,0.0,0.0,0.0,0.0,0.0,0.0,0.0,0.0,0.0,0.0,0.0,0.0,0.0,0.0,0.0,0.0,0.0,0.0,0.4284,0.5175,0.539,0.5448,0.5384,0.4607,0.4204,0.42,0.3318,0.3833,0.5608,0.5741,0.6808,0.859,0.859,0.859,0.859,0.859,0.868,0.8797,0.9019,0.0,0.0,0.0,0.0,0.0,0.0,0.0,0.0,0.0,0.0,0.0,0.0,0.0,0.7988,0.7988,0.7988,0.7988,0.7988,0.7988,0.8084,0.8408,0.8515,0.8574,0.8845,0.8912,0.8912,0.8912,0.8912,0.8912,0.8912,0.9049,0.922,0.9383,0.0,0.0,0.0,0.0,0.0,0.0,0.0,0.0,0.0,0.0,0.0,0.0,0.0,0.0,0.0,0.0,0.0,0.0,0.0,0.9792,0.9792,0.9792,0.9792,0.9792,0.9792,0.9792,0.9792,0.9792,0.9792,0.9792,0.9792,0.9792,0.9792,0.9792,0.9792,0.9792,0.9792,0.9792,1.0122,1.2736,1.3754,1.4202,0.0,0.0,0.0,0.0,0.0,0.0,0.0,0.0,0.0,0.0,0.0,0.0,0.0,0.0,0.0,0.0,0.0,0.0,0.0,0.3971,0.4714,0.6295,0.5871,0.5897,0.6527,0.5036,0.3999,0.3432,0.4233,0.53,0.6583,0.7209,0.79,0.859,0.859,0.859,0.8594,0.8678,0.8763,0.8822,0.916,0.9224,0.0,0.0,0.0,0.0,0.0,0.0,0.0,0.0,0.8088,0.7988,0.7988,0.7988,0.7988,0.7988,0.7988,0.7988,0.7988,0.7988,0.8084,0.8408,0.8509,0.8564,0.8841,0.8912,0.8912,0.8912,0.8912,0.8912,0.8912,0.0,0.91,0.0,0.0,0.0,0.0,0.0,0.0,0.0,0.0,0.0,0.0,0.0,0.0,0.0,0.0,0.0,0.0,0.0,0.0,0.0,0.0,0.9792,0.9792,0.9792,0.9792,0.9792,0.9792,0.9792,0.9792,0.9792,0.9792,0.9792,0.9792,0.9792,0.9792,0.9792,0.9792,0.9792,0.9792,1.0781,1.2346,1.3336,1.4708,1.6196,0.0,0.0,0.0,0.0,0.0,0.0,0.0,0.0,0.0,0.0,0.0,0.0,0.0,0.0,0.0,0.0,0.0,0.0,0.4711,0.4849,0.5511,0.6902,0.6115,0.5963,0.665,0.5119,0.4121,0.3788,0.5077,0.6185,0.7117,0.7808,0.83,0.859,0.852,0.8504,0.8546,0.8573,0.8638,0.8756,0.9045,0.9051,0.0,0.0,0.0,0.0,0.0,0.0,0.0,0.0,0.7988,0.7988,0.7988,0.7988,0.7988,0.7988,0.7988,0.7988,0.7988,0.7988,0.8084,0.8408,0.8509,0.8564,0.8841,0.8912,0.8912,0.8912,0.8912,0.8912,0.8912,0.0,0.0,0.0,0.0,0.0,0.0,0.0,0.0,0.0,0.0,0.0,0.0,0.0,0.0,0.0,0.0,0.0,0.0,0.0,0.0,0.0,0.0,0.0,0.9792,0.9792,0.9792,0.9792,0.9792,0.9792,0.9792,0.9792,0.9792,0.9792,0.9792,0.9792,0.9792,0.9792,0.9792,0.9792,0.9792,1.0902,1.2526,1.2916,1.4441,1.6349,0.0,0.0,0.0,0.0,0.0,0.0,0.0,0.0,0.0,0.0,0.0,0.0,0.0,0.0,0.0,0.0,0.0,0.0,0.6384,0.6692,0.6819,0.6905,0.6139,0.5719,0.5719,0.481,0.4788,0.5719,0.5719,0.6185,0.7117,0.7117,0.7654,0.859,0.8314,0.828,0.8397,0.8197,0.8296,0.8594,0.8594,0.8687,0.8775,0.0,0.0,0.0,0.0,0.0,0.0,0.0,0.7988,0.7988,0.7988,0.7988,0.7988,0.7988,0.7988,0.7988,0.7988,0.7988,0.8084,0.8408,0.8509,0.8564,0.8841,0.8912,0.8912,0.8912,0.8912,0.8912,0.8912,0.8912,0.0,0.0,0.0,0.0,0.0,0.0,0.0,0.0,0.0,0.0,0.0,0.0,0.0,0.0,0.0,0.0,0.0,0.0,0.0,0.0,0.0,0.0,0.9792,0.9792,0.9792,0.9792,0.9792,0.9792,0.9792,0.9792,0.9792,0.9792,0.9792,0.9792,0.9792,0.9792,0.9792,0.9792,0.9792,0.9822,0.997,1.1239,1.256,1.3874,0.0,0.0,0.0,0.0,0.0,0.0,0.0,0.0,0.0,0.0,0.0,0.0,0.0,0.0,0.0,0.0,0.0,0.0,0.6634,0.6236,0.6591,0.8036,0.6565,0.634,0.772,0.7477,0.7117,0.6675,0.6675,0.7187,0.8164,0.8164,0.8275,0.8455,0.8384,0.8432,0.8621,0.8699,0.8787,0.8887,0.8986,0.8816,0.8503,0.0,0.0,0.0,0.0,0.0,0.0,0.0,0.0,0.0,0.7988,0.7988,0.7988,0.7988,0.7988,0.7988,0.7988,0.7988,0.8084,0.8408,0.8509,0.8564,0.8841,0.8912,0.8912,0.8912,0.8912,0.8912,0.8912,0.0,0.0,0.0,0.0,0.0,0.0,0.0,0.0,0.0,0.0,0.0,0.0,0.0,0.0,0.0,0.0,0.0,0.0,0.0,0.0,0.0,0.0,0.0,0.9792,0.9792,0.9792,0.9792,0.9792,0.9792,0.9792,0.9792,0.9792,0.9792,0.9792,0.9792,0.9792,0.9792,0.9792,0.9792,0.9792,1.0365,1.1178,1.1571,1.256,1.3754,0.0,0.0,0.0,0.0,0.0,0.0,0.0,0.0,0.0,0.0,0.3802,0.0,0.0,0.0,0.0,0.0,0.0,0.0,0.0,0.67,0.6897,0.7423,0.6675,0.6808,0.7984,0.8388,0.8332,0.7767,0.7727,0.8041,0.867,0.8581,0.8516,0.8513,0.8283,0.8308,0.8492,0.8521,0.8551,0.8621,0.8696,0.8535,0.8237,0.0,0.0,0.0,0.0,0.0,0.0,0.0,0.0,0.0,0.7988,0.7988,0.7988,0.7988,0.7988,0.7988,0.7988,0.7988,0.8084,0.8408,0.8509,0.8564,0.8841,0.8912,0.8912,0.8912,0.8912,0.8912,0.8912,0.8912,0.0,0.0,0.0,0.0,0.0,0.0,0.0,0.0,0.0,0.0,0.0,0.0,0.0,0.0,0.0,0.0,0.0,0.0,0.0,0.0,0.0,0.0,0.9792,0.9792,0.9792,0.9792,0.9792,0.9792,0.9792,0.9792,0.9792,0.9792,0.9792,0.9792,0.9792,0.9792,0.9792,0.9792,0.9792,1.0274,1.0936,1.0936,1.1778,1.2921,0.0,0.0,0.0,0.0,0.0,0.0,0.0,0.0,0.0,0.0,0.3841,0.3546,0.0,0.0,0.0,0.0,0.0,0.0,0.0,0.0,0.7516,0.6027,0.6786,0.7228,0.7228,0.8136,0.8688,0.8797,0.8688,0.87,0.8822,0.8549,0.8528,0.866,0.8151,0.8032,0.8205,0.7956,0.7937,0.8038,0.8038,0.8013,0.7988,0.7988,0.0,0.0,0.0,0.0,0.0,0.0,0.0,0.0,0.7988,0.7988,0.7988,0.7988,0.7988,0.7988,0.7988,0.7988,0.8084,0.8408,0.8529,0.8598,0.8848,0.8912,0.8912,0.8912,0.0,0.8912,0.8912,0.0,0.0,0.0,0.0,0.0,0.0,0.0,0.0,0.0,0.0,0.0,0.0,0.0,0.0,0.0,0.0,0.0,0.0,0.0,0.0,0.0,0.0,0.0,0.9792,0.9792,0.9792,0.0,0.9792,0.9792,0.9792,0.9792,0.9792,0.9792,0.9792,0.9792,0.9792,0.9792,0.9792,0.9792,0.9792,0.9792,0.9792,0.9792,1.0516,1.1541,0.0,0.0,0.0,0.0,0.0,0.0,0.0,0.0,0.0,0.0,0.0,0.0,0.0,0.0,0.0,0.0,0.0,0.0,0.0,0.0,0.7548,0.7962,0.8164,0.8274,0.8274,0.8583,0.8761,0.8797,0.8761,0.8861,0.9039,0.8753,0.8632,0.8606,0.8274,0.8219,0.8357,0.8283,0.8276,0.8308,0.8308,0.8187,0.7988,0.7988,0.7988,0.0,0.0,0.0,0.0,0.0,0.0,0.0,0.7988,0.7988,0.7988,0.7988,0.7988,0.7988,0.7988,0.7988,0.8084,0.8408,0.8662,0.8831,0.8896,0.8912,0.8912,0.8912,0.8912,0.8912,0.0,0.0,0.0,0.0,0.0,0.0,0.0,0.0,0.0,0.0,0.0,0.0,0.0,0.0,0.0,0.0,0.0,0.0,0.0,0.0,0.0,0.0,0.0,0.9792,0.9792,0.9792,0.9792,0.0,0.9792,0.9792,0.9792,0.9792,0.9792,0.9792,0.9792,0.9792,0.9792,0.9792,0.9792,0.9792,0.9792,0.9792,0.9792,0.9792,0.997,1.0213,0.0,0.0,0.0,0.0,0.0,0.0,0.0,0.0,0.0,0.0,0.0,0.0,0.0,0.0,0.0,0.0,0.0,0.0,0.0,0.0,0.8054,0.8568,0.859,0.8627,0.8686,0.8753,0.8905,0.9076,0.8959,0.8941,0.9056,0.8768,0.8593,0.8486,0.822,0.8139,0.8212,0.8212,0.8212,0.8212,0.8212,0.8137,0.7988,0.7988,0.7988,0.7988,0.7988,0.0,0.0,0.0,0.0,0.0,0.0,0.0,0.7988,0.7988,0.7988,0.7988,0.7988,0.8067,0.8221,0.8516,0.874,0.8912,0.8912,0.8912,0.8912,0.8912,0.8912,0.0,0.0,0.0,0.0,0.0,0.0,0.0,0.0,0.0,0.0,0.0,0.0,0.0,0.0,0.0,0.0,0.0,0.0,0.0,0.0,0.0,0.0,0.0,0.9792,0.9792,0.9792,0.9792,0.9792,0.9792,0.9792,0.9792,0.9792,0.9792,0.9792,0.9792,0.9792,0.9792,0.9792,0.9792,0.9792,0.9792,0.9792,0.9792,0.9792,0.9792,0.9792,0.9792,0.0,0.0,0.0,0.0,0.0,0.0,0.0,0.0,0.0,0.0,0.0,0.0,0.0,0.0,0.0,0.0,0.0,0.0,0.0,0.0,0.0,0.859,0.859,0.8672,0.8793,0.883,0.9004,0.9332,0.9123,0.8994,0.8894,0.868,0.8506,0.8382,0.8113,0.7988,0.7988,0.7988,0.7988,0.7988,0.7988,0.7988,0.7988,0.7988,0.7988,0.7988,0.7988,0.7988,0.7988,0.7988,0.0,0.0,0.0,0.0,0.7988,0.7988,0.7988,0.7988,0.7988,0.817,0.84,0.8645,0.8798,0.8912,0.8912,0.8912,0.8912,0.8912,0.8912,0.0,0.0,0.0,0.0,0.0,0.0,0.0,0.0,0.0,0.0,0.0,0.0,0.0,0.0,0.0,0.0,0.0,0.0,0.0,0.0,0.0,0.9792,0.9792,0.9792,0.9792,0.9792,0.9792,0.9792,0.9792,0.9792,0.9792,0.9792,0.9792,0.9792,0.9792,0.9792,0.9792,0.9792,0.9792,0.9792,0.9792,0.9792,0.9792,0.9792,0.9792,0.9792,0.9792,0.0,0.0,0.0,0.0,0.0,0.0,0.0,0.0,0.0,0.0,0.0,0.0,0.0,0.0,0.0,0.0,0.0,0.0,0.0,0.0,0.0,0.859,0.859,0.8672,0.8793,0.8978,0.9063,0.9048,0.9123,0.8926,0.8474,0.8449,0.8414,0.8382,0.8113,0.7988,0.7988,0.7988,0.7988,0.7988,0.7988,0.7988,0.7988,0.7988,0.7988,0.7988,0.7988,0.7988,0.7988,0.7988,0.7988,0.0,0.0,0.0,0.7988,0.7988,0.7988,0.7988,0.7988,0.8241,0.8519,0.8669,0.8798,0.8912,0.8912,0.8912,0.8912,0.0,0.0,0.0,0.0,0.0,0.0,0.0,0.0,0.0,0.0,0.0,0.0,0.0,0.0,0.0,0.0,0.0,0.0,0.0,0.0,0.0,0.0,0.9792,0.9792,0.9792,0.9792,0.9792,0.9792,0.9792,0.9792,0.9792,0.9792,0.9792,0.9792,0.9792,0.9792,0.9792,0.9792,0.9792,0.9792,0.9792,0.9792,0.9792,0.9792,0.9792,0.9792,0.9792,0.9792,0.9792,0.0,0.0,0.0,0.0,0.0,0.0,0.0,0.0,0.0,0.0,0.0,0.0,0.0,0.0,0.0,0.0,0.0,0.0,0.0,0.0,0.0,0.859,0.868,0.8792,0.897,0.9176,0.9212,0.912,0.9017,0.8779,0.8407,0.8237,0.8187,0.8162,0.8063,0.7988,0.7988,0.7988,0.7988,0.7988,0.7988,0.7988,0.7988,0.7988,0.7988,0.7988,0.7988,0.7988,0.7988,0.7988,0.7988,0.7988,0.7988,0.0,0.0,0.0,0.7988,0.805,0.8216,0.8384,0.854,0.875,0.8862,0.8912,0.8912,0.8912,0.8912,0.8912,0.0,0.0,0.0,0.0,0.0,0.0,0.0,0.0,0.0,0.0,0.0,0.0,0.0,0.0,0.0,0.0,0.0,0.0,0.0,0.0,0.9792,0.9792,0.9792,0.9792,0.9792,0.0,0.9792,0.9792,0.9792,0.9792,0.9792,0.9792,0.9792,0.9792,0.9792,0.9792,0.9792,0.9792,0.9792,0.9792,0.9792,0.9792,0.9792,0.9792,0.9792,0.9792,0.9792,0.9792,0.0,0.0,0.0,0.0,0.0,0.0,0.0,0.0,0.0,0.0,0.0,0.0,0.0,0.0,0.0,0.0,0.0,0.0,0.0,0.0,0.0,0.8651,0.8751,0.8926,0.9181,0.9267,0.9227,0.9109,0.8829,0.8552,0.8283,0.8088,0.7988,0.7988,0.7988,0.7988,0.7988,0.7988,0.7988,0.7988,0.7988,0.7988,0.7988,0.7988,0.7988,0.7988,0.7988,0.7988,0.0,0.0,0.0,0.0,0.0,0.0,0.0,0.0,0.0,0.8128,0.8411,0.8536,0.8604,0.8845,0.8912,0.8912,0.8912,0.0,0.8912,0.0,0.0,0.0,0.0,0.0,0.0,0.0,0.0,0.0,0.0,0.0,0.0,0.0,0.0,0.0,0.0,0.0,0.0,0.0,0.0,0.0,0.9792,0.9792,0.9792,0.9792,0.9792,0.9792,0.9792,0.9792,0.9792,0.9792,0.9792,0.9792,0.9792,0.9792,0.9792,0.9792,0.9792,0.9792,0.9792,0.9792,0.9792,0.9792,0.9792,0.9792,0.9792,0.9792,0.9792,0.9792,0.0,0.0,0.0,0.0,0.0,0.0,0.0,0.0,0.0,0.0,0.0,0.0,0.7503,0.7662,0.7837,0.7979,0.0,0.0,0.0,0.0,0.0,0.8777,0.8793,0.0,0.938,0.9136,0.8956,0.8825,0.8552,0.8283,0.8013,0.8013,0.7988,0.7988,0.7988,0.7988,0.7988,0.7988,0.7988,0.7988,0.7988,0.7988,0.7988,0.7988,0.7988,0.7988,0.7988,0.0,0.0,0.0,0.0,0.0,0.0,0.0,0.7988,0.0,0.0,0.0,0.8468,0.8587,0.871,0.8872,0.8912,0.8912,0.8912,0.0,0.0,0.0,0.0,0.0,0.0,0.0,0.0,0.0,0.0,0.0,0.0,0.0,0.0,0.0,0.0,0.0,0.0,0.0,0.0,0.0,0.0,0.0,0.9792,0.9792,0.9792,0.9792,0.9792,0.9792,0.9792,0.9792,0.9792,0.9792,0.9792,0.9792,0.9792,0.9792,0.9792,0.9792,0.9792,0.9792,0.9792,0.9792,0.9792,0.9792,0.9792,0.9792,0.9792,0.9792,0.9792,0.9792,0.0,0.0,0.0,0.0,0.0,0.0,0.0,0.0,0.0,0.0,0.0,0.0,0.0,0.769,0.7849,0.8,0.8292,0.0,0.0,0.0,0.0,0.8797,0.9039,0.9179,0.9136,0.9133,0.8949,0.8552,0.8457,0.8258,0.7988,0.7988,0.7988,0.7988,0.7988,0.7988,0.7988,0.7988,0.7988,0.7988,0.7988,0.7988,0.7988,0.7988,0.7988,0.0,0.0,0.0,0.0,0.0,0.0,0.0,0.0,0.0,0.0,0.7988,0.815,0.8328,0.8468,0.8594,0.872,0.8872,0.8912,0.8912,0.8912,0.8912,0.8912,0.0,0.0,0.0,0.0,0.0,0.0,0.0,0.0,0.0,0.0,0.0,0.0,0.0,0.0,0.0,0.0,0.0,0.0,0.0,0.0,0.0,0.9792,0.9792,0.9792,0.9792,0.9792,0.9792,0.9792,0.9792,0.9792,0.9792,0.9792,0.9792,0.9792,0.9792,0.9792,0.9792,0.9792,0.9792,0.9792,0.9792,0.9792,0.9792,0.9792,0.9792,0.9792,0.9792,0.9792,0.9792,0.0,0.0,0.0,0.0,0.0,0.0,0.0,0.0,0.0,0.5331,0.0,0.0,0.0,0.0,0.751,0.7922,0.8206,0.8394,0.8431,0.8516,0.8603,0.8717,0.8993,0.9071,0.8932,0.8924,0.8758,0.8407,0.8308,0.8187,0.7988,0.7988,0.7988,0.7988,0.7988,0.7988,0.7988,0.7988,0.7988,0.7988,0.7988,0.7988,0.7988,0.0,0.0,0.0,0.0,0.0,0.0,0.0,0.0,0.0,0.0,0.0,0.0,0.0,0.8184,0.8389,0.8481,0.8632,0.8784,0.8885,0.8912,0.8912,0.8912,0.0,0.0,0.0,0.0,0.0,0.0,0.0,0.0,0.0,0.0,0.0,0.0,0.0,0.0,0.0,0.0,0.0,0.0,0.0,0.0,0.0,0.0,0.0,0.9792,0.9792,0.9792,0.9792,0.9792,0.9792,0.9792,0.9792,0.9792,0.9792,0.9792,0.9792,0.9792,0.9792,0.9792,0.9792,0.9792,0.9792,0.9792,0.9792,0.9792,0.9792,0.9792,0.9792,0.9792,0.9792,0.9792,0.9792,0.0,0.0,0.0,0.0,0.0,0.0,0.0,0.0,0.4355,0.5912,0.0,0.0,0.0,0.0,0.0,0.7804,0.79,0.7949,0.8094,0.8109,0.8255,0.8579,0.0,0.0,0.8796,0.8531,0.8407,0.8382,0.8137,0.7988,0.7988,0.7988,0.7988,0.7988,0.7988,0.7988,0.7988,0.7988,0.7988,0.7988,0.0,0.7988,0.7988,0.0,0.0,0.0,0.7988,0.7988,0.0,0.7988,0.0,0.0,0.0,0.0,0.0,0.0,0.0,0.8509,0.0,0.0,0.0,0.8912,0.8912,0.8912,0.8912,0.0,0.0,0.0,0.0,0.0,0.0,0.0,0.0,0.0,0.0,0.0,0.0,0.0,0.0,0.0,0.0,0.0,0.0,0.0,0.0,0.0,0.0,0.9792,0.9792,0.9792,0.9792,0.9792,0.9792,0.9792,0.9792,0.9792,0.9792,0.9792,0.9792,0.9792,0.9792,0.9792,0.9792,0.9792,0.9792,0.9792,0.9792,0.9792,0.9792,0.9792,0.9792,0.9792,0.9792,0.9792,0.9792,0.9792,0.0,0.0,0.0,0.0,0.0,0.0,0.2787,0.3391,0.3891,0.0,0.0,0.0,0.4846,0.5693,0.6693,0.7812,0.79,0.7949,0.8094,0.8187,0.8347,0.8583,0.8702,0.8682,0.8506,0.8432,0.8308,0.8113,0.8038,0.7988,0.7988,0.7988,0.7988,0.7988,0.7988,0.7988,0.7988,0.7988,0.7988,0.7988,0.7988,0.7988,0.0,0.0,0.0,0.0,0.0,0.7988,0.7988,0.0,0.7988,0.7988,0.0,0.0,0.0,0.0,0.0,0.8509,0.8509,0.0,0.0,0.0,0.0,0.0,0.0,0.0,0.0,0.0,0.0,0.0,0.0,0.0,0.0,0.0,0.0,0.0,0.0,0.0,0.0,0.0,0.0,0.0,0.0,0.0,0.0,0.0,0.9792,0.9792,0.9792,0.9792,0.9792,0.9792,0.9792,0.9792,0.9792,0.9792,0.9792,0.9792,0.9792,0.9792,0.9792,0.9792,0.9792,0.9792,0.9792,0.9792,0.9792,0.9792,0.9792,0.9792,0.9792,0.9792,0.9792,0.9792,0.9792,0.9792,0.0,0.0,0.0,0.0,0.0,0.243,0.2387,0.28,0.3171,0.0,0.0,0.0,0.3826,0.4789,0.5834,0.689,0.7426,0.7757,0.7876,0.8027,0.8181,0.8346,0.8435,0.8382,0.8233,0.8233,0.8162,0.7988,0.7988,0.7988,0.7988,0.7988,0.7988,0.7988,0.7988,0.7988,0.7988,0.7988,0.0,0.0,0.7988,0.0,0.0,0.7988,0.7988,0.0,0.0,0.0,0.7988,0.7988,0.7988,0.0,0.0,0.0,0.0,0.0,0.0,0.8509,0.8509,0.8706,0.8912,0.0,0.0,0.0,0.8912,0.8912,0.0,0.0,0.0,0.0,0.0,0.0,0.0,0.0,0.0,0.0,0.0,0.0,0.0,0.0,0.0,0.0,0.0,0.0,0.0,0.0,0.9792,0.9792,0.9792,0.9792,0.9792,0.9792,0.9792,0.9792,0.9792,0.9792,0.9792,0.9792,0.9792,0.9792,0.9792,0.9792,0.9792,0.9792,0.9792,0.9792,0.9792,0.9792,0.9792,0.9792,0.9792,0.9792,0.9792,0.9792,0.9792,0.9792,0.0,0.0,0.0,0.2371,0.2436,0.2392,0.2196,0.2177,0.2354,0.0,0.2295,0.2163,0.2992,0.3715,0.4563,0.5624,0.6653,0.7349,0.7611,0.774,0.7854,0.7982,0.7988,0.7988,0.7988,0.7988,0.7988,0.7988,0.7988,0.7988,0.7988,0.7988,0.7988,0.7988,0.7988,0.7988,0.7988,0.7988,0.0,0.7988,0.7988,0.7988,0.0,0.0,0.7963,0.7939,0.7914,0.7914,0.7914,0.7914,0.7914,0.0,0.0,0.0,0.0,0.0,0.8262,0.8512,0.8529,0.872,0.8912,0.0,0.0,0.0,0.8912,0.8912,0.8912,0.0,0.0,0.0,0.0,0.0,0.0,0.0,0.0,0.0,0.0,0.0,0.0,0.0,0.0,0.0,0.0,0.0,0.9663,0.9758,0.9781,0.9792,0.9792,0.9792,0.9792,0.9792,0.9792,0.9792,0.9792,0.9792,0.9792,0.9792,0.9792,0.9792,0.9792,0.9792,0.9792,0.9792,0.9792,0.9792,0.9792,0.9792,0.9792,0.9792,0.9792,0.9792,0.9792,0.9792,0.9792,0.9792,0.0,0.0,0.2359,0.225,0.2248,0.2198,0.1983,0.1964,0.1939,0.1895,0.1653,0.1862,0.2842,0.3081,0.3894,0.5711,0.6062,0.6635,0.7702,0.7794,0.7854,0.7982,0.7988,0.7988,0.7988,0.7988,0.7988,0.7988,0.7988,0.7988,0.7988,0.7988,0.7988,0.7988,0.7988,0.7988,0.7988,0.0,0.0,0.7988,0.7988,0.0,0.7967,0.7768,0.7671,0.7643,0.7441,0.7363,0.7363,0.0,0.7363,0.7388,0.0,0.0,0.0,0.0,0.0,0.0,0.0,0.0,0.0,0.0,0.0,0.0,0.8912,0.8912,0.8912,0.0,0.0,0.0,0.0,0.0,0.0,0.0,0.0,0.0,0.0,0.0,0.0,0.0,0.0,0.0,0.0,0.0,0.9622,0.9649,0.9724,0.9792,0.9792,0.9792,0.9792,0.9792,0.9792,0.9792,0.9792,0.9792,0.9792,0.9792,0.9792,0.9792,0.9792,0.9792,0.9792,0.9792,0.9792,0.9792,0.9792,0.9792,0.9792,0.9792,0.9792,0.9792,0.9792,0.9792,0.9792,0.9792,0.2265,0.2273,0.2243,0.2077,0.2042,0.1983,0.1788,0.1747,0.1688,0.1483,0.1417,0.1598,0.2102,0.26,0.331,0.4305,0.5417,0.6314,0.6952,0.7562,0.7935,0.7985,0.7988,0.7988,0.7988,0.7988,0.7988,0.7988,0.7988,0.7988,0.7988,0.7988,0.7988,0.7988,0.7988,0.7988,0.7988,0.0,0.7988,0.7988,0.7842,0.0,0.7768,0.7494,0.7391,0.7391,0.7238,0.7213,0.7188,0.7042,0.7089,0.0,0.0,0.7294,0.7494,0.0,0.8186,0.8358,0.0,0.0,0.0,0.8912,0.0,0.0,0.0,0.8912,0.8912,0.8912,0.0,0.0,0.0,0.0,0.0,0.0,0.0,0.0,0.0,0.0,0.0,0.0,0.0,0.0,0.0,0.0,0.9445,0.9598,0.971,0.9792,0.9792,0.9792,0.9792,0.9792,0.9792,0.9792,0.9792,0.9792,0.9792,0.9792,0.9792,0.9792,0.9792,0.9792,0.9792,0.9792,0.9792,0.9792,0.9792,0.9792,0.9792,0.9792,0.9792,0.9792,0.9792,0.9792,0.9792,0.9879,0.2155,0.2168,0.2118,0.1886,0.1848,0.1772,0.1581,0.1548,0.149,0.1339,0.1366,0.1408,0.141,0.21,0.2638,0.2834,0.4456,0.5674,0.6138,0.0,0.0,0.7988,0.7988,0.7988,0.7988,0.7988,0.7988,0.7988,0.7988,0.7988,0.7988,0.7988,0.7988,0.7988,0.7939,0.7939,0.7988,0.0,0.0,0.7612,0.0,0.7593,0.7643,0.7316,0.7213,0.7188,0.7086,0.7036,0.7014,0.6792,0.0,0.7089,0.6867,0.7009,0.0,0.0,0.0,0.0,0.0,0.0,0.0,0.0,0.0,0.8912,0.0,0.0,0.0,0.8912,0.0,0.0,0.0,0.0,0.0,0.0,0.0,0.0,0.0,0.0,0.0,0.0,0.0,0.0,0.0,0.0,0.9294,0.9544,0.97,0.9751,0.9751,0.9775,0.9792,0.9792,0.9792,0.9792,0.9792,0.9792,0.9792,0.9792,0.9792,0.9792,0.9792,0.9792,0.9792,0.9792,0.9792,0.9792,0.9792,0.9792,0.9792,0.9792,0.9792,0.9792,0.9792,0.9792,0.9792,0.994,0.2187,0.2192,0.2079,0.1709,0.1631,0.1563,0.1374,0.1341,0.1342,0.1394,0.1387,0.1409,0.139,0.1348,0.1675,0.2649,0.0,0.0,0.5879,0.0,0.6756,0.7939,0.7988,0.7988,0.7988,0.7988,0.7988,0.7988,0.7988,0.7988,0.7988,0.7988,0.7988,0.7988,0.7743,0.7768,0.7988,0.0,0.7089,0.0,0.6961,0.7537,0.0,0.7388,0.7213,0.7138,0.6661,0.6487,0.6487,0.0,0.6614,0.6842,0.0,0.7071,0.7472,0.0,0.0,0.0,0.0,0.0,0.0,0.0,0.8912,0.0,0.0,0.0,0.8912,0.8912,0.0,0.8912,0.8912,0.0,0.0,0.0,0.0,0.0,0.0,0.0,0.0,0.0,0.0,0.0,0.0,0.0,0.0,0.9424,0.9547,0.9635,0.9635,0.9721,0.9792,0.9792,0.9792,0.9792,0.9792,0.9792,0.9792,0.9792,0.9792,0.9792,0.9792,0.9792,0.9792,0.9792,0.9792,0.9792,0.9792,0.9792,0.9792,0.9792,0.9792,0.9792,0.9792,0.9792,0.9792,0.9822,0.2022,0.1924,0.1767,0.1474,0.1431,0.1389,0.1321,0.1331,0.1368,0.1389,0.1442,0.1461,0.0,0.0,0.0,0.0,0.0,0.2893,0.0,0.0,0.54,0.6104,0.0,0.0,0.0,0.7064,0.7388,0.7988,0.7988,0.7988,0.7988,0.7988,0.7988,0.7988,0.7718,0.0,0.7768,0.0,0.7241,0.0,0.0,0.0,0.0,0.6936,0.6736,0.6711,0.6487,0.6412,0.6412,0.0,0.6536,0.0,0.0,0.0,0.0,0.0,0.0,0.0,0.0,0.0,0.0,0.0,0.0,0.0,0.0,0.0,0.8912,0.0,0.0,0.0,0.0,0.0,0.0,0.0,0.0,0.0,0.0,0.0,0.0,0.0,0.0,0.0,0.0,0.0,0.0,0.0,0.0,0.9517,0.9605,0.9666,0.9707,0.9788,0.9792,0.9792,0.9792,0.9792,0.9792,0.9792,0.9792,0.9792,0.9792,0.9792,0.9792,0.9792,0.9792,0.9792,0.9792,0.9792,0.9792,0.9792,0.9792,0.9792,0.9792,0.9792,1.0274,1.0906,0.1823,0.1697,0.1536,0.1327,0.1308,0.1308,0.1324,0.0,0.0,0.0,0.0,0.0,0.1399,0.1155,0.0,0.0,0.1447,0.199,0.0,0.0,0.3994,0.0,0.0,0.0,0.0,0.0,0.6634,0.7562,0.7789,0.7892,0.7892,0.7967,0.7967,0.7867,0.0,0.7519,0.7572,0.0,0.6661,0.6157,0.5577,0.5829,0.6537,0.6514,0.6462,0.6412,0.6412,0.6412,0.6412,0.6412,0.6544,0.0,0.6619,0.0,0.0,0.0,0.0,0.0,0.86,0.0,0.0,0.0,0.0,0.0,0.0,0.0,0.0,0.0,0.0,0.0,0.0,0.0,0.8912,0.0,0.0,0.0,0.0,0.0,0.0,0.0,0.0,0.0,0.0,0.0,0.0,0.0,0.0,0.0,0.9479,0.9523,0.9612,0.9727,0.9734,0.9751,0.9792,0.9792,0.9792,0.9792,0.9792,0.9792,0.9792,0.9792,0.9792,0.9792,0.9792,0.9792,0.9819,1.0183,1.0334,1.0365,1.0725,1.0872,1.0812,1.0456,1.1148,1.226,0.162,0.1597,0.1544,0.1336,0.0,0.0,0.0,0.0,0.0,0.0,0.0,0.0,0.0,0.0,0.0,0.0,0.0,0.0631,0.1938,0.0,0.2665,0.0,0.0,0.4168,0.0,0.0,0.0,0.6462,0.7241,0.7621,0.7621,0.7867,0.7867,0.7596,0.7341,0.7366,0.7497,0.5934,0.4676,0.372,0.3695,0.415,0.501,0.0,0.6614,0.6412,0.6412,0.0,0.0,0.6412,0.6673,0.0,0.0,0.0,0.0,0.0,0.0,0.0,0.0,0.0,0.0,0.8743,0.0,0.0,0.0,0.0,0.8912,0.0,0.0,0.0,0.0,0.8912,0.8912,0.8912,0.0,0.0,0.0,0.0,0.0,0.0,0.0,0.0,0.0,0.0,0.0,0.0,0.0,0.0,0.9224,0.9335,0.9459,0.9612,0.9615,0.9683,0.9788,0.9792,0.9792,0.9792,0.9792,0.9792,0.9792,0.9792,0.9792,0.9792,0.9792,0.9792,0.9879,1.1118,1.1631,1.1782,1.3066,1.3575,1.3426,1.2109,1.25,1.3635,0.1409,0.1407,0.1382,0.0,0.0,0.0,0.0,0.1406,0.0,0.0,0.0,0.0,0.0,0.0594,0.04,0.0,0.0,0.0278,0.0908,0.0933,0.0,0.0,0.0,0.2266,0.0,0.0,0.0,0.0,0.0,0.7341,0.7341,0.7441,0.7413,0.7316,0.7067,0.6995,0.0,0.0,0.0,0.0,0.0,0.35,0.3879,0.0,0.0,0.6412,0.6412,0.6412,0.0,0.6504,0.6692,0.6862,0.6863,0.7051,0.7315,0.7486,0.7572,0.0,0.0,0.0,0.7826,0.8214,0.0,0.0,0.0,0.0,0.0,0.0,0.0,0.0,0.0,0.0,0.8912,0.8912,0.8912,0.8912,0.0,0.0,0.0,0.0,0.0,0.0,0.0,0.0,0.0,0.0,0.0,0.0,0.0,0.923,0.9328,0.9452,0.9459,0.953,0.968,0.9683,0.9697,0.9792,0.9792,0.9792,0.9792,0.9792,0.9792,0.9792,0.9792,1.0274,1.1027,1.0607,1.1446,1.2976,1.256,1.3426,1.4798,1.3485,1.3844,1.5065,0.1336,0.1342,0.0,0.0,0.0,0.0,0.0,0.0,0.0,0.0,0.0946,0.0,0.0668,0.0,0.0253,0.0,0.0101,0.0076,0.0253,0.0253,0.0,0.0505,0.0505,0.0,0.0,0.0,0.0,0.0,0.0,0.7067,0.7067,0.7163,0.7138,0.7042,0.6867,0.6592,0.6162,0.4979,0.4176,0.0,0.0,0.2519,0.0,0.0,0.5133,0.0,0.0,0.6412,0.6428,0.6553,0.67,0.6823,0.6948,0.7089,0.7238,0.741,0.7465,0.7521,0.7798,0.766,0.0,0.0,0.7934,0.0,0.8401,0.0,0.0,0.0,0.0,0.0,0.0,0.0,0.8881,0.8768,0.8826,0.8912,0.0,0.8912,0.0,0.0,0.0,0.0,0.0,0.0,0.0,0.0,0.0,0.0,0.0,0.0,0.9172,0.9325,0.9328,0.9403,0.9527,0.953,0.9602,0.9714,0.9714,0.9741,0.9792,0.9792,0.9792,0.9792,0.9792,1.0274,1.1027,1.1144,1.2195,1.3695,1.3754,1.4793,1.6107,1.4857,1.5184,1.6378,0.0,0.0,0.0,0.0,0.1394,0.0,0.0,0.0,0.1094,0.0,0.0668,0.0388,0.0377,0.0152,0.0,0.0,0.0,0.0,0.0,0.0,0.0,0.0,0.0,0.0126,0.0379,0.0,0.0,0.0,0.0,0.677,0.6795,0.7039,0.7014,0.677,0.677,0.0,0.5104,0.3775,0.2544,0.1437,0.0404,0.1286,0.3198,0.3198,0.0,0.6412,0.6412,0.6414,0.6439,0.6561,0.6709,0.6834,0.6956,0.7095,0.721,0.721,0.721,0.7265,0.7521,0.7379,0.7321,0.7823,0.0,0.0,0.0,0.0,0.8484,0.0,0.0,0.0,0.0,0.0,0.0,0.8571,0.874,0.8912,0.8912,0.0,0.0,0.0,0.0,0.0,0.0,0.0,0.0,0.0,0.0,0.0,0.0,0.0,0.0,0.9165,0.92,0.9243,0.9396,0.94,0.9445,0.9598,0.9598,0.9673,0.9781,0.9781,0.9785,0.9792,0.9792,0.9879,1.0183,1.2612,1.3695,1.4113,1.6467,1.7449,1.7361,1.6142,1.6467,1.7514,0.1396,0.1402,0.1402,0.0,0.1408,0.1353,0.0,0.0,0.0,0.0,0.0463,0.032,0.0126,0.0051,0.0,0.0,0.0,0.0,0.0,0.0,0.0,0.0,0.0,0.0025,0.0101,0.2142,0.0,0.3398,0.0,0.0,0.6512,0.6562,0.6562,0.6512,0.6512,0.5909,0.4832,0.3676,0.2116,0.0379,0.0101,0.1286,0.0,0.0,0.4529,0.6412,0.6412,0.6469,0.6566,0.6714,0.6836,0.6986,0.71,0.7185,0.721,0.721,0.721,0.721,0.7296,0.7238,0.7238,0.7376,0.7493,0.7635,0.0,0.0,0.0,0.0,0.0,0.0,0.0,0.0,0.0,0.8768,0.8854,0.8912,0.0,0.0,0.0,0.8912,0.0,0.0,0.0,0.0,0.0,0.0,0.0,0.0,0.0,0.0,0.0,0.8963,0.8967,0.9062,0.924,0.924,0.9318,0.9439,0.9439,0.9517,0.9663,0.9663,0.972,0.9792,0.9792,1.0902,1.2676,1.235,1.3929,1.6496,1.6196,1.6679,1.7449,1.7126,1.7214,1.7514,0.1409,0.0,0.0,0.1278,0.0,0.0,0.1108,0.0,0.0,0.0439,0.0295,0.0,0.0025,0.0,0.0,0.0,0.0,0.0,0.0,0.0,0.0,0.0,0.0,0.0,0.0,0.1639,0.0,0.3198,0.0,0.5937,0.6412,0.6412,0.6412,0.6412,0.6412,0.5809,0.4709,0.3148,0.1815,0.0656,0.0177,0.0,0.0,0.3198,0.4529,0.6417,0.6471,0.6534,0.662,0.6823,0.6929,0.7032,0.7147,0.721,0.721,0.721,0.721,0.721,0.721,0.721,0.721,0.721,0.7324,0.7465,0.7579,0.7715,0.7826,0.0,0.0,0.0,0.0,0.0,0.0,0.0,0.0,0.0,0.0,0.0,0.0,0.0,0.0,0.0,0.0,0.0,0.0,0.0,0.0,0.0,0.0,0.0,0.0,0.8912,0.8912,0.895,0.9059,0.9059,0.9162,0.9311,0.9311,0.939,0.951,0.951,0.9591,0.9757,1.0291,1.1405,1.2856,1.3246,1.4674,1.6644,1.6496,1.6856,1.7514,1.7514,1.7514,1.7514,0.1391,0.0,0.0,0.0,0.0,0.0,0.0,0.0653,0.0,0.0343,0.0,0.0,0.0,0.0,0.0,0.0,0.0,0.0,0.0,0.0,0.0,0.0,0.0,0.0,0.0,0.1059,0.0,0.0,0.428,0.5361,0.6412,0.6412,0.6412,0.6412,0.6412,0.0,0.0,0.2444,0.1513,0.1311,0.053,0.1412,0.3224,0.3349,0.4655,0.6425,0.655,0.6604,0.6653,0.6907,0.7021,0.7051,0.7152,0.721,0.721,0.721,0.721,0.721,0.721,0.721,0.721,0.721,0.721,0.7265,0.7493,0.7551,0.7551,0.7551,0.774,0.0,0.0,0.0,0.0,0.0,0.0,0.0,0.0,0.0,0.0,0.0,0.0,0.0,0.0,0.0,0.0,0.0,0.0,0.0,0.0,0.0,0.0,0.0,0.8912,0.0,0.8912,0.0,0.9001,0.9152,0.9152,0.9233,0.9379,0.9379,0.9435,0.9637,1.0892,1.1638,1.2102,1.4544,1.5666,1.5959,1.7062,1.7514,1.7514,1.7514,1.7514,1.7514,0.0,0.0,0.0,0.0,0.0,0.0468,0.0508,0.0462,0.0318,0.01,0.0025,0.0,0.0,0.0,0.0,0.0,0.0,0.0,0.0,0.0,0.0,0.0,0.0,0.0,0.0,0.1059,0.2116,0.0,0.428,0.5361,0.6412,0.6412,0.6412,0.6412,0.6412,0.0,0.3399,0.2142,0.0,0.0353,0.1034,0.2066,0.3299,0.418,0.5309,0.6425,0.655,0.6684,0.6793,0.6937,0.7076,0.7155,0.7204,0.721,0.721,0.721,0.721,0.721,0.721,0.721,0.721,0.721,0.721,0.721,0.7265,0.7268,0.7268,0.7268,0.7293,0.7379,0.7493,0.0,0.0,0.0,0.0,0.0,0.0,0.0,0.0,0.0,0.0,0.0,0.0,0.0,0.0,0.0,0.0,0.0,0.0,0.0,0.0,0.0,0.0,0.0,0.0,0.0,0.0,0.895,0.895,0.9052,0.9223,0.9223,0.9305,0.9509,1.0657,1.1911,1.3224,1.4667,1.6016,1.7185,1.742,1.7514,1.7514,1.7514,1.7514,1.7514,0.0,0.0,0.0,0.0,0.0,0.0,0.0,0.0201,0.0,0.0025,0.0,0.0,0.0,0.0,0.0,0.0,0.0,0.0,0.0,0.0,0.0,0.0,0.0,0.0,0.0,0.0505,0.1563,0.3198,0.3726,0.4805,0.6412,0.6412,0.6412,0.6387,0.5809,0.5008,0.0,0.0,0.0,0.1664,0.1613,0.2569,0.4079,0.4607,0.5461,0.6425,0.655,0.6631,0.6736,0.6921,0.7087,0.721,0.721,0.721,0.721,0.721,0.721,0.721,0.721,0.721,0.721,0.721,0.721,0.721,0.721,0.721,0.721,0.721,0.7324,0.7549,0.7989,0.8291,0.0,0.0,0.0,0.0,0.0,0.0,0.0,0.0,0.0,0.0,0.0,0.0,0.0,0.0,0.0,0.0,0.0,0.0,0.0,0.0,0.0,0.0,0.0,0.0,0.0,0.8912,0.8912,0.8946,0.9042,0.9042,0.9458,1.0256,1.1467,1.2795,1.4239,1.5609,1.6605,1.7321,1.746,1.7514,1.7514,1.7514,1.7514,1.7514,0.0,0.0547,0.0,0.0,0.0169,0.0,0.0,0.0,0.0,0.0,0.0,0.0,0.0,0.0,0.0,0.0,0.0,0.0,0.0,0.0,0.0,0.0,0.0,0.0,0.0,0.0,0.0933,0.0,0.3098,0.4185,0.6118,0.6297,0.6287,0.0,0.0,0.0,0.0,0.0,0.2494,0.2821,0.2444,0.3299,0.4834,0.506,0.5659,0.6423,0.652,0.6572,0.6623,0.6842,0.7027,0.7149,0.7202,0.721,0.721,0.721,0.721,0.721,0.721,0.721,0.721,0.721,0.721,0.721,0.721,0.721,0.721,0.721,0.741,0.7771,0.8401,0.8512,0.0,0.0,0.0,0.0,0.0,0.0,0.0,0.0,0.0,0.0,0.0,0.0,0.0,0.0,0.0,0.0,0.0,0.0,0.0,0.0,0.0,0.0,0.8912,0.0,0.8912,0.0,0.8912,0.8912,0.8912,0.8912,0.9606,1.0943,1.2159,1.3618,1.5215,1.6555,1.7092,1.7117,1.7411,1.7514,1.7514,1.7514,1.7514,1.7514,0.0,0.0,0.0,0.0,0.0,0.0,0.0,0.0,0.0,0.0,0.0,0.0,0.0,0.0,0.0,0.0,0.0,0.0,0.0,0.0,0.0,0.0,0.0,0.0,0.0,0.0,0.058,0.0,0.0,0.3857,0.5152,0.6005,0.5884,0.0,0.0,0.0,0.0,0.3751,0.3425,0.1915,0.3753,0.4634,0.491,0.5887,0.6312,0.6412,0.6423,0.6498,0.6596,0.662,0.6806,0.7046,0.7149,0.721,0.721,0.721,0.721,0.721,0.721,0.721,0.721,0.721,0.721,0.721,0.721,0.721,0.721,0.721,0.741,0.7771,0.8401,0.8512,0.8598,0.0,0.0,0.0,0.0,0.0,0.0,0.0,0.0,0.0,0.0,0.0,0.0,0.0,0.0,0.0,0.0,0.0,0.0,0.0,0.0,0.8912,0.8912,0.8912,0.0,0.8912,0.8912,0.8912,0.8912,0.8912,0.9572,1.0778,1.1951,1.3851,1.6219,1.6853,1.7092,1.7117,1.7411,1.7514,1.7514,1.7514,1.7514,1.7514,0.0,0.0,0.0,0.0,0.0,0.0,0.0,0.0,0.0,0.0,0.0,0.0,0.0,0.0,0.0,0.0,0.0,0.0,0.0,0.0,0.0,0.0,0.0,0.0,0.0,0.0,0.0832,0.0,0.0,0.0,0.0,0.0,0.0,0.0,0.0,0.3775,0.262,0.3475,0.3726,0.3601,0.4456,0.5186,0.5809,0.6237,0.6412,0.6412,0.6412,0.6442,0.6496,0.6569,0.6733,0.6896,0.7043,0.7081,0.7092,0.7163,0.721,0.721,0.721,0.721,0.721,0.721,0.721,0.721,0.721,0.721,0.721,0.721,0.7546,0.802,0.8629,0.874,0.8768,0.0,0.0,0.0,0.0,0.0,0.0,0.0,0.0,0.0,0.0,0.0,0.0,0.0,0.0,0.0,0.0,0.0,0.0,0.8912,0.0,0.8912,0.8912,0.8912,0.8912,0.8912,0.8912,0.8912,0.8912,0.8912,0.9946,1.1814,1.369,1.5075,1.6099,1.6465,1.6712,1.6881,1.7147,1.7369,1.7514,1.7514,1.7514,1.7514,0.0,0.0,0.0,0.0,0.0,0.0,0.0,0.0,0.0,0.0,0.0,0.0,0.0,0.0,0.0,0.0,0.0,0.0,0.0,0.0,0.0,0.0,0.0,0.0,0.0,0.0,0.0908,0.272,0.3047,0.0,0.0,0.0,0.0,0.0,0.4203,0.38,0.3249,0.3877,0.4404,0.4834,0.5135,0.5734,0.6412,0.6412,0.6412,0.6412,0.6412,0.6412,0.6423,0.6512,0.6599,0.6722,0.688,0.6931,0.6948,0.7054,0.7078,0.7087,0.7122,0.7133,0.7138,0.7202,0.721,0.721,0.721,0.721,0.7238,0.7404,0.7823,0.8294,0.8799,0.8912,0.8912,0.0,0.0,0.0,0.0,0.0,0.0,0.0,0.0,0.0,0.0,0.0,0.0,0.0,0.0,0.0,0.0,0.0,0.0,0.0,0.0,0.0,0.0,0.0,0.8912,0.8912,0.8912,0.9075,0.9454,1.0139,1.1364,1.3041,1.5051,1.5891,1.591,1.6187,1.6459,1.6724,1.699,1.7249,1.7514,1.7514,1.7514,1.7514,0.0,0.0,0.0,0.0,0.0,0.0,0.0,0.0,0.0,0.0,0.0,0.0,0.0,0.0,0.0,0.0,0.0,0.0,0.0,0.0,0.0,0.0,0.0,0.0,0.0,0.0,0.053,0.1613,0.0,0.0,0.5036,0.0,0.0,0.3299,0.5432,0.5181,0.3349,0.5457,0.5759,0.4885,0.5962,0.6387,0.6412,0.6412,0.6412,0.6412,0.6412,0.6412,0.6412,0.6412,0.6414,0.6458,0.6728,0.6804,0.6804,0.6806,0.6806,0.6834,0.6953,0.7013,0.7043,0.7155,0.721,0.721,0.721,0.721,0.7349,0.7878,0.8266,0.8571,0.8854,0.8912,0.8912,0.8912,0.0,0.0,0.0,0.0,0.0,0.0,0.0,0.0,0.0,0.0,0.0,0.0,0.0,0.0,0.0,0.0,0.0,0.8912,0.8912,0.0,0.8912,0.8912,0.8912,0.8912,0.8912,0.9537,1.0754,1.3073,1.4137,1.425,1.5405,1.5891,1.591,1.6202,1.6474,1.6724,1.699,1.7249,1.7514,1.7514,1.7514,1.7514,0.0,0.0,0.0,0.0,0.0,0.0,0.0,0.0,0.0,0.0,0.0,0.0,0.0,0.0,0.0,0.0,0.0,0.0,0.0,0.0,0.0,0.0,0.0,0.0,0.0,0.0707,0.1613,0.2695,0.0,0.0,0.0,0.556,0.4987,0.4331,0.5008,0.4933,0.4381,0.5809,0.6209,0.5912,0.6262,0.6412,0.6412,0.6412,0.6412,0.6412,0.6412,0.6412,0.6412,0.6412,0.6412,0.6425,0.6501,0.6585,0.6695,0.6779,0.6801,0.6812,0.685,0.6861,0.6869,0.6904,0.7005,0.7065,0.7065,0.7268,0.7576,0.7934,0.8266,0.8571,0.8854,0.8912,0.8912,0.8912,0.0,0.0,0.0,0.0,0.0,0.0,0.0,0.0,0.0,0.8997,0.0,0.0,0.0,0.0,0.0,0.0,0.0,0.0,0.8912,0.0,0.8912,0.9726,0.9722,0.8912,0.9726,1.0319,1.0781,1.3127,1.4196,1.425,1.5405,1.5891,1.5924,1.5982,1.6284,1.6712,1.6791,1.7092,1.7514,1.7514,1.7514,1.7514,0.0,0.0,0.0,0.0,0.0,0.0,0.0,0.0,0.0,0.0,0.0,0.0,0.0,0.0,0.0,0.0,0.0,0.0,0.0,0.0,0.0,0.0,0.0,0.0,0.0,0.0,0.0,0.3198,0.468,0.5536,0.5787,0.5536,0.5186,0.4809,0.5211,0.5409,0.5436,0.6112,0.6412,0.6412,0.6412,0.6412,0.6412,0.6412,0.6412,0.6412,0.6412,0.6412,0.6412,0.6412,0.6412,0.6412,0.6412,0.6463,0.6539,0.6615,0.6639,0.6647,0.6719,0.6733,0.6744,0.679,0.6861,0.6956,0.7107,0.745,0.7794,0.8115,0.8432,0.8712,0.8881,0.8912,0.8912,0.8912,0.0,0.0,0.0,0.0,0.0,0.0,0.0,0.0,0.0,0.896,0.0,0.0,0.0,0.0,0.0,0.0,0.0,0.8912,0.8912,0.0,0.9561,1.0319,1.0323,0.9588,1.0758,1.1574,1.2091,1.397,1.4842,1.4869,1.5592,1.5891,1.5924,1.6,1.6302,1.6712,1.6809,1.7111,1.7514,1.7514,1.7514,1.7514,0.0,0.0,0.0,0.0,0.0,0.0,0.0,0.0,0.0,0.0,0.0,0.0,0.0,0.0,0.0,0.0,0.0,0.0,0.0,0.0,0.0,0.0,0.0,0.0,0.0101,0.116,0.2267,0.3425,0.5432,0.5884,0.4935,0.5937,0.5862,0.496,0.5962,0.6412,0.6412,0.6412,0.6412,0.6412,0.6412,0.6412,0.6412,0.6412,0.6412,0.6412,0.6412,0.6412,0.6412,0.6412,0.6412,0.6412,0.6412,0.6412,0.6412,0.6412,0.6412,0.6436,0.655,0.658,0.6607,0.6749,0.6782,0.6899,0.729,0.7648,0.8012,0.8415,0.8706,0.8912,0.8912,0.8912,0.8912,0.8912,0.8912,0.8912,0.8912,0.0,0.0,0.0,0.0,0.0,0.0,0.9059,0.9111,0.0,0.0,0.0,0.0,0.0,0.0,0.8912,0.8912,0.9482,1.0699,1.0781,1.0863,1.0973,1.2005,1.31,1.425,1.5378,1.5891,1.5891,1.5891,1.5891,1.591,1.6202,1.6474,1.6724,1.699,1.7249,1.7514,1.7514,1.7514,1.7514,0.0,0.0,0.0,0.0,0.0,0.0,0.0,0.0,0.0,0.0,0.0,0.0,0.0,0.0,0.0,0.0,0.0,0.0,0.0,0.0,0.0,0.0,0.0,0.0379,0.121,0.2267,0.375,0.5632,0.6159,0.6262,0.6037,0.6284,0.6262,0.6037,0.6284,0.6412,0.6412,0.6412,0.6412,0.6412,0.6412,0.6412,0.6412,0.6412,0.6412,0.6412,0.6412,0.6412,0.6412,0.6412,0.6412,0.6412,0.6412,0.6412,0.6412,0.6412,0.6412,0.6417,0.6447,0.6455,0.646,0.649,0.6569,0.6747,0.7155,0.7579,0.7987,0.8296,0.8639,0.8912,0.8912,0.8912,0.8912,0.8912,0.8912,0.8912,0.8912,0.0,0.0,0.0,0.894,0.895,0.8916,0.894,0.895,0.0,0.0,0.0,0.0,0.0,0.8912,0.8912,0.8912,0.9482,1.0699,1.1574,1.2472,1.3376,1.3646,1.3921,1.425,1.5378,1.5891,1.5891,1.5891,1.5891,1.591,1.6202,1.6474,1.6724,1.699,1.7249,1.7514,1.7514,1.7514,1.7514,0.0,0.0,0.0,0.0,0.0,0.0,0.0,0.0,0.0,0.0,0.0,0.0,0.0,0.0,0.0,0.0,0.0,0.0,0.0,0.0,0.0,0.0,0.0,0.0505,0.1588,0.2645,0.4252,0.6412,0.6412,0.6412,0.6412,0.6412,0.6412,0.6412,0.6412,0.6412,0.6412,0.6412,0.6412,0.6412,0.6412,0.6412,0.6412,0.6412,0.6412,0.6412,0.6412,0.6412,0.6412,0.6412,0.6412,0.6412,0.6412,0.6412,0.6412,0.6412,0.6412,0.6412,0.6412,0.6412,0.6412,0.6412,0.646,0.6644,0.7208,0.7529,0.7855,0.8387,0.8669,0.8828,0.8899,0.8912,0.8912,0.8912,0.8912,0.8912,0.8912,0.8912,0.0,0.8912,0.8912,0.8912,0.8912,0.8912,0.8912,0.8912,0.0,0.0,0.8912,0.8912,0.9154,0.9699,0.9726,1.0543,1.2282,1.2911,1.3808,1.4976,1.4439,1.4466,1.5003,1.5618,1.5891,1.5891,1.5891,1.5958,1.6091,1.6362,1.6634,1.6905,1.7165,1.7358,1.7514,1.7514,1.7514,1.7514,0.0,0.0,0.0,0.0,0.0,0.0,0.0,0.0,0.0,0.0,0.0,0.0,0.0,0.0,0.0,0.0,0.0,0.0,0.0,0.0,0.0,0.0,0.0151,0.0732,0.1815,0.3046,0.4578,0.6412,0.6412,0.6412,0.6412,0.6412,0.6412,0.6412,0.6412,0.6412,0.6412,0.6412,0.6412,0.6412,0.6412,0.6412,0.6412,0.6412,0.6412,0.6412,0.6412,0.6412,0.6412,0.6412,0.6412,0.6412,0.6412,0.6412,0.6412,0.6412,0.6412,0.6412,0.6412,0.6412,0.6412,0.6412,0.6437,0.6642,0.7312,0.7507,0.7769,0.8485,0.8679,0.8723,0.8852,0.8896,0.8912,0.8912,0.8912,0.8912,0.8912,0.0,0.8912,0.8912,0.8912,0.8912,0.8912,0.8912,0.8912,0.8912,0.8912,0.0,0.0,0.9075,0.9726,1.0918,1.0781,1.1819,1.4169,1.4385,1.4949,1.5891,1.4922,1.4949,1.5891,1.5891,1.5891,1.5891,1.5934,1.6099,1.6335,1.6628,1.6887,1.7117,1.7411,1.7514,1.7514,1.7514,1.7514,1.7514,0.0,0.0,0.0,0.0,0.0,0.0,0.0,0.0,0.0,0.0,0.0,0.0,0.0,0.0,0.0,0.0,0.0,0.0,0.0,0.0,0.0,0.0,0.0858,0.1865,0.2922,0.4878,0.6059,0.6412,0.6412,0.6412,0.6412,0.6412,0.6412,0.6412,0.6412,0.6412,0.6412,0.6412,0.6412,0.6412,0.6412,0.6412,0.6412,0.6412,0.6412,0.6412,0.6412,0.6412,0.6412,0.6412,0.6412,0.6412,0.6412,0.6412,0.6412,0.6412,0.6412,0.6412,0.6412,0.6412,0.6412,0.6412,0.6564,0.6823,0.7166,0.756,0.7942,0.8304,0.8537,0.8716,0.8716,0.8825,0.8912,0.8912,0.8912,0.8912,0.0,0.0,0.8912,0.8912,0.8912,0.8912,0.8912,0.8912,0.8912,0.8912,0.8912,0.8912,0.8912,0.986,1.0945,1.2087,1.1187,1.1819,1.4169,1.5164,1.5725,1.5891,1.5725,1.5725,1.5891,1.5891,1.5891,1.5903,1.6154,1.6269,1.6347,1.6821,1.7056,1.7117,1.7411,1.7514,1.7514,1.7514,1.7514,1.7514,0.0,0.0,0.0,0.0,0.0,0.0,0.0,0.0,0.0,0.0,0.0,0.0,0.0,0.0,0.0,0.0,0.0,0.0,0.0,0.0,0.0252,0.0832,0.1336,0.2368,0.4029,0.5607,0.6412,0.6412,0.6412,0.6412,0.6412,0.6412,0.6412,0.6412,0.6412,0.6412,0.6412,0.6412,0.6412,0.6412,0.6412,0.6412,0.6412,0.6412,0.6412,0.6412,0.6412,0.6412,0.6412,0.6412,0.6412,0.6412,0.6412,0.6412,0.6412,0.6412,0.6412,0.6412,0.6412,0.6412,0.6437,0.6589,0.6717,0.6917,0.7319,0.7591,0.7838,0.8226,0.8406,0.8523,0.8679,0.874,0.8814,0.8896,0.8912,0.0,0.0,0.8912,0.8912,0.8912,0.8912,0.8912,0.8912,0.8912,0.8912,0.8912,0.8912,0.9182,0.9833,1.0402,1.1519,1.3317,1.3447,1.4013,1.511,1.5651,1.5891,1.5891,1.5891,1.5891,1.5891,1.5891,1.5976,1.6121,1.6257,1.6474,1.6736,1.699,1.7177,1.7345,1.7436,1.7514,1.7514,1.7514,1.7514,1.7514,0.0,0.0,0.0,0.0,0.0,0.0,0.0,0.0,0.0,0.0,0.0,0.0,0.0,0.0,0.0,0.0,0.0,0.0101,0.0353,0.0379,0.0732,0.1563,0.2066,0.3224,0.5135,0.5984,0.6412,0.6412,0.6412,0.6412,0.6412,0.6412,0.6412,0.6412,0.6412,0.6412,0.6412,0.6412,0.6412,0.6412,0.6412,0.6412,0.6412,0.6412,0.6412,0.6412,0.6412,0.6412,0.6412,0.6412,0.6412,0.6412,0.6412,0.6412,0.6412,0.6412,0.6412,0.6412,0.6412,0.6412,0.6462,0.6742,0.6845,0.7017,0.7497,0.7646,0.78,0.8169,0.827,0.8366,0.8567,0.8665,0.8723,0.8838,0.0,0.0,0.0,0.8912,0.8912,0.8912,0.8912,0.8912,0.8912,0.8912,0.8912,0.8912,0.9154,0.9726,1.0644,1.1219,1.2472,1.4519,1.5431,1.5891,1.5891,1.5891,1.5891,1.5891,1.5891,1.5891,1.5891,1.5891,1.6042,1.6314,1.6356,1.6652,1.7092,1.7159,1.7298,1.7514,1.7514,1.7514,1.7514,1.7514,1.7514,1.7514,0.0,0.0,0.0,0.0,0.0,0.0,0.0,0.0,0.0,0.0,0.0,0.0,0.0,0.0,0.0,0.0,0.0,0.0429,0.1412,0.1487,0.1513,0.1588,0.35,0.5108,0.6262,0.6362,0.6412,0.6412,0.6412,0.6412,0.6412,0.6412,0.6412,0.6412,0.6412,0.6412,0.6412,0.6412,0.6412,0.6412,0.6412,0.6412,0.6412,0.6412,0.6412,0.6412,0.6412,0.6412,0.6412,0.6412,0.6412,0.6412,0.6412,0.6412,0.6412,0.6412,0.6412,0.6412,0.6412,0.6412,0.6462,0.6742,0.6992,0.7241,0.7543,0.7793,0.7992,0.8005,0.817,0.8304,0.8325,0.8526,0.8713,0.8726,0.0,0.0,0.8912,0.8912,0.8912,0.8912,0.8912,0.8912,0.8912,0.8912,0.8912,0.8912,0.9943,1.0621,1.0699,1.2775,1.4514,1.5731,1.5865,1.5891,1.5891,1.5891,1.5891,1.5891,1.5891,1.5891,1.5891,1.5891,1.6042,1.632,1.6561,1.6833,1.7111,1.7381,1.7467,1.7514,1.7514,1.7514,1.7514,1.7514,1.7514,1.7514,0.0,0.0,0.0,0.0,0.0632,0.0863,0.0107,0.0626,0.0844,0.0101,0.0,0.0,0.0,0.0,0.0,0.0,0.0606,0.116,0.1563,0.2217,0.2897,0.355,0.5008,0.5984,0.6387,0.6412,0.6412,0.6412,0.6412,0.6412,0.6412,0.6412,0.6412,0.6412,0.6412,0.6412,0.6412,0.6412,0.6412,0.6412,0.6412,0.6412,0.6412,0.6412,0.6412,0.6412,0.6412,0.6412,0.6412,0.6412,0.6412,0.6412,0.6412,0.6412,0.6437,0.6589,0.6642,0.6689,0.6864,0.6764,0.6742,0.7194,0.7369,0.7519,0.7793,0.7917,0.7988,0.7988,0.806,0.8157,0.8277,0.8461,0.8601,0.8696,0.0,0.8912,0.8912,0.8912,0.8912,0.8912,0.8912,0.8912,0.8912,0.8912,0.921,0.997,1.0429,1.1355,1.2802,1.4401,1.5458,1.5891,1.5891,1.5891,1.5891,1.5891,1.5891,1.5891,1.5891,1.5891,1.5924,1.606,1.6284,1.6567,1.6827,1.7092,1.7369,1.7472,1.7514,1.7514,1.7514,1.7514,1.7514,1.7514,1.7514,1.7514,0.0501,0.056,0.0672,0.1064,0.1821,0.2061,0.1201,0.1782,0.1981,0.1112,0.1009,0.1009,0.1009,0.1009,0.1009,0.1009,0.1689,0.2242,0.2595,0.3599,0.4379,0.4784,0.5834,0.6412,0.6412,0.6412,0.6412,0.6412,0.6412,0.6412,0.6412,0.6412,0.6412,0.6412,0.6412,0.6412,0.6412,0.6412,0.6412,0.6412,0.6412,0.6412,0.6412,0.6412,0.6412,0.6412,0.6412,0.6412,0.6412,0.6412,0.6462,0.6539,0.6539,0.6589,0.6686,0.6867,0.6917,0.6992,0.7266,0.7191,0.7144,0.7497,0.7596,0.7671,0.7942,0.7988,0.7988,0.7988,0.7988,0.8047,0.8177,0.8345,0.8492,0.8615,0.874,0.8855,0.8902,0.9237,0.9454,0.9454,0.9454,0.9454,0.9454,0.9454,0.9805,1.0644,1.1378,1.2662,1.4621,1.5485,1.5891,1.5891,1.5891,1.5891,1.5891,1.5891,1.5891,1.5891,1.5891,1.5934,1.6018,1.6226,1.6477,1.6833,1.7014,1.7243,1.7514,1.7514,1.7514,1.7514,1.7514,1.7514,1.7514,1.7514,1.7514,1.7514,0.1585,0.1819,0.2183,0.3385,0.3613,0.3578,0.3435,0.34,0.3366,0.3232,0.3198,0.3198,0.3198,0.3198,0.3198,0.3198,0.3198,0.3676,0.4734,0.5809,0.5937,0.486,0.5834,0.6412,0.6412,0.6412,0.6412,0.6412,0.6412,0.6412,0.6412,0.6412,0.6412,0.6412,0.6412,0.6412,0.6412,0.6412,0.6412,0.6412,0.6412,0.6412,0.6412,0.6412,0.6412,0.6412,0.6412,0.6412,0.6412,0.6412,0.6589,0.6795,0.6795,0.6992,0.7213,0.7213,0.7213,0.7263,0.7519,0.7596,0.7596,0.7596,0.7596,0.7671,0.7942,0.7988,0.7988,0.7988,0.7988,0.7988,0.7988,0.8167,0.8342,0.8485,0.8638,0.8764,0.8916,0.9943,1.0699,1.0699,1.0699,1.0699,1.0699,1.0699,1.0699,1.0726,1.2884,1.4708,1.5838,1.5891,1.5891,1.5891,1.5891,1.5891,1.5891,1.5891,1.5891,1.5891,1.5891,1.6051,1.6305,1.6311,1.6579,1.7092,1.7092,1.7243,1.7514,1.7514,1.7514,1.7514,1.7514,1.7514,1.7514,1.7514,1.7514,1.7514,0.2974,0.305,0.3189,0.3525,0.429,0.4553,0.3689,0.4183,0.4344,0.3444,0.3248,0.3198,0.3198,0.3198,0.3198,0.3198,0.3879,0.4782,0.5862,0.6212,0.6262,0.5937,0.6237,0.6412,0.6412,0.6412,0.6412,0.6412,0.6412,0.6412,0.6412,0.6412,0.6412,0.6412,0.6412,0.6412,0.6412,0.6412,0.6412,0.6412,0.6412,0.6412,0.6412,0.6412,0.6412,0.6412,0.6412,0.6514,0.6692,0.6692,0.6867,0.7089,0.7089,0.7138,0.7238,0.7419,0.7469,0.7543,0.7817,0.7892,0.7892,0.7892,0.7892,0.7892,0.7988,0.7988,0.7988,0.7988,0.7988,0.7988,0.7988,0.8167,0.8595,0.9547,0.9848,1.0293,1.1225,1.0973,1.0699,1.0699,0.9943,0.9781,1.0617,1.0699,1.1378,1.3019,1.4535,1.5538,1.5891,1.5891,1.5891,1.5891,1.5891,1.5891,1.5891,1.5891,1.5891,1.5891,1.5891,1.6051,1.6317,1.6483,1.6761,1.7098,1.7286,1.7442,1.7514,1.7514,1.7514,1.7514,1.7514,1.7514,1.7514,1.7514,1.7514,1.7514,0.4131,0.4287,0.4474,0.4947,0.562,0.5839,0.5056,0.5486,0.5611,0.4771,0.4584,0.4515,0.4481,0.4477,0.4477,0.4477,0.5056,0.5712,0.6362,0.6412,0.6412,0.6412,0.6412,0.6412,0.6412,0.6412,0.6412,0.6412,0.6412,0.6412,0.6412,0.6412,0.6412,0.6412,0.6412,0.6412,0.6412,0.6412,0.6412,0.6412,0.6412,0.6412,0.6412,0.6412,0.6462,0.6564,0.6564,0.6739,0.6967,0.6967,0.7141,0.7366,0.7487,0.7512,0.754,0.7718,0.7768,0.7793,0.7963,0.7988,0.7988,0.7988,0.7988,0.7988,0.7988,0.7988,0.7988,0.7988,0.7988,0.7988,0.7988,0.8439,0.8976,0.9458,1.0364,1.1004,1.1021,1.1628,1.1901,1.1437,1.1141,1.1282,1.201,1.2091,1.2852,1.4729,1.5512,1.5891,1.5891,1.5891,1.5891,1.5891,1.5891,1.5891,1.5891,1.5891,1.5891,1.5891,1.5891,1.6112,1.6453,1.6622,1.6899,1.7284,1.7442,1.7514,1.7514,1.7514,1.7514,1.7514,1.7514,1.7514,1.7514,1.7514,1.7514,1.7514,0.5123,0.5467,0.5901,0.7015,0.721,0.7147,0.7043,0.7018,0.6904,0.6655,0.6607,0.6553,0.6439,0.6417,0.6412,0.6412,0.6412,0.6412,0.6412,0.6412,0.6412,0.6412,0.6412,0.6412,0.6412,0.6412,0.6412,0.6412,0.6412,0.6412,0.6412,0.6412,0.6412,0.6412,0.6412,0.6412,0.6412,0.6412,0.6412,0.6412,0.6412,0.6412,0.6437,0.6437,0.6589,0.6842,0.6842,0.7017,0.7238,0.7263,0.7441,0.7671,0.7917,0.7988,0.7988,0.7988,0.7988,0.7988,0.7988,0.7988,0.7988,0.7988,0.7988,0.7988,0.7988,0.7988,0.7988,0.7988,0.8088,0.8141,0.8179,0.9067,0.9575,0.8944,1.0525,1.1256,0.9603,1.2073,1.3673,1.2689,1.343,1.4083,1.4196,1.4304,1.4788,1.5805,1.5891,1.5891,1.5891,1.5891,1.5891,1.5891,1.5891,1.5891,1.5891,1.5891,1.5891,1.5891,1.591,1.6199,1.67,1.6724,1.7008,1.7514,1.7514,1.7514,1.7514,1.7514,1.7514,1.7514,1.7514,1.7514,1.7514,1.7514,1.7514,1.7514,0.6391,0.6654,0.6902,0.7154,0.721,0.7202,0.7149,0.707,0.6994,0.6912,0.6738,0.6582,0.6558,0.6469,0.6412,0.6412,0.6412,0.6412,0.6412,0.6412,0.6412,0.6412,0.6412,0.6412,0.6412,0.6412,0.6412,0.6412,0.6412,0.6412,0.6412,0.6412,0.6412,0.6412,0.6412,0.6412,0.6412,0.6412,0.6412,0.6412,0.6412,0.6539,0.6717,0.6717,0.6892,0.7113,0.7113,0.7291,0.7543,0.7764,0.7864,0.7917,0.7988,0.7988,0.7988,0.7988,0.7988,0.7988,0.7988,0.7988,0.7988,0.7988,0.7988,0.7988,0.7988,0.7988,0.7988,0.7988,0.8676,0.9305,0.9539,1.0439,1.1219,1.1361,1.1798,1.2336,1.2957,1.2911,1.3046,1.3727,1.3209,1.3154,1.411,1.5003,1.5618,1.5891,1.5891,1.5891,1.5891,1.5891,1.5891,1.5891,1.5891,1.5891,1.5891,1.5891,1.5891,1.5891,1.6097,1.6374,1.6706,1.6911,1.7177,1.7514,1.7514,1.7514,1.7514,1.7514,1.7514,1.7514,1.7514,1.7514,1.7514,1.7514,1.7514,1.7514,0.6577,0.6823,0.7032,0.7089,0.7147,0.721,0.721,0.713,0.7073,0.7018,0.6874,0.6749,0.6607,0.6536,0.6474,0.6417,0.6412,0.6412,0.6412,0.6412,0.6412,0.6412,0.6412,0.6412,0.6412,0.6412,0.6412,0.6412,0.6412,0.6412,0.6412,0.6412,0.6412,0.6412,0.6412,0.6412,0.6412,0.6412,0.6412,0.6412,0.6539,0.6667,0.682,0.6942,0.7166,0.7391,0.7391,0.7568,0.7817,0.7963,0.7988,0.7988,0.7988,0.7988,0.7988,0.7988,0.7988,0.7988,0.7988,0.7988,0.7988,0.7988,0.7988,0.7988,0.7988,0.7988,0.8037,0.8133,0.9016,0.9862,1.0067,1.1425,1.2449,1.2233,1.3083,1.3667,1.3367,1.3749,1.4099,1.4196,1.4132,1.4315,1.4949,1.5538,1.5891,1.5891,1.5891,1.5891,1.5891,1.5891,1.5891,1.5891,1.5891,1.5891,1.5891,1.5891,1.5952,1.6079,1.6245,1.6429,1.6712,1.6972,1.7266,1.7514,1.7514,1.7514,1.7514,1.7514,1.7514,1.7514,1.7514,1.7514,1.7514,1.7514,1.7514,1.7514,0.636,0.6577,0.6809,0.6934,0.7076,0.7152,0.7152,0.7196,0.7149,0.7054,0.7024,0.6907,0.6703,0.6618,0.6544,0.6423,0.6412,0.6412,0.6412,0.6412,0.6412,0.6412,0.6412,0.6412,0.6412,0.6412,0.6412,0.6412,0.6412,0.6412,0.6412,0.6412,0.6412,0.6412,0.6412,0.6412,0.6412,0.6412,0.6437,0.6487,0.6717,0.6845,0.697,0.7191,0.7441,0.7671,0.7671,0.7817,0.7988,0.7988,0.7988,0.7988,0.7988,0.7988,0.7988,0.7988,0.7988,0.7988,0.7988,0.7988,0.7988,0.7988,0.7988,0.807,0.8293,0.835,0.8385,0.8544,0.965,1.0659,1.0802,1.2471,1.3562,1.2681,1.4073,1.4684,1.2962,1.4369,1.5324,1.4573,1.5324,1.5891,1.5891,1.5891,1.5891,1.5891,1.5891,1.5891,1.5891,1.5891,1.5891,1.5891,1.5891,1.5891,1.5891,1.5891,1.6018,1.6305,1.6359,1.6495,1.6779,1.7038,1.728,1.7514,1.7514,1.7514,1.7514,1.7514,1.7514,1.7514,1.7514,1.7514,1.7514,1.7514,1.7514,1.7514,0.6293,0.6483,0.6655,0.6804,0.6929,0.7035,0.7035,0.7119,0.7204,0.7188,0.7073,0.6972,0.694,0.6747,0.6544,0.6423,0.6412,0.6412,0.6412,0.6412,0.6412,0.6412,0.6412,0.6412,0.6412,0.6412,0.6412,0.6412,0.6412,0.6412,0.6412,0.6412,0.6412,0.6412,0.6412,0.6412,0.6412,0.6412,0.6539,0.6742,0.6795,0.707,0.7497,0.7519,0.7718,0.7939,0.7939,0.7967,0.7988,0.7988,0.7988,0.7988,0.7988,0.7988,0.7988,0.7988,0.7988,0.7988,0.7988,0.7988,0.7988,0.7988,0.7988,0.8293,0.9475,0.9734,0.9742,0.9766,1.1501,1.3111,1.3341,1.4387,1.4949,1.4078,1.4175,1.4293,1.3997,1.4218,1.4734,1.5565,1.5811,1.5891,1.5891,1.5891,1.5891,1.5891,1.5891,1.5891,1.5891,1.5891,1.5891,1.5891,1.5891,1.5891,1.5891,1.5891,1.6018,1.6311,1.6525,1.6785,1.7044,1.731,1.7478,1.7514,1.7514,1.7514,1.7514,1.7514,1.7514,1.7514,1.7514,1.7514,1.7514,1.7514,1.7514,1.7514,0.604,0.6257,0.6461,0.6558,0.676,0.6907,0.7002,0.7054,0.7111,0.7202,0.7138,0.7084,0.7018,0.6766,0.6572,0.6517,0.645,0.6412,0.6412,0.6412,0.6412,0.6412,0.6412,0.6412,0.6412,0.6412,0.6412,0.6412,0.6412,0.6412,0.6412,0.6412,0.6487,0.6614,0.6462,0.6487,0.6614,0.6614,0.6692,0.682,0.7119,0.7397,0.7621,0.7768,0.7892,0.7988,0.7988,0.7988,0.7988,0.7988,0.7988,0.7988,0.7988,0.7988,0.7988,0.7988,0.7988,0.7988,0.7988,0.7988,0.8037,0.8147,0.8639,0.9303,0.9956,1.118,1.2008,1.136,1.2552,1.3801,1.4039,1.497,1.5594,1.52,1.5164,1.5164,1.5164,1.5164,1.5351,1.5838,1.5891,1.5891,1.5891,1.5891,1.5891,1.5891,1.5891,1.5891,1.5891,1.5891,1.5891,1.5891,1.5891,1.5891,1.5891,1.6063,1.6269,1.6519,1.6791,1.6984,1.7098,1.7393,1.7514,1.7514,1.7514,1.7514,1.7514,1.7514,1.7514,1.7514,1.7514,1.7514,1.7514,1.7514,1.7514,1.7532]},{"header":{"parameterUnit":"m.s-1","parameterCategory":1,"la1":30.6,"la2":28.766,"lo1":-90.7593,"lo2":-88.6598,"dy":0.0162,"dx":0.0183,"nx":116,"ny":114,"refTime":"2023-05-18T12:00:00:Z","depth":0,"parameterNumber":3,"parameterNumberName":"V-component_of_WINDS"},"data":[0.0,0.0,0.0,0.0,0.0,0.0,0.0,0.0,0.0,0.0,0.0,0.0,0.0,0.0,0.0,0.0,0.0,0.0,0.0,0.0,0.0,0.0,0.0,0.0,0.0,0.0,0.0,0.0,0.0,0.0,0.0,0.0,0.0,0.0,0.0,0.0,0.0,0.0,0.0,0.0,0.0,0.0,0.0,0.0,0.0,0.0,0.0,0.0,0.0,0.0,0.0,0.0,0.0,0.0,0.0,0.0,0.0,0.0,0.0,0.0,0.0,0.0,0.0,0.0,0.0,0.0,0.0,0.0,0.0,0.0,0.0,0.0,0.0,0.0,0.0,0.0,0.0,0.0,0.0,0.0,0.0,0.0,0.0,0.0,0.0,0.0,0.0,0.0,0.0,0.0,0.0,0.0,0.0,0.0,0.0,0.0,0.0,0.0,0.0,0.0,0.0,0.0,0.0,0.0,0.0,0.0,0.0,0.0,0.0,0.0,0.0,0.0,0.0,0.0,0.0,0.0,0.0,0.0,0.0,0.0,0.0,0.0,0.0,0.0,0.0,0.0,0.0,0.0,0.0,0.0,0.0,0.0,0.0,0.0,0.0,0.0,0.0,0.0,0.0,0.0,0.0,0.0,0.0,0.0,0.0,0.0,0.0,0.0,0.0,0.0,0.0,0.0,0.0,0.0,0.0,0.0,0.0,0.0,0.0,0.0,0.0,0.0,0.0,0.0,0.0,0.0,0.0,0.0,0.0,0.0,0.0,0.0,0.0,0.0,0.0,0.0,0.0,0.0,0.0,0.0,0.0,0.0,0.0,0.0,0.0,0.0,0.0,0.0,0.0,0.0,0.0,0.0,0.0,0.0,0.0,0.0,0.0,0.0,0.0,0.0,0.0,0.0,0.0,0.0,0.0,0.0,0.0,0.0,0.0,0.0,0.0,0.0,0.0,0.0,0.0,0.0,0.0,0.0,0.0,0.0,0.0,0.0,0.0,0.0,0.0,0.0,0.0,0.0,0.0,0.0,0.0,0.0,0.0,0.0,0.0,0.0,0.0,0.0,0.0,0.0,0.0,0.0,0.0,0.0,0.0,0.0,0.0,0.0,0.0,0.0,0.0,0.0,0.0,0.0,0.0,0.0,0.0,0.0,0.0,0.0,0.0,0.0,0.0,0.0,0.0,0.0,0.0,0.0,0.0,0.0,0.0,0.0,0.0,0.0,0.0,0.0,0.0,0.0,0.0,0.0,0.0,0.0,0.0,0.0,0.0,0.0,0.0,0.0,0.0,0.0,0.0,0.0,0.0,0.0,0.0,0.0,0.0,0.0,0.0,0.0,0.0,0.0,0.0,0.0,0.0,0.0,0.0,0.0,0.0,0.0,0.0,0.0,0.0,0.0,0.0,0.0,0.0,0.0,0.0,0.0,0.0,0.0,0.0,0.0,0.0,0.0,0.0,0.0,0.0,0.0,0.0,0.0,0.0,0.0,0.0,0.0,0.0,0.0,0.0,0.0,0.0,0.0,0.0,0.0,0.0,0.0,0.0,0.0,0.0,0.0,0.0,0.0,0.0,0.0,0.0,0.0,0.0,0.0,0.0,0.0,0.0,0.0,0.0,0.0,0.0,0.0,0.0,0.0,0.0,0.0,0.0,0.0,0.0,0.0,0.0,0.0,0.0,0.0,0.0,0.0,0.0,0.0,0.0,0.0,0.0,0.0,0.0,0.0,0.0,0.0,0.0,0.0,0.0,0.0,0.0,0.0,0.0,0.0,0.0,0.0,0.0,0.0,0.0,0.0,0.0,0.0,0.0,0.0,0.0,0.0,0.0,0.0,0.0,0.0,0.0,0.0,0.0,0.0,0.0,0.0,0.0,0.0,0.0,0.0,0.0,0.0,0.0,0.0,0.0,0.0,0.0,0.0,0.0,0.0,0.0,0.0,0.0,0.0,0.0,0.0,0.0,0.0,0.0,0.0,0.0,0.0,0.0,0.0,0.0,0.0,0.0,0.0,0.0,0.0,0.0,0.0,0.0,0.0,0.0,0.0,0.0,0.0,0.0,0.0,0.0,0.0,0.0,0.0,0.0,0.0,0.0,0.0,0.0,0.0,0.0,0.0,0.0,0.0,0.0,0.0,0.0,0.0,0.0,0.0,0.0,0.0,0.0,0.0,0.0,0.0,0.0,0.0,0.0,0.0,0.0,0.0,0.0,0.0,0.0,0.0,0.0,0.0,0.0,0.0,0.0,0.0,0.0,0.0,0.0,0.0,0.0,0.0,0.0,0.0,0.0,0.0,0.0,0.0,0.0,0.0,0.0,0.0,0.0,0.0,0.0,0.0,0.0,0.0,0.0,0.0,0.0,0.0,0.0,0.0,0.0,0.0,0.0,0.0,0.0,0.0,0.0,0.0,0.0,0.0,0.0,0.0,0.0,0.0,0.0,0.0,0.0,0.0,0.0,0.0,0.0,0.0,0.0,0.0,0.0,0.0,0.0,0.0,0.0,0.0,0.0,0.0,0.0,0.0,0.0,0.0,0.0,0.0,0.0,0.0,0.0,0.0,0.0,0.0,0.0,0.0,0.0,0.0,0.0,0.0,0.0,0.0,0.0,0.0,0.0,0.0,0.0,0.0,0.0,0.0,0.0,0.0,0.0,0.0,0.0,0.0,0.0,0.0,0.0,0.0,0.0,0.0,0.0,0.0,0.0,0.0,0.0,0.0,0.0,0.0,0.0,0.0,0.0,0.0,0.0,0.0,0.0,0.0,0.0,0.0,0.0,0.0,0.0,0.0,0.0,0.0,0.0,0.0,0.0,0.0,0.0,0.0,0.0,0.0,0.0,0.0,0.0,0.0,0.0,0.0,0.0,0.0,0.0,0.0,0.0,0.0,0.0,0.0,0.0,0.0,0.0,0.0,0.0,0.0,0.0,0.0,0.0,0.0,0.0,0.0,0.0,0.0,0.0,0.0,0.0,0.0,0.0,0.0,0.0,0.0,0.0,0.0,0.0,0.0,0.0,0.0,0.0,0.0,0.0,0.0,0.0,0.0,0.0,0.0,0.0,0.0,0.0,0.0,0.0,0.0,0.0,0.0,0.0,0.0,0.0,0.0,0.0,0.0,0.0,0.0,0.0,0.0,0.0,0.0,0.0,0.0,0.0,0.0,0.0,0.0,0.0,0.0,0.0,0.0,0.0,0.0,0.0,0.0,0.0,0.0,0.0,0.0,0.0,0.0,0.0,0.0,0.0,0.0,0.0,0.0,0.0,0.0,0.0,0.0,0.0,0.0,0.0,0.0,0.0,0.0,0.0,0.0,0.0,0.0,0.0,0.0,0.0,0.0,0.0,0.0,0.0,0.0,0.0,0.0,0.0,0.0,0.0,0.0,0.0,0.0,0.0,0.0,0.0,0.0,0.0,0.0,0.0,0.0,0.0,0.0,0.0,0.0,0.0,0.0,0.0,0.0,0.0,0.0,0.0,0.0,0.0,0.0,0.0,0.0,0.0,0.0,0.0,0.0,0.0,0.0,0.0,0.0,0.0,0.0,0.0,0.0,0.0,0.0,0.0,0.0,0.0,0.0,0.0,0.0,0.0,0.0,0.0,0.0,0.0,0.0,0.0,0.0,0.0,0.0,0.0,0.0,0.0,0.0,0.0,0.0,0.0,0.0,0.0,0.0,0.0,0.0,0.0,0.0,0.0,0.0,0.0,0.0,0.0,0.0,0.0,0.0,0.0,0.0,0.0,0.0,0.0,0.0,0.0,0.0,0.0,0.0,0.0,0.0,0.0,0.0,0.0,0.0,0.0,0.0,0.0,0.0,0.0,0.0,0.0,0.0,0.0,0.0,0.0,0.0,0.0,0.0,0.0,0.0,0.0,0.0,0.0,0.0,0.0,0.0,0.0,0.0,0.0,0.0,0.0,0.0,0.0,0.0,0.0,0.0,0.0,0.0,0.0,0.0,0.0,0.0,0.0,0.0,0.0,0.0,0.0,0.0,0.0,0.0,0.0,0.0,0.0,0.0,0.0,0.0,0.0,0.0,0.0,0.0,0.0,0.0,0.0,0.0,0.0,0.0,0.0,0.0,0.0,0.0,0.0,0.0,0.0,0.0,0.0,0.0,0.0,0.0,0.0,0.0,0.0,0.0,0.0,0.0,0.0,0.0,0.0,0.0,0.0,0.0,0.0,0.0,0.0,0.0,0.0,0.0,0.0,0.0,0.0,0.0,0.0,0.0,0.0,0.0,0.0,0.0,0.0,0.0,0.0,0.0,0.0,0.0,0.0,0.0,0.0,0.0,0.0,0.0,0.0,0.0,0.0,0.0,0.0,0.0,0.0,0.0,0.0,0.0,0.0,0.0,0.0,0.0,0.0,0.0,0.0,0.0,0.0,0.0,0.0,0.0,0.0,0.0,0.0,0.0,0.0,0.0,0.0,0.0,0.0,0.0,0.0,0.0,0.0,0.0,0.0,0.0,0.0,0.0,0.0,0.0,0.0,0.0,0.0,0.0,0.0,0.0,0.0,0.0,0.0,0.0,0.0,0.0,0.0,0.0,0.0,0.0,0.0,0.0,0.0,0.0,0.0,0.0,0.0,0.0,0.0,0.0,0.0,0.0,0.0,0.0,0.0,0.0,0.0,0.0,0.0,0.0,0.0,0.0,0.0,0.0,0.0,0.0,0.0,0.0,0.0,0.0,0.0,0.0,0.0,0.0,0.0,0.0,0.0,0.0,0.0,0.0,0.0,0.0,0.0,0.0,0.0,0.0,0.0,0.0,0.0,0.0,0.0,0.0,0.0,0.0,0.0,0.0,0.0,0.0,0.0,0.0,0.0,0.0,0.0,0.0,0.0,0.0,0.0,0.0,0.0,0.0,0.0,0.0,0.0,0.0,0.0,0.0,0.0,0.0,0.0,0.0,0.0,0.0,0.0,0.0,0.0,0.0,0.0,0.0,0.0,0.0,0.0,0.0,0.0,0.0,0.0,0.0,0.0,0.0,0.0,0.0,0.0,0.0,0.0,0.0,0.0,0.0,0.0,0.0,0.0,0.0,0.0,0.0,0.0,0.0,0.0,0.0,0.0,0.0,0.0,0.0,0.0,0.0,0.0,0.0,0.0,0.0,0.0,0.0,0.0,0.0,0.0,0.0,0.0,0.0,0.0,0.0,0.0,0.0,0.0,0.0,0.0,0.0,0.0,0.0,0.0,0.0,0.0,0.0,0.0,0.0,0.0,0.0,0.0,0.0,0.0,0.0,0.0,0.0,0.0,0.0,0.0,0.0,0.0,0.0,0.0,0.0,0.0,0.0,0.0,0.0,0.0,0.0,0.0,0.0,0.0,0.0,0.0,0.0,0.0,0.0,0.0,0.0,0.0,0.0,0.0,0.0,0.0,0.0,0.0,0.0,0.0,0.0,0.0,0.0,0.0,0.0,0.0,0.0,0.0,0.0,0.0,0.0,0.0,0.0,0.0,0.0,0.0,0.0,0.0,0.0,0.0,0.0,0.0,0.0,0.0,0.0,0.0,0.0,0.0,0.0,0.0,0.0,0.0,0.0,0.0,0.0,0.0,0.0,0.0,0.0,0.0,0.0,0.0,0.0,0.0,0.0,0.0,0.0,0.0,0.0,0.0,0.0,0.0,0.0,0.0,0.0,0.0,0.0,0.0,0.0,0.0,0.0,0.0,0.0,0.0,0.0,0.0,0.0,0.0,0.0,0.0,0.0,0.0,0.0,0.0,0.0,0.0,0.0,0.0,0.0,0.0,0.0,0.0,0.0,0.0,0.0,0.0,0.0,0.0,0.0,0.0,0.0,0.0,0.0,0.0,0.0,0.0,0.0,0.0,0.0,0.0,0.0,0.0,0.0,0.0,0.0,0.0,0.0,0.0,0.0,0.0,0.0,0.0,0.0,0.0,0.0,0.0,0.0,0.0,0.0,0.0,0.0,0.0,0.0,0.0,0.0,0.0,0.0,0.0,0.0,0.0,0.0,0.0,0.0,0.0,0.0,0.0,0.0,0.0,0.0,0.0,0.0,0.0,0.0,0.0,0.0,0.0,0.0,0.0,0.0,0.0,0.0,0.0,0.0,0.0,0.0,0.0,0.0,0.0,0.0,0.0,0.0,4.1654,0.0,0.0,0.0,0.0,0.0,0.0,0.0,0.0,0.0,0.0,0.0,0.0,0.0,0.0,0.0,0.0,0.0,0.0,0.0,0.0,0.0,0.0,0.0,0.0,0.0,0.0,0.0,0.0,0.0,0.0,0.0,0.0,0.0,0.0,0.0,0.0,0.0,0.0,0.0,4.0434,4.0306,4.0306,4.0726,4.0707,4.0306,0.0,0.0,0.0,0.0,0.0,0.0,0.0,0.0,0.0,0.0,0.0,0.0,0.0,0.0,0.0,0.0,0.0,0.0,0.0,0.0,0.0,0.0,0.0,0.0,0.0,0.0,0.0,0.0,0.0,0.0,0.0,0.0,0.0,0.0,0.0,0.0,0.0,0.0,0.0,0.0,0.0,0.0,0.0,0.0,0.0,0.0,0.0,0.0,0.0,0.0,0.0,0.0,0.0,0.0,0.0,0.0,0.0,0.0,0.0,0.0,0.0,0.0,0.0,0.0,0.0,0.0,0.0,0.0,0.0,0.0,0.0,4.2249,0.0,0.0,0.0,0.0,0.0,0.0,0.0,0.0,0.0,0.0,0.0,0.0,0.0,0.0,0.0,0.0,0.0,0.0,0.0,0.0,0.0,0.0,0.0,0.0,4.4688,4.4688,4.389,0.0,0.0,0.0,0.0,0.0,0.0,0.0,0.0,4.1022,4.0971,4.11,4.0859,4.0745,4.0745,4.0745,4.0745,4.0726,4.0439,0.0,0.0,0.0,0.0,0.0,0.0,0.0,0.0,0.0,0.0,0.0,0.0,0.0,0.0,0.0,0.0,0.0,0.0,0.0,0.0,0.0,0.0,0.0,0.0,0.0,0.0,0.0,0.0,0.0,0.0,0.0,0.0,0.0,0.0,0.0,0.0,0.0,0.0,0.0,0.0,0.0,0.0,0.0,0.0,0.0,0.0,0.0,0.0,0.0,0.0,0.0,0.0,0.0,0.0,0.0,0.0,0.0,0.0,0.0,0.0,0.0,0.0,0.0,0.0,0.0,4.3506,4.3506,4.3506,4.3506,4.3506,4.3506,4.3506,0.0,0.0,0.0,0.0,0.0,0.0,0.0,0.0,0.0,0.0,0.0,0.0,0.0,0.0,0.0,0.0,0.0,0.0,0.0,0.0,0.0,0.0,4.4351,4.3863,4.3863,4.307,4.256,0.0,0.0,0.0,0.0,0.0,0.0,4.1956,4.1814,4.2067,4.2698,4.2536,4.2469,4.2469,4.2469,4.2469,4.2412,4.0955,4.0306,4.0306,0.0,0.0,0.0,0.0,0.0,0.0,0.0,0.0,0.0,0.0,0.0,0.0,0.0,0.0,0.0,0.0,0.0,0.0,0.0,0.0,0.0,0.0,0.0,0.0,0.0,0.0,0.0,0.0,0.0,0.0,0.0,0.0,0.0,0.0,0.0,0.0,0.0,0.0,0.0,0.0,0.0,4.0975,4.1085,0.0,0.0,0.0,0.0,0.0,0.0,0.0,0.0,0.0,0.0,0.0,0.0,0.0,0.0,4.3341,4.3341,4.3396,4.3506,4.3506,4.3506,4.3506,4.3506,4.3506,4.3506,4.3506,0.0,4.3506,4.3506,0.0,0.0,0.0,0.0,0.0,0.0,0.0,0.0,0.0,0.0,0.0,0.0,0.0,0.0,0.0,0.0,0.0,0.0,0.0,0.0,0.0,4.3471,4.296,4.296,4.2093,4.1591,4.1658,0.0,0.0,0.0,0.0,4.2667,4.2886,4.2712,4.2721,4.2899,4.2833,4.2794,4.2794,4.2794,4.2794,4.2775,4.2025,4.17,4.17,4.17,0.0,0.0,0.0,0.0,0.0,0.0,0.0,0.0,0.0,0.0,0.0,0.0,0.0,0.0,0.0,0.0,0.0,0.0,0.0,0.0,0.0,0.0,0.0,0.0,0.0,0.0,0.0,0.0,0.0,0.0,0.0,0.0,0.0,0.0,0.0,0.0,0.0,0.0,0.0,4.2158,4.2451,4.2451,4.2451,4.2451,0.0,0.0,0.0,0.0,0.0,0.0,0.0,0.0,0.0,4.3506,4.3506,4.3506,4.3506,4.3506,4.3506,4.3506,4.3506,4.3506,4.3506,4.3506,4.3506,4.3506,4.3506,4.3506,4.3506,4.3506,4.3506,4.3506,0.0,0.0,0.0,0.0,0.0,0.0,0.0,0.0,0.0,0.0,0.0,0.0,0.0,0.0,0.0,0.0,0.0,0.0,4.345,4.2584,4.2072,4.2075,4.1371,4.1098,4.1413,4.1943,0.0,0.0,4.3355,4.3731,4.3771,4.3763,4.3669,4.3468,4.3453,4.3443,4.3443,4.3443,4.3443,4.3443,4.3443,4.3195,4.2794,4.2794,4.2382,4.1702,0.0,0.0,0.0,0.0,0.0,0.0,0.0,0.0,0.0,0.0,0.0,0.0,0.0,0.0,0.0,0.0,0.0,0.0,0.0,0.0,0.0,0.0,0.0,0.0,0.0,0.0,0.0,0.0,0.0,0.0,0.0,0.0,0.0,0.0,0.0,0.0,0.0,4.3121,4.3506,4.3506,4.3506,4.3506,0.0,0.0,0.0,0.0,0.0,0.0,4.3506,4.3506,4.3506,4.3506,4.3506,4.3506,4.3506,4.3506,4.3506,4.3506,4.3506,4.3506,4.3506,4.3506,4.3506,4.3506,4.3506,4.3506,4.3506,4.3506,4.3506,4.3506,4.3506,4.3506,0.0,4.3506,4.3506,4.3506,0.0,0.0,0.0,0.0,0.0,0.0,0.0,0.0,0.0,0.0,0.0,4.2512,4.2473,4.1685,4.1175,4.1166,4.1125,4.1432,4.2275,4.2366,4.2756,4.3605,4.3675,4.3966,4.4536,4.5032,4.527,4.5269,4.5213,4.5168,4.5168,4.5168,4.5168,4.5168,4.5168,4.4289,4.2794,4.2794,4.2595,4.2289,4.2612,0.0,0.0,0.0,0.0,0.0,0.0,0.0,0.0,0.0,0.0,0.0,0.0,0.0,0.0,0.0,0.0,0.0,0.0,0.0,0.0,0.0,0.0,0.0,0.0,0.0,0.0,0.0,0.0,0.0,0.0,0.0,0.0,0.0,0.0,0.0,0.0,0.0,0.0,4.3506,4.3506,0.0,0.0,0.0,0.0,4.3506,4.3506,4.3506,4.3506,4.3506,4.3506,4.3506,4.3506,4.3506,4.3506,4.3506,4.3506,4.3506,4.3506,4.3506,4.3506,4.3506,4.3506,4.3506,4.3506,4.3506,4.3506,4.3506,4.3506,4.3506,4.3506,4.3506,4.3506,4.3506,4.3506,4.3506,0.0,0.0,0.0,0.0,0.0,0.0,0.0,0.0,0.0,4.3469,4.2786,4.2181,4.1616,4.1281,4.1105,4.1108,4.1537,4.1938,4.2248,4.3313,4.4073,4.4397,4.4959,4.5267,4.5305,4.54,4.5434,4.5403,4.538,4.5336,4.5302,4.5338,4.5338,4.5302,4.5302,4.4977,4.4404,4.4404,4.3923,4.3152,4.3282,4.2917,0.0,0.0,0.0,0.0,0.0,0.0,0.0,0.0,0.0,0.0,0.0,0.0,0.0,0.0,0.0,0.0,0.0,0.0,0.0,0.0,0.0,0.0,0.0,0.0,0.0,0.0,0.0,0.0,0.0,0.0,0.0,0.0,0.0,0.0,0.0,0.0,0.0,4.3506,4.3506,0.0,0.0,4.3506,4.3506,4.3506,4.3531,4.3558,4.3496,4.3531,4.3539,4.3506,4.3506,4.3506,4.3506,4.3506,4.3763,4.4268,4.4268,4.4544,4.5039,4.5039,4.5039,4.5039,4.5039,4.5039,4.5039,4.5039,4.4424,4.3506,4.3506,4.3818,4.4268,4.4268,4.4599,4.5039,0.0,0.0,0.0,0.0,0.0,0.0,0.0,0.0,4.4035,4.259,4.2142,4.1732,4.1167,4.1109,4.1226,4.1518,4.1989,4.2529,4.3104,4.4229,4.4978,4.5239,4.5732,4.5917,4.5733,4.5586,4.5486,4.5438,4.5415,4.539,4.5339,4.5379,4.5388,4.5328,4.5312,4.5302,4.5302,4.5302,4.4805,4.4004,4.4131,4.3753,4.314,0.0,0.0,0.0,0.0,0.0,0.0,0.0,0.0,0.0,0.0,0.0,0.0,0.0,0.0,0.0,0.0,0.0,0.0,0.0,0.0,0.0,0.0,0.0,0.0,0.0,0.0,0.0,0.0,0.0,0.0,0.0,0.0,0.0,0.0,0.0,4.3506,4.3506,4.3506,4.3506,4.3506,4.3506,4.3506,4.3506,4.3531,4.3548,4.3522,4.3849,4.404,4.4005,4.4262,4.441,4.441,4.441,4.4677,4.5201,4.5201,4.5486,4.6001,4.6001,4.6001,4.6001,4.6001,4.6001,4.6001,4.6001,4.5358,4.4376,4.4322,4.4635,4.5104,4.5104,4.5443,4.5902,0.0,0.0,0.0,0.0,0.0,0.0,0.0,4.4231,4.3373,4.2473,4.1616,4.1109,4.1109,4.1129,4.1479,4.2337,4.2447,4.3207,4.4871,4.5023,4.5352,4.6059,4.5908,4.5803,4.5796,4.5599,4.5504,4.5499,4.5434,4.541,4.5405,4.5395,4.5408,4.5403,4.5328,4.5302,4.5302,4.5302,4.5109,4.485,4.5167,4.5093,4.4794,0.0,0.0,0.0,0.0,0.0,0.0,0.0,0.0,0.0,0.0,0.0,0.0,0.0,0.0,0.0,0.0,0.0,0.0,0.0,0.0,0.0,0.0,0.0,0.0,0.0,0.0,0.0,0.0,0.0,0.0,0.0,0.0,0.0,4.3558,4.3506,4.3506,4.3506,4.3506,4.3506,4.3496,4.3533,4.3533,4.3533,4.357,4.3604,4.3672,4.4481,4.4974,4.5041,4.578,4.6205,4.6205,4.6223,4.6242,4.6279,4.6297,4.6334,4.6352,4.6352,4.6352,4.6352,4.6352,4.6352,4.6352,4.6352,4.6309,4.623,4.6002,4.592,4.5938,4.5938,4.5957,4.5984,0.0,0.0,0.0,0.0,0.0,0.0,0.0,4.3841,4.3158,4.1655,4.1245,4.1109,4.1109,4.1655,4.2142,4.2376,4.3565,4.4449,4.482,4.5538,4.5948,4.5954,4.586,4.5753,4.5651,4.5607,4.5555,4.5499,4.5522,4.5499,4.5405,4.5448,4.5458,4.5403,4.5388,4.5343,4.5302,4.5302,4.5246,4.5156,4.5005,4.4879,4.4794,0.0,0.0,0.0,0.0,0.0,0.0,0.0,0.0,0.0,0.0,0.0,0.0,0.0,0.0,0.0,0.0,0.0,0.0,0.0,0.0,0.0,0.0,0.0,0.0,0.0,0.0,0.0,0.0,0.0,0.0,0.0,0.0,4.3657,4.3513,4.3506,4.3506,4.3506,4.3506,4.3513,4.3565,4.4143,4.4483,4.4456,4.5119,4.5504,4.5429,4.5734,4.5897,4.5872,4.6075,4.6205,4.6205,4.6786,4.7359,4.795,4.8587,4.9196,4.9751,4.9751,4.9751,4.9751,4.9751,4.9751,4.9751,4.9751,4.9741,4.9482,4.7012,4.6351,4.6773,4.6773,4.7205,4.7785,0.0,0.0,0.0,0.0,0.0,0.0,0.0,4.3705,4.306,4.1324,4.1109,4.1109,4.1109,4.1888,4.2551,4.2903,4.4191,4.5117,4.5401,4.5916,4.6112,4.591,4.5841,4.5731,4.5594,4.5594,4.5577,4.5531,4.5577,4.5564,4.549,4.5495,4.5491,4.5434,4.5409,4.5389,4.5338,4.5338,4.5323,4.5272,4.5093,4.5017,4.4986,4.4856,4.5017,4.5251,4.4928,4.4794,4.4757,4.4486,0.0,0.0,0.0,0.0,0.0,0.0,0.0,0.0,0.0,0.0,0.0,0.0,0.0,0.0,0.0,0.0,0.0,0.0,0.0,0.0,0.0,0.0,0.0,0.0,4.4028,4.4078,4.4054,4.3751,4.3669,4.3965,4.4055,4.4218,4.4611,4.5123,4.5426,4.538,4.5926,4.6404,4.6713,4.7123,4.7509,4.7862,4.8195,4.838,4.838,4.8843,4.9306,4.9778,5.0296,5.0759,5.1222,5.1222,5.1222,0.0,5.1222,5.1222,5.1222,5.1222,5.1185,0.0,0.0,0.0,0.0,0.0,4.8403,4.8541,0.0,0.0,0.0,0.0,0.0,0.0,0.0,4.3705,4.306,4.1324,4.1109,4.1109,4.1109,4.1967,4.2864,4.3626,4.4582,4.5477,4.6236,4.6146,4.6015,4.5907,4.5841,4.5742,4.5629,4.5603,4.5594,4.5594,4.5594,4.5594,4.559,4.555,4.5504,4.5499,4.5434,4.5405,4.5394,4.5394,4.5364,4.5312,4.5312,4.5307,4.5262,4.4963,4.504,4.5251,4.4928,4.4794,4.4751,4.4464,0.0,0.0,0.0,0.0,0.0,0.0,0.0,0.0,0.0,0.0,0.0,0.0,0.0,0.0,0.0,0.0,0.0,0.0,0.0,0.0,0.0,0.0,0.0,0.0,4.4593,4.4977,4.4968,4.4342,4.4142,4.4782,4.4971,4.5335,4.6044,4.6345,4.6481,4.6481,4.6683,4.7143,4.7962,0.0,0.0,0.0,0.0,5.1398,5.1398,5.1491,5.1546,5.1546,5.1639,5.1676,5.1676,5.1676,5.1676,5.1676,5.1676,5.1676,5.1676,5.1676,5.1593,5.1473,5.1202,5.109,5.1016,5.0296,4.9557,0.0,0.0,0.0,0.0,0.0,0.0,0.0,0.0,4.3705,4.306,4.1324,4.1109,4.1109,4.1109,4.2514,4.3529,4.3685,4.5149,4.6071,4.6125,4.6007,4.5925,4.5902,4.5841,4.5793,4.576,4.5667,4.5594,4.5594,4.5594,4.5594,4.5594,4.5581,4.5559,4.5499,4.549,4.5457,4.539,4.539,4.54,4.5388,4.5388,4.5343,4.5297,4.5235,4.5246,4.5251,4.4928,4.4794,4.4739,4.4236,4.4041,4.3942,4.3607,4.3506,0.0,0.0,0.0,0.0,0.0,0.0,0.0,0.0,0.0,0.0,0.0,0.0,0.0,0.0,0.0,0.0,0.0,0.0,0.0,4.6032,4.6069,4.5988,4.5947,4.5833,4.5779,4.5825,4.5905,4.602,4.6245,4.7492,4.8306,4.8306,4.96,5.0434,5.05,5.0759,0.0,5.1156,5.1323,5.1398,5.1398,5.2048,5.2364,5.2382,0.0,0.0,5.3339,5.3339,5.3339,5.3339,5.3339,5.3339,5.3339,5.3339,5.3311,5.3152,5.1675,5.109,5.1072,5.0924,5.0805,5.0694,0.0,0.0,0.0,0.0,0.0,0.0,0.0,4.3978,4.3236,4.1927,4.1362,4.1265,4.1693,4.2924,4.388,4.4309,4.5481,4.6176,4.6102,4.6043,4.5954,4.5856,4.585,4.5806,4.5708,4.5637,4.5594,4.5594,4.5594,4.5594,4.5594,4.5594,4.5581,4.5555,4.5555,4.5508,4.5443,4.5443,4.5434,4.5404,4.5404,4.539,4.536,4.5304,4.5302,4.5286,4.5109,4.5045,4.4952,4.4381,4.4199,4.411,4.3647,4.3506,4.3614,0.0,0.0,0.0,0.0,0.0,0.0,0.0,0.0,0.0,0.0,0.0,0.0,0.0,0.0,4.5996,0.0,0.0,4.6248,4.6541,4.692,4.7137,4.7115,4.781,4.7941,4.688,4.7183,4.7669,4.812,4.934,5.0109,5.0109,5.0906,5.1547,5.189,5.1964,5.2197,5.2587,5.2605,5.2605,5.2605,5.3394,5.3803,5.3813,5.4648,5.5057,5.5057,5.5057,5.4806,5.4397,5.4397,5.4174,5.3803,5.3803,5.3803,5.371,5.2798,5.2214,5.1862,5.1862,5.163,5.1297,0.0,0.0,0.0,0.0,0.0,0.0,0.0,4.425,4.3392,4.2512,4.1635,4.1362,4.2064,4.308,4.4114,4.5167,4.5767,4.6093,4.6059,4.6059,4.5993,4.5838,4.5868,4.5803,4.5665,4.5629,4.5594,4.5594,4.5594,4.5594,4.5594,4.5594,4.5594,4.5594,4.5594,4.5573,4.5513,4.5513,4.5485,4.5419,4.5419,4.5415,4.5395,4.535,4.5314,4.5314,4.5314,4.5328,4.523,4.4624,4.4411,4.432,4.3767,4.3597,4.3747,4.4341,4.4465,0.0,0.0,0.0,0.0,0.0,0.0,0.0,0.0,0.0,4.6972,4.6493,4.6777,4.7181,4.7418,4.7229,4.7072,4.7138,4.7774,4.832,4.847,4.9624,4.988,4.8353,4.8833,4.9564,5.0212,5.1092,5.1639,5.1639,5.1842,5.2298,5.3032,5.3181,5.359,5.4258,5.4353,5.4382,5.4382,5.4966,5.53,5.5359,5.6007,5.6302,5.6302,5.6302,5.593,5.5252,5.5252,5.488,5.4286,5.4286,5.4286,5.4286,5.4286,5.3887,5.3274,5.2958,5.2419,5.1881,0.0,0.0,0.0,0.0,0.0,0.0,0.0,0.0,4.3392,4.2512,4.1635,4.1147,4.1226,4.2709,4.4368,4.6008,4.612,4.6051,4.5928,4.592,4.591,4.5883,4.5848,4.5835,4.5861,4.5692,4.5594,4.5594,4.5594,4.5594,4.5594,4.5594,4.5594,4.5594,4.5594,4.5609,4.5586,4.5586,4.5555,4.549,4.549,4.5448,4.5405,4.539,4.5386,4.5386,4.5386,4.5395,4.5293,4.4682,4.4493,4.4431,4.4061,4.3985,4.4147,4.4757,4.4726,4.4624,4.5222,4.5264,4.5043,4.4701,4.5291,4.5834,0.0,0.0,4.7104,4.7092,4.6972,4.7167,4.8248,4.7999,4.8013,4.9233,4.9329,4.9485,5.0209,5.0464,5.068,5.0924,5.1045,5.1138,5.1231,5.1983,5.2475,5.2475,5.3408,5.4191,5.4695,5.5293,5.5747,5.6006,5.6313,5.6467,5.6467,5.6256,5.6311,5.6598,5.6395,5.6302,5.6302,5.6302,5.6246,5.6153,5.6153,5.6097,5.6023,5.6023,5.6023,5.6023,5.6023,5.5967,5.5707,5.4221,5.3599,5.3524,0.0,0.0,0.0,0.0,0.0,0.0,0.0,0.0,0.0,0.0,4.2396,4.1869,4.1869,4.3411,4.4758,4.548,4.5884,4.6086,4.6011,4.5937,4.5872,4.5838,4.5818,4.5773,4.5729,4.5632,4.5594,4.5594,4.5594,4.5594,4.5594,4.5594,4.5594,4.5594,4.5594,4.5594,4.5594,4.5594,4.5581,4.5564,4.5564,4.5531,4.5513,4.5513,4.5513,4.5504,4.5429,4.539,0.0,4.4938,4.4794,4.4751,4.4435,4.4376,4.4465,4.4878,4.4896,4.4849,4.5154,4.6016,4.6609,0.0,4.6537,4.7473,4.6581,4.7574,4.8576,4.8257,4.8492,4.8895,4.9236,4.9219,4.9242,0.0,5.0151,5.0731,5.1085,5.1802,5.2367,5.2591,5.29,5.2902,5.2425,5.3108,5.3859,5.4539,5.5026,5.5517,5.6023,5.65,5.6711,5.6584,5.6731,5.6801,5.6801,5.6927,5.7079,5.7218,5.7534,5.7703,5.7703,5.7703,5.7453,5.697,5.6506,5.6302,5.6302,5.6302,5.6302,5.6302,5.6302,5.6599,5.6859,5.5689,5.5252,5.5252,0.0,0.0,0.0,0.0,0.0,0.0,0.0,0.0,0.0,0.0,4.3157,4.2767,4.2767,4.3899,4.4737,4.4972,4.5703,4.6141,4.6102,4.6005,4.5919,4.5832,4.5808,4.5753,4.5651,4.5667,4.5642,4.5594,4.5642,4.5642,4.5594,4.5594,4.5594,4.5594,4.5594,4.5594,4.5594,4.5594,4.5594,4.5594,4.5594,4.5594,4.5594,4.5594,4.5594,4.5586,4.5495,4.5438,4.5395,4.5113,4.503,4.4983,4.4806,4.4745,4.4781,4.508,4.5346,4.5576,4.5843,4.6948,0.0,4.6656,4.7655,4.8679,4.7815,4.8808,4.9816,4.9478,4.9828,5.0147,4.9955,5.0,4.9994,4.967,5.0684,5.1588,5.1792,5.2875,5.3692,5.384,5.4206,5.4328,5.4063,5.4485,5.522,5.6273,5.6447,5.6709,5.7238,5.767,5.7814,5.7625,5.771,5.7769,5.7769,5.8015,5.8174,5.8269,5.8665,5.8835,5.8835,5.875,5.8372,5.7796,5.7212,5.697,5.697,5.697,5.697,5.697,5.697,5.7323,5.7759,5.7175,5.6822,5.6599,0.0,0.0,0.0,0.0,0.0,0.0,0.0,0.0,0.0,0.0,0.0,0.0,0.0,4.3705,4.4075,4.4933,4.5791,4.6242,4.6105,4.6098,4.6021,4.5902,4.5838,4.5803,4.58,4.5796,4.5723,4.5594,4.5723,4.5739,4.5594,4.5594,4.5594,4.5594,4.5594,4.5594,4.5594,4.5594,4.5594,4.5594,4.5594,4.5594,4.5594,4.5594,4.5594,4.5594,4.5609,4.5559,4.5467,4.5191,4.5096,4.5091,4.5085,4.508,4.514,4.549,4.6188,4.701,4.7803,4.7854,4.7696,4.766,4.8141,4.8675,4.8881,4.9589,5.0264,5.0576,5.0407,5.0201,5.0189,4.9974,4.9884,5.0141,5.0926,5.1773,5.2557,5.3435,5.4172,5.4703,5.4773,5.5213,0.0,5.6121,5.6319,5.7195,5.7563,5.7953,5.8412,5.9076,5.9517,5.9704,6.0018,6.0196,6.0196,5.9896,5.9888,6.0213,5.9508,5.9168,5.9178,5.8845,5.8687,5.865,5.8632,5.8632,5.8632,5.8632,5.8632,5.8632,5.8632,5.8632,5.865,5.8632,5.813,5.736,0.0,0.0,0.0,0.0,0.0,0.0,0.0,0.0,0.0,0.0,0.0,0.0,0.0,0.0,0.0,0.0,4.4933,4.567,4.6201,4.6146,4.6089,4.6021,4.5924,4.5863,4.5863,4.5815,4.5778,4.5727,4.5692,4.5635,4.5594,4.5594,4.5594,4.5594,4.5594,4.5594,4.5594,4.5594,4.5594,4.5594,4.5594,4.5594,4.5594,4.5594,4.5594,4.5594,0.0,4.5581,4.5559,4.5452,4.5429,4.5429,4.5429,4.5429,4.5563,4.6256,4.7451,4.8443,4.7978,4.8741,4.9515,4.8753,4.9272,5.0019,5.0111,5.0333,5.0559,5.0673,5.0614,5.0453,5.0235,5.0313,5.0341,5.0218,5.1568,5.2722,5.2985,5.4093,5.4931,5.5106,5.5607,0.0,0.0,0.0,0.0,5.8636,5.8865,5.9153,5.9669,6.0118,6.0297,6.0138,6.0244,6.0293,6.0293,5.9965,5.9855,5.9957,5.944,5.9206,5.9197,5.8855,5.8706,5.8706,5.8706,5.8706,5.8706,5.8706,5.8706,5.8706,5.8706,5.9022,5.943,5.8892,5.8873,5.8985,0.0,0.0,0.0,0.0,0.0,0.0,0.0,0.0,0.0,0.0,0.0,0.0,0.0,0.0,0.0,0.0,0.0,4.5245,4.5792,4.6059,4.6146,4.6102,4.6011,4.5942,4.5902,4.5908,4.5888,4.5841,4.5747,4.5688,4.5668,4.5625,4.5594,4.5594,4.5594,4.5594,4.5594,4.5594,4.5594,4.5594,4.5594,4.5594,4.5594,4.5594,4.5594,0.0,4.5594,4.5594,4.5594,4.5594,4.5594,4.5594,4.5594,4.5802,4.6297,4.7451,4.8567,4.9313,4.889,4.9724,5.0524,4.9796,5.0151,5.0707,5.0707,5.0707,5.0707,5.0707,5.0707,5.0629,5.0421,5.0554,5.072,5.0799,5.2148,5.3313,5.3626,5.4687,5.5437,5.5437,5.6165,5.7027,0.0,0.0,0.0,6.0269,6.0146,6.0248,6.0903,6.0851,6.069,6.0494,6.0469,6.0469,6.0469,6.0265,6.0094,5.9973,5.9731,5.9527,5.9415,5.9197,5.9015,5.8885,5.8885,5.8813,5.8706,5.8706,5.8706,5.8706,5.8706,5.9022,5.9412,5.8892,5.9022,5.9393,0.0,0.0,0.0,0.0,0.0,0.0,0.0,0.0,0.0,0.0,0.0,0.0,0.0,0.0,0.0,0.0,0.0,0.0,4.4933,4.5753,4.6185,4.605,4.6086,4.6051,4.592,4.6043,4.6043,4.591,4.5905,4.5863,4.5794,4.5672,4.5607,4.5607,4.5599,4.5594,4.5594,4.5594,4.5594,4.5594,4.5594,4.5594,4.5594,4.5594,4.5594,4.5594,4.5594,4.5594,4.5594,4.5594,4.5594,4.5594,4.5594,4.6201,4.7216,4.8856,4.9375,4.9591,5.0457,5.0707,5.0707,5.0707,5.0707,5.0707,5.0707,5.0707,5.0707,5.0707,5.0707,5.0707,0.0,0.0,5.0957,5.1717,5.2601,5.3491,5.4318,5.5164,5.5708,0.0,0.0,0.0,0.0,0.0,0.0,6.1979,0.0,6.1152,6.1979,6.1248,6.0806,6.0806,6.0806,6.0806,6.0806,6.0806,6.0641,6.0321,6.03,6.0124,5.9842,5.9799,5.9588,5.9224,5.9224,5.9045,5.8729,5.8729,5.8708,5.8706,5.8706,5.8706,5.8706,5.8706,5.8706,5.8706,0.0,0.0,0.0,0.0,0.0,0.0,0.0,0.0,0.0,0.0,0.0,0.0,0.0,0.0,0.0,0.0,0.0,0.0,4.3997,4.4855,4.5318,4.5288,4.5894,4.6239,4.6206,4.6138,4.6072,4.6051,4.5942,4.5886,4.5875,4.5798,4.5746,4.5742,4.5635,4.5594,4.5594,4.5594,4.5594,4.5594,4.5594,4.5594,4.5594,4.5594,4.5594,4.5594,4.5594,4.5594,4.5594,4.5594,4.5594,4.5594,4.5594,4.6201,4.7101,4.812,4.8894,4.9591,5.0457,5.0707,5.0707,5.0707,5.0707,5.0707,5.0707,5.0707,5.0707,5.0707,5.0707,5.0707,0.0,0.0,0.0,5.0976,5.2241,0.0,5.351,5.478,0.0,5.5708,0.0,5.8069,5.8275,6.0204,0.0,0.0,6.1287,6.0902,6.1114,6.0921,6.0806,6.0806,6.0806,6.0806,6.0806,6.0806,6.0752,6.0666,6.0422,6.0258,6.0153,5.9911,5.9741,5.9658,5.9658,5.9423,5.9074,5.9074,5.8926,5.8706,5.8706,5.8706,5.8706,5.8706,5.8706,5.8706,0.0,0.0,0.0,0.0,0.0,0.0,0.0,0.0,0.0,0.0,0.0,0.0,0.0,0.0,0.0,0.0,0.0,0.0,0.0,4.3957,4.4602,4.4972,4.548,4.5909,4.6281,4.6237,4.6182,4.6182,4.6053,4.5989,4.5987,4.5897,4.5838,4.5831,4.5726,4.5692,4.5684,4.5629,4.5594,0.0,0.0,4.5594,4.5594,4.5594,4.5594,4.5594,4.5594,4.5594,4.5594,4.5594,4.5594,4.5667,4.6052,4.6509,4.7139,4.8317,4.9029,4.9591,5.0457,5.0707,5.0707,5.0707,5.0707,5.0707,5.0707,5.0707,5.0707,5.0707,5.0707,5.0707,5.0707,5.0707,5.0822,0.0,0.0,0.0,5.3664,5.4587,5.5304,0.0,5.7242,0.0,5.8294,6.0594,6.1941,0.0,6.1422,6.1364,6.1364,6.1018,6.0806,6.0806,6.0806,6.0806,6.0806,6.0806,6.0806,6.08,6.0616,6.0527,6.052,6.0321,6.0165,6.0011,0.0,5.9714,5.9206,5.9206,5.9006,5.8706,5.8706,5.8706,5.8706,5.8706,5.8706,5.8706,0.0,0.0,0.0,0.0,0.0,0.0,0.0,0.0,0.0,0.0,0.0,0.0,0.0,0.0,0.0,0.0,0.0,0.0,0.0,0.0,4.386,4.462,4.4776,4.5246,4.6105,4.6124,4.6184,4.6301,4.6181,4.6133,4.6112,4.5992,4.5923,4.592,4.5857,4.5805,4.5796,4.5676,4.5616,4.5594,4.5594,4.5594,4.5594,0.0,4.5594,4.5594,4.5594,4.5594,4.5594,4.5594,4.5594,4.5725,4.649,4.6735,4.7062,4.874,4.9221,4.9433,5.0438,5.0707,5.0707,5.0707,5.0707,5.0707,5.0707,5.0707,5.0707,5.0707,5.0707,5.0707,5.0707,5.0707,5.0938,5.162,0.0,5.2601,5.4107,5.4511,5.4914,5.5612,5.7242,5.8294,5.8294,6.0594,6.1729,6.0864,6.1614,6.2056,6.1922,6.121,6.0806,6.0806,6.0806,6.0806,6.0806,6.0806,6.0806,6.0806,6.0806,6.0806,6.0806,6.0806,6.0641,6.0375,0.0,0.0,5.9342,5.9288,5.9093,5.8752,5.8708,5.8706,5.8706,5.8706,5.8706,5.8706,0.0,0.0,0.0,0.0,0.0,0.0,0.0,0.0,0.0,0.0,4.1109,4.1167,0.0,0.0,0.0,0.0,0.0,0.0,0.0,0.0,0.0,4.2844,4.3548,4.4328,4.5206,4.5225,4.5578,4.6301,4.6274,4.6271,4.627,4.6135,4.6061,4.6057,4.5942,4.5853,4.5803,4.5778,4.5708,4.5594,4.5594,4.5594,4.5594,4.5594,0.0,0.0,4.5594,4.5594,4.5594,4.5594,4.5594,4.5633,4.5782,4.5821,4.6148,4.7836,4.8336,4.8663,5.0265,5.0707,5.0707,5.0707,5.0707,5.0707,5.0707,5.0707,5.0707,5.0707,5.0707,5.0707,5.0707,5.0707,5.0745,5.0899,5.2068,5.3082,5.3371,5.4626,5.5535,0.0,5.7242,5.8294,5.8294,0.0,0.0,0.0,0.0,0.0,6.1056,6.0883,6.0806,6.0806,6.0806,6.0806,6.0806,6.0806,6.0806,6.0806,6.0806,6.0806,6.0806,6.0806,6.0763,6.0722,0.0,0.0,6.0094,5.9804,5.9467,5.9093,5.8813,5.8706,5.8706,5.8706,5.8706,5.8706,0.0,0.0,0.0,0.0,0.0,0.0,0.0,4.1109,4.1109,4.1109,4.1109,4.1109,4.1109,4.1109,0.0,0.0,0.0,0.0,0.0,0.0,0.0,0.0,4.2806,4.343,4.4309,4.4328,4.4524,4.4954,0.0,4.5187,4.5616,4.5555,4.5778,4.6205,4.5992,4.5872,4.5847,4.5734,4.5651,4.5594,4.5594,4.5594,4.5594,0.0,0.0,0.0,4.5594,4.5594,4.5594,4.5594,4.5594,4.5594,4.5594,4.5594,4.5936,4.7605,4.8101,4.849,5.0226,5.0707,5.0707,5.0707,5.0707,5.0707,5.0707,5.0707,5.0707,5.0707,5.0707,5.0707,5.0707,5.0707,5.0842,5.126,5.2005,5.2832,5.376,5.4568,5.5228,5.5651,5.6843,5.78,0.0,0.0,0.0,0.0,0.0,0.0,6.0845,6.0806,6.0806,6.0806,6.0806,6.0806,6.0806,6.0806,6.0806,6.0806,6.0806,6.0806,6.0806,6.0806,6.0806,6.0806,0.0,0.0,6.0286,6.0135,5.9731,5.9187,5.9016,5.8855,5.8706,5.8706,5.8706,5.8706,0.0,0.0,0.0,0.0,0.0,0.0,0.0,4.0814,4.0891,4.1087,4.1104,4.1103,4.1103,4.1104,4.1106,0.0,0.0,0.0,0.0,0.0,0.0,0.0,0.0,0.0,0.0,0.0,0.0,0.0,4.3705,0.0,0.0,0.0,0.0,0.0,4.5795,4.5789,4.5891,4.5736,4.5643,0.0,0.0,4.5594,0.0,0.0,0.0,0.0,0.0,4.5594,4.5594,4.5594,4.5594,4.5594,4.5594,4.5594,4.5898,4.7394,4.7966,4.8432,4.9995,5.0553,5.0707,5.0707,5.0707,5.0707,5.0707,5.0707,5.0707,5.0707,5.0707,5.0707,5.0707,5.0707,5.0957,5.1774,5.2058,5.2717,5.428,5.4645,5.4991,5.5612,5.6478,0.0,5.8223,0.0,0.0,0.0,0.0,0.0,6.0845,6.0806,6.0806,6.0806,6.0806,6.0806,6.0806,6.0806,6.0806,6.0806,6.0806,6.0806,6.0806,6.0806,6.0806,6.0806,0.0,0.0,0.0,6.0321,5.9969,5.9422,5.9261,5.9035,5.8803,5.8729,5.8706,5.8706,0.0,0.0,0.0,0.0,0.0,0.0,0.0,3.9928,4.0196,4.0997,4.1105,4.1097,4.1097,4.1108,4.1095,0.0,0.0,0.0,0.0,0.0,0.0,0.0,0.0,0.0,0.0,0.0,0.0,0.0,0.0,0.0,0.0,0.0,0.0,0.0,0.0,0.0,4.5899,4.5881,0.0,0.0,0.0,0.0,0.0,0.0,0.0,0.0,0.0,4.5594,4.5594,4.5594,4.5594,4.5594,4.5594,4.5594,4.5782,4.6735,4.7524,4.8312,4.926,5.0091,5.0707,5.0707,5.0707,5.0707,5.0707,5.0707,5.0707,5.0707,5.0707,5.0707,5.0707,5.0707,5.0957,5.1774,5.2563,5.3409,5.4376,5.5131,5.5612,5.5689,0.0,0.0,5.8223,0.0,0.0,0.0,0.0,0.0,0.0,6.0806,6.0806,6.0806,6.0806,6.0806,6.0806,6.0806,6.0806,6.0806,6.0806,6.0806,6.0806,6.0806,6.0806,6.0806,0.0,0.0,0.0,6.0429,6.0265,6.0138,5.9466,5.9187,5.9131,5.8823,5.8706,5.8706,0.0,0.0,0.0,0.0,0.0,0.0,3.8952,3.9027,3.9139,3.9486,3.9539,3.9533,3.9546,3.9531,3.9968,0.0,0.0,0.0,0.0,0.0,0.0,0.0,0.0,0.0,0.0,0.0,0.0,0.0,0.0,0.0,0.0,0.0,0.0,0.0,0.0,0.0,0.0,0.0,0.0,0.0,0.0,0.0,0.0,0.0,0.0,0.0,0.0,0.0,4.5594,4.5594,4.5594,4.5594,4.5594,4.5594,4.5763,4.6639,4.7466,4.8293,4.9163,5.0034,5.0707,5.0707,5.0707,5.0707,5.0707,5.0707,5.0707,5.0707,5.0707,5.0707,5.0707,5.0707,5.1149,5.2467,5.2967,5.3664,5.503,5.5497,5.5708,5.5708,5.6016,0.0,0.0,0.0,0.0,0.0,0.0,0.0,0.0,6.0806,6.0806,6.0806,6.0806,6.0806,6.0806,6.0806,6.0806,6.0806,6.0806,6.0806,6.0806,6.0806,6.0806,6.0806,0.0,0.0,0.0,6.0654,6.0475,6.0272,5.9985,5.9595,5.9244,5.9644,5.9621,5.9505,0.0,0.0,0.0,0.0,0.0,3.7826,3.8084,3.812,3.8213,3.8479,3.8494,3.8507,3.85,3.8498,3.8995,4.0225,0.0,0.0,0.0,0.0,0.0,0.0,0.0,0.0,0.0,0.0,0.0,4.1104,0.0,0.0,0.0,0.0,0.0,0.0,0.0,0.0,0.0,0.0,0.0,0.0,0.0,0.0,0.0,0.0,0.0,0.0,0.0,0.0,0.0,0.0,0.0,4.5594,4.5594,4.5594,4.5725,4.6336,4.7101,4.7928,4.8779,4.9649,5.038,5.063,5.0707,5.0707,5.0707,5.0707,5.0707,5.0707,5.0707,5.0707,5.0707,5.0707,5.1246,5.2933,5.3197,5.3799,5.5458,5.5708,5.5708,5.5708,0.0,0.0,0.0,0.0,0.0,0.0,0.0,0.0,0.0,6.0806,6.0806,6.0806,6.0806,6.0806,6.0806,6.0806,6.0806,6.0806,6.0806,6.0806,6.0806,6.1075,6.1172,0.0,0.0,0.0,0.0,6.1531,6.1409,6.1182,6.1081,6.0715,6.0311,6.0708,6.0683,6.0512,0.0,0.0,0.0,0.0,0.0,0.0,3.7079,3.7206,3.7527,3.8388,3.8492,3.85,3.85,3.85,3.8507,3.8524,0.0,0.0,0.0,0.0,0.0,0.0,0.0,0.0,0.0,0.0,4.1094,4.1094,4.1104,4.1109,0.0,0.0,0.0,0.0,0.0,0.0,0.0,0.0,0.0,0.0,0.0,0.0,0.0,0.0,0.0,0.0,0.0,0.0,0.0,0.0,0.0,0.0,0.0,4.5594,4.5594,4.5614,4.622,4.7081,4.7889,4.8759,4.963,5.0476,5.0707,5.0707,5.0707,5.0707,5.0707,5.0707,5.0707,5.0707,5.0707,5.0707,5.1246,5.2933,5.3197,5.3799,5.5458,5.5708,5.5708,0.0,0.0,0.0,0.0,0.0,0.0,0.0,0.0,0.0,0.0,6.0806,6.0806,6.0806,6.0806,6.0806,6.0806,6.0806,6.0806,6.0806,6.0806,6.0806,6.0825,6.1691,0.0,0.0,0.0,0.0,0.0,6.3275,6.3275,6.3245,6.2898,6.2765,6.2684,6.1954,6.1675,6.1626,0.0,0.0,0.0,0.0,0.0,0.0,0.0,3.6302,3.6413,3.6697,3.6711,3.6727,3.6727,3.6727,3.6729,3.6715,0.0,0.0,0.0,0.0,0.0,0.0,0.0,0.0,0.0,0.0,4.1105,4.1094,4.1097,4.1103,4.1109,4.1109,4.1236,0.0,0.0,0.0,0.0,0.0,0.0,0.0,0.0,0.0,0.0,0.0,0.0,0.0,0.0,0.0,0.0,0.0,0.0,0.0,0.0,0.0,0.0,4.5594,4.622,4.7081,4.787,4.874,4.961,5.0476,5.0707,5.0707,5.0707,5.0707,5.0707,5.0707,5.0707,5.0707,5.0707,5.0707,5.1246,5.2933,5.3197,5.3799,5.5458,5.5708,0.0,5.5708,5.6478,0.0,0.0,0.0,0.0,0.0,0.0,0.0,0.0,0.0,6.0806,6.0806,6.0806,6.0806,6.0806,6.0806,6.0806,6.0806,6.0806,6.0806,6.0825,6.1691,0.0,0.0,0.0,0.0,0.0,6.1839,6.1589,6.1583,6.1459,6.1293,6.111,6.1193,6.1072,6.0913,0.0,0.0,0.0,0.0,0.0,0.0,0.0,3.5902,3.5899,3.589,3.591,3.591,3.591,3.591,3.591,3.591,0.0,0.0,0.0,0.0,0.0,0.0,0.0,0.0,0.0,4.0324,4.0761,4.11,4.1104,4.1091,4.1097,4.1097,4.1056,4.094,4.0817,0.0,0.0,0.0,0.0,0.0,0.0,0.0,4.5568,0.0,0.0,0.0,0.0,0.0,0.0,0.0,0.0,0.0,0.0,0.0,0.0,0.0,4.5975,4.6663,4.7793,4.8509,4.9202,5.0399,5.0707,5.0707,5.0707,5.0707,5.0707,5.0707,5.0707,5.0707,5.0707,5.0707,5.1246,5.2933,5.3197,5.3799,5.5458,0.0,0.0,5.6151,0.0,0.0,0.0,0.0,0.0,0.0,0.0,0.0,0.0,0.0,6.0806,6.0806,6.0806,6.0806,6.0806,6.0806,6.0806,6.0806,6.0806,6.0633,6.0339,0.0,0.0,0.0,0.0,0.0,0.0,6.1018,6.0806,6.0806,6.0806,6.0666,6.0525,6.0881,6.0861,6.0735,0.0,0.0,0.0,0.0,0.0,0.0,0.0,0.0,3.591,3.591,3.591,3.591,3.591,3.591,3.591,3.591,0.0,0.0,0.0,0.0,0.0,0.0,0.0,0.0,0.0,3.9742,4.0198,4.1018,4.1068,4.1092,4.1093,4.109,4.0946,4.0718,4.0682,4.0587,4.0441,0.0,0.0,0.0,0.0,0.0,0.0,0.0,0.0,0.0,0.0,0.0,0.0,0.0,0.0,0.0,0.0,0.0,0.0,0.0,0.0,0.0,0.0,4.8062,4.8509,5.0188,5.0649,5.0707,5.0707,5.0707,0.0,5.0707,5.0707,5.0707,5.0707,5.0707,5.1246,5.2933,5.3197,0.0,0.0,5.5708,0.0,0.0,0.0,0.0,0.0,0.0,0.0,0.0,0.0,0.0,0.0,0.0,6.0806,6.0806,6.0748,6.0748,6.0806,6.0806,6.0762,6.0704,6.0704,6.0242,5.9435,0.0,0.0,0.0,0.0,0.0,0.0,6.0646,6.0614,6.0614,6.0614,6.0614,6.0626,6.0734,6.0757,6.0753,0.0,0.0,0.0,0.0,0.0,0.0,0.0,0.0,0.0,0.0,3.591,3.591,3.591,3.591,3.591,0.0,0.0,0.0,0.0,0.0,0.0,0.0,0.0,0.0,0.0,3.9126,3.9895,4.0102,4.0768,4.1104,4.1092,4.1008,4.0918,4.0837,4.0636,4.0469,4.0378,4.1258,0.0,0.0,0.0,0.0,0.0,0.0,0.0,0.0,4.5594,4.5594,0.0,0.0,0.0,0.0,0.0,0.0,0.0,0.0,4.5594,4.5821,4.6889,0.0,4.8355,4.9433,5.0207,5.0707,0.0,5.0707,5.0707,5.0707,5.0707,5.0707,5.0707,5.0707,5.1246,5.2933,0.0,5.3799,5.5458,0.0,0.0,0.0,0.0,0.0,0.0,0.0,0.0,0.0,0.0,0.0,0.0,0.0,6.0806,6.0806,6.0146,6.0127,6.0787,6.0806,6.0473,5.9819,5.9819,5.9377,5.8607,0.0,0.0,0.0,0.0,0.0,5.9762,5.9146,5.8896,5.8896,5.8896,5.8896,5.8856,5.8581,5.8353,5.8127,0.0,0.0,0.0,0.0,0.0,0.0,0.0,0.0,0.0,0.0,0.0,0.0,0.0,0.0,0.0,0.0,0.0,0.0,0.0,0.0,0.0,0.0,0.0,3.6785,3.7194,3.8519,3.94,3.9799,4.0676,4.1107,4.1094,4.0966,4.0878,4.0792,4.0534,4.0364,4.0328,4.0802,4.1494,0.0,4.323,0.0,0.0,0.0,0.0,0.0,4.5568,4.5573,0.0,4.5594,4.5594,4.5594,0.0,0.0,0.0,0.0,4.5594,4.5706,4.6182,4.7182,4.8312,4.9183,5.0053,5.0707,5.0707,5.0707,5.0707,5.0707,5.0707,5.0707,5.0707,5.0707,5.1246,0.0,5.3197,0.0,0.0,0.0,5.5708,0.0,0.0,0.0,0.0,0.0,0.0,0.0,0.0,0.0,0.0,0.0,5.9646,5.9646,5.9204,5.9358,6.0204,5.9838,5.9415,5.8954,5.8954,5.8511,5.7728,0.0,0.0,0.0,0.0,0.0,5.7723,5.728,5.7107,5.7107,5.7107,5.7107,5.7112,5.713,5.6954,5.6688,0.0,0.0,0.0,0.0,0.0,0.0,0.0,0.0,0.0,0.0,0.0,0.0,0.0,0.0,0.0,0.0,0.0,0.0,0.0,0.0,0.0,0.0,0.0,3.6294,3.716,3.8046,3.8922,3.9768,4.0656,4.1109,4.1107,4.0937,4.0796,4.0622,4.0392,4.0306,4.0306,4.0306,4.0764,4.1581,4.2513,0.0,0.0,0.0,0.0,0.0,0.0,0.0,0.0,4.5586,4.5586,4.5594,4.5594,0.0,0.0,0.0,0.0,0.0,4.5594,4.6721,4.812,4.899,4.9861,5.0534,5.0668,5.0707,5.0707,5.0707,5.0707,5.0707,5.0707,5.0707,5.1246,0.0,0.0,0.0,5.5497,5.5708,0.0,0.0,0.0,0.0,0.0,0.0,0.0,0.0,0.0,0.0,0.0,0.0,0.0,5.8294,5.8165,5.8434,5.9108,5.8569,5.8223,5.8107,5.8107,5.7646,5.6805,5.6805,0.0,0.0,0.0,0.0,5.5708,5.5708,5.5708,5.5708,5.5708,5.5708,5.5758,5.6204,5.6132,5.5878,0.0,0.0,0.0,0.0,0.0,0.0,0.0,0.0,0.0,0.0,0.0,0.0,0.0,0.0,0.0,0.0,0.0,0.0,0.0,0.0,0.0,3.591,3.591,3.625,3.7016,3.8001,3.8879,3.9624,4.0611,4.1109,4.1086,4.0846,4.0607,4.0354,4.031,4.0306,4.0306,4.0306,4.0764,4.1581,4.2451,0.0,0.0,0.0,0.0,0.0,0.0,0.0,0.0,4.5527,4.5559,4.5594,4.5594,0.0,0.0,0.0,0.0,0.0,4.5594,4.6336,4.7274,4.8101,4.8952,4.9784,5.0534,5.0707,5.0707,5.0707,5.0707,5.0707,5.0707,5.0707,5.1246,0.0,0.0,0.0,0.0,0.0,0.0,0.0,0.0,0.0,0.0,0.0,0.0,0.0,0.0,0.0,0.0,0.0,0.0,5.8294,5.7574,5.7267,5.7382,5.7992,5.7934,5.7209,5.7209,5.6747,5.5901,5.5901,5.5824,0.0,0.0,5.5708,5.5708,5.5708,5.5708,5.5708,5.5708,5.5708,5.5703,5.58,5.546,5.5011,0.0,0.0,0.0,0.0,0.0,0.0,0.0,0.0,0.0,0.0,0.0,0.0,0.0,0.0,0.0,0.0,0.0,0.0,0.0,0.0,0.0,3.6473,3.649,3.6689,3.7104,3.8402,3.9299,3.9713,4.0645,4.105,4.0986,4.0712,4.0492,4.0306,4.0306,4.0306,4.0306,4.0306,4.0516,4.096,0.0,0.0,0.0,0.0,0.0,0.0,0.0,0.0,0.0,0.0,4.5573,4.5594,4.5594,0.0,0.0,0.0,0.0,0.0,4.5594,4.5898,4.649,4.7774,4.8759,4.963,5.0495,5.0707,5.0707,5.0707,5.0707,5.0707,5.0707,5.0707,5.1246,5.2933,0.0,0.0,0.0,0.0,0.0,0.0,0.0,0.0,0.0,0.0,0.0,0.0,0.0,0.0,0.0,0.0,0.0,0.0,5.6516,5.6305,5.6305,5.6684,5.6684,5.6305,5.6305,5.6093,5.5708,5.5708,5.5708,5.5708,0.0,5.5708,5.5708,5.5708,5.5708,5.5708,5.5708,5.5708,5.5657,5.5326,5.4926,5.4511,0.0,0.0,0.0,0.0,0.0,0.0,0.0,0.0,0.0,0.0,0.0,0.0,0.0,0.0,0.0,0.0,0.0,0.0,0.0,0.0,3.6395,3.6922,3.7344,3.7616,3.7706,3.8946,3.9755,4.0052,4.075,4.1023,4.0849,4.0639,4.0456,4.0306,4.0306,4.0306,4.0306,4.0306,4.042,4.0707,0.0,0.0,0.0,0.0,0.0,0.0,0.0,0.0,0.0,0.0,0.0,0.0,0.0,0.0,0.0,4.5594,4.5594,4.5594,4.5594,4.5594,4.5994,4.7682,4.8606,4.9375,5.0457,5.0707,5.0707,5.0707,5.0707,5.0707,5.0707,5.0842,0.0,5.2972,0.0,0.0,0.0,0.0,0.0,0.0,0.0,0.0,0.0,0.0,0.0,0.0,0.0,0.0,0.0,0.0,0.0,0.0,5.5708,5.5708,5.5708,5.5708,5.5708,5.5708,5.5708,5.5708,5.5708,5.5708,5.5708,5.5708,5.5708,5.5708,5.5708,5.5708,5.5708,5.5708,5.5708,5.5708,5.5629,5.503,5.4639,5.4347,0.0,0.0,0.0,0.0,0.0,0.0,0.0,0.0,0.0,0.0,0.0,0.0,0.0,0.0,0.0,0.0,0.0,0.0,0.0,0.0,3.6881,3.6826,3.8353,3.9233,3.9242,3.9478,3.9994,4.082,4.1018,4.0973,4.0709,4.0691,4.0546,4.0306,4.0306,4.0306,4.0306,4.0306,4.0726,4.15,4.2431,0.0,0.0,0.0,0.0,0.0,0.0,0.0,0.0,0.0,0.0,0.0,0.0,0.0,4.5594,4.5594,4.5594,4.5594,4.5594,4.5594,4.5994,4.7682,4.8139,4.8625,5.0322,5.0707,5.0707,5.0707,5.0707,5.0707,5.0707,5.1318,5.212,5.3044,0.0,0.0,0.0,0.0,0.0,0.0,0.0,0.0,0.0,0.0,0.0,0.0,0.0,0.0,0.0,0.0,0.0,0.0,0.0,5.5708,5.5708,5.5708,5.5708,5.5708,5.5708,5.5708,5.5708,5.5708,5.5708,5.5708,5.5708,5.5708,5.5708,5.5708,5.5708,5.5708,5.5708,5.5708,5.5629,5.503,5.4784,5.467,0.0,0.0,0.0,0.0,0.0,0.0,0.0,0.0,0.0,0.0,0.0,0.0,0.0,0.0,0.0,0.0,0.0,0.0,0.0,3.6818,3.738,3.8255,3.8994,3.9602,4.0077,4.0292,4.0604,4.1029,4.0914,4.077,4.0563,4.0496,4.0407,4.0306,4.0306,4.0306,4.0325,4.0826,4.1227,4.1614,4.298,4.3745,0.0,0.0,0.0,0.0,0.0,0.0,0.0,0.0,4.5577,4.5594,4.5594,4.5594,4.5594,4.5594,4.5594,4.5594,4.5594,4.5594,4.5994,4.7682,4.8101,4.8567,5.0303,5.0707,5.0707,5.0707,5.0707,5.0707,5.0707,0.0,5.1606,0.0,0.0,0.0,0.0,0.0,0.0,0.0,0.0,0.0,0.0,0.0,0.0,0.0,0.0,0.0,0.0,0.0,0.0,0.0,0.0,5.5708,5.5708,5.5708,5.5708,5.5708,5.5708,5.5708,5.5708,5.5708,5.5708,5.5708,5.5708,5.5708,5.5708,5.5708,5.5708,5.5708,5.5708,5.5466,5.5119,5.4887,5.4536,5.4133,0.0,0.0,0.0,0.0,0.0,0.0,0.0,0.0,0.0,0.0,0.0,0.0,0.0,0.0,0.0,0.0,0.0,0.0,3.6868,3.7146,3.7863,3.9142,3.9589,4.0047,4.0552,4.0774,4.0926,4.0978,4.0798,4.0626,4.0492,4.0405,4.0346,4.0306,4.0301,4.0444,4.0754,4.1327,4.1872,4.2446,4.3603,4.424,0.0,0.0,0.0,0.0,0.0,0.0,0.0,0.0,4.5594,4.5594,4.5594,4.5594,4.5594,4.5594,4.5594,4.5594,4.5594,4.5594,4.5994,4.7682,4.8101,4.8567,5.0303,5.0707,5.0707,5.0707,5.0707,5.0707,5.0707,0.0,0.0,0.0,0.0,0.0,0.0,0.0,0.0,0.0,0.0,0.0,0.0,0.0,0.0,0.0,0.0,0.0,0.0,0.0,0.0,0.0,0.0,0.0,5.5708,5.5708,5.5708,5.5708,5.5708,5.5708,5.5708,5.5708,5.5708,5.5708,5.5708,5.5708,5.5708,5.5708,5.5708,5.5708,5.5708,5.5442,5.5078,5.4988,5.4607,5.4107,0.0,0.0,0.0,0.0,0.0,0.0,0.0,0.0,0.0,0.0,0.0,0.0,0.0,0.0,0.0,0.0,0.0,0.0,3.6675,3.7473,3.8304,3.9161,4.0178,4.0694,4.0694,4.0831,4.0833,4.0694,4.0694,4.0626,4.0492,4.0492,4.0434,4.0306,4.0304,4.0809,4.1622,4.1682,4.2678,4.4211,4.4211,4.4691,4.541,0.0,0.0,0.0,0.0,0.0,0.0,0.0,4.5594,4.5594,4.5594,4.5594,4.5594,4.5594,4.5594,4.5594,4.5594,4.5594,4.5994,4.7682,4.8101,4.8567,5.0303,5.0707,5.0707,5.0707,5.0707,5.0707,5.0707,5.0707,0.0,0.0,0.0,0.0,0.0,0.0,0.0,0.0,0.0,0.0,0.0,0.0,0.0,0.0,0.0,0.0,0.0,0.0,0.0,0.0,0.0,0.0,5.5708,5.5708,5.5708,5.5708,5.5708,5.5708,5.5708,5.5708,5.5708,5.5708,5.5708,5.5708,5.5708,5.5708,5.5708,5.5708,5.5708,5.5703,5.5657,5.5395,5.509,5.4754,0.0,0.0,0.0,0.0,0.0,0.0,0.0,0.0,0.0,0.0,0.0,0.0,0.0,0.0,0.0,0.0,0.0,0.0,3.7504,3.8423,3.9255,3.9942,4.0447,4.0602,4.0422,4.0467,4.0492,4.0568,4.0568,4.05,4.0354,4.0354,4.0671,4.1212,4.1207,4.1675,4.2494,4.3116,4.3676,4.4173,4.4791,4.5223,4.5462,0.0,0.0,0.0,0.0,0.0,0.0,0.0,0.0,0.0,4.5594,4.5594,4.5594,4.5594,4.5594,4.5594,4.5594,4.5594,4.5994,4.7682,4.8101,4.8567,5.0303,5.0707,5.0707,5.0707,5.0707,5.0707,5.0707,0.0,0.0,0.0,0.0,0.0,0.0,0.0,0.0,0.0,0.0,0.0,0.0,0.0,0.0,0.0,0.0,0.0,0.0,0.0,0.0,0.0,0.0,0.0,5.5708,5.5708,5.5708,5.5708,5.5708,5.5708,5.5708,5.5708,5.5708,5.5708,5.5708,5.5708,5.5708,5.5708,5.5708,5.5708,5.5708,5.5585,5.5407,5.5326,5.509,5.4784,0.0,0.0,0.0,0.0,0.0,0.0,0.0,0.0,0.0,0.0,3.5795,0.0,0.0,0.0,0.0,0.0,0.0,0.0,0.0,3.8741,3.9619,4.0418,4.0568,4.0546,4.037,4.0328,4.0499,4.091,4.0579,4.0538,4.0788,4.0807,4.1279,4.2077,4.2123,4.2616,4.3435,4.3967,4.4379,4.4743,4.5266,4.5495,4.555,0.0,0.0,0.0,0.0,0.0,0.0,0.0,0.0,0.0,4.5594,4.5594,4.5594,4.5594,4.5594,4.5594,4.5594,4.5594,4.5994,4.7682,4.8101,4.8567,5.0303,5.0707,5.0707,5.0707,5.0707,5.0707,5.0707,5.0707,0.0,0.0,0.0,0.0,0.0,0.0,0.0,0.0,0.0,0.0,0.0,0.0,0.0,0.0,0.0,0.0,0.0,0.0,0.0,0.0,0.0,0.0,5.5708,5.5708,5.5708,5.5708,5.5708,5.5708,5.5708,5.5708,5.5708,5.5708,5.5708,5.5708,5.5708,5.5708,5.5708,5.5708,5.5708,5.5602,5.5455,5.5455,5.5263,5.5007,0.0,0.0,0.0,0.0,0.0,0.0,0.0,0.0,0.0,0.0,3.5791,3.5801,0.0,0.0,0.0,0.0,0.0,0.0,0.0,0.0,3.9586,4.063,4.0549,4.0473,4.0473,4.044,4.0764,4.15,4.0764,4.0821,4.1614,4.1671,4.2154,4.2924,4.3063,4.3602,4.4404,4.441,4.487,4.5586,4.5586,4.559,4.5594,4.5594,0.0,0.0,0.0,0.0,0.0,0.0,0.0,0.0,4.5594,4.5594,4.5594,4.5594,4.5594,4.5594,4.5594,4.5594,4.5994,4.7682,4.8216,4.8759,5.0341,5.0707,5.0707,5.0707,0.0,5.0707,5.0707,0.0,0.0,0.0,0.0,0.0,0.0,0.0,0.0,0.0,0.0,0.0,0.0,0.0,0.0,0.0,0.0,0.0,0.0,0.0,0.0,0.0,0.0,0.0,5.5708,5.5708,5.5708,0.0,5.5708,5.5708,5.5708,5.5708,5.5708,5.5708,5.5708,5.5708,5.5708,5.5708,5.5708,5.5708,5.5708,5.5708,5.5708,5.5708,5.5556,5.5333,0.0,0.0,0.0,0.0,0.0,0.0,0.0,0.0,0.0,0.0,0.0,0.0,0.0,0.0,0.0,0.0,0.0,0.0,0.0,0.0,4.0236,4.0375,4.0354,4.0332,4.0332,4.0926,4.1328,4.15,4.1328,4.1686,4.2526,4.2546,4.3029,4.3891,4.3974,4.4481,4.523,4.5244,4.5345,4.5517,4.5517,4.5559,4.5594,4.5594,4.5594,0.0,0.0,0.0,0.0,0.0,0.0,0.0,4.5594,4.5594,4.5594,4.5594,4.5594,4.5594,4.5594,4.5594,4.5994,4.7682,4.9125,5.0245,5.0611,5.0707,5.0707,5.0707,5.0707,5.0707,0.0,0.0,0.0,0.0,0.0,0.0,0.0,0.0,0.0,0.0,0.0,0.0,0.0,0.0,0.0,0.0,0.0,0.0,0.0,0.0,0.0,0.0,0.0,5.5708,5.5708,5.5708,5.5708,0.0,5.5708,5.5708,5.5708,5.5708,5.5708,5.5708,5.5708,5.5708,5.5708,5.5708,5.5708,5.5708,5.5708,5.5708,5.5708,5.5708,5.5657,5.5613,0.0,0.0,0.0,0.0,0.0,0.0,0.0,0.0,0.0,0.0,0.0,0.0,0.0,0.0,0.0,0.0,0.0,0.0,0.0,0.0,4.0376,4.031,4.0306,4.0478,4.0864,4.1289,4.1896,4.2698,4.2723,4.2986,4.3421,4.346,4.3953,4.4829,4.4898,4.5151,4.5555,4.5555,4.5555,4.5555,4.5555,4.5568,4.5594,4.5594,4.5594,4.5594,4.5594,0.0,0.0,0.0,0.0,0.0,0.0,0.0,4.5594,4.5594,4.5594,4.5594,4.5594,4.5898,4.6624,4.8298,4.9726,5.0707,5.0707,5.0707,5.0707,5.0707,5.0707,0.0,0.0,0.0,0.0,0.0,0.0,0.0,0.0,0.0,0.0,0.0,0.0,0.0,0.0,0.0,0.0,0.0,0.0,0.0,0.0,0.0,0.0,0.0,5.5708,5.5708,5.5708,5.5708,5.5708,5.5708,5.5708,5.5708,5.5708,5.5708,5.5708,5.5708,5.5708,5.5708,5.5708,5.5708,5.5708,5.5708,5.5708,5.5708,5.5708,5.5708,5.5708,5.5708,0.0,0.0,0.0,0.0,0.0,0.0,0.0,0.0,0.0,0.0,0.0,0.0,0.0,0.0,0.0,0.0,0.0,0.0,0.0,0.0,0.0,4.0306,4.0306,4.0688,4.148,4.1652,4.2474,4.4022,4.4225,4.4331,4.4331,4.4394,4.4805,4.5504,4.5573,4.5594,4.5594,4.5594,4.5594,4.5594,4.5594,4.5594,4.5594,4.5594,4.5594,4.5594,4.5594,4.5594,4.5594,4.5594,0.0,0.0,0.0,0.0,4.5594,4.5594,4.5594,4.5594,4.5594,4.6336,4.7485,4.9029,5.0053,5.0707,5.0707,5.0707,5.0707,5.0707,5.0707,0.0,0.0,0.0,0.0,0.0,0.0,0.0,0.0,0.0,0.0,0.0,0.0,0.0,0.0,0.0,0.0,0.0,0.0,0.0,0.0,0.0,5.5708,5.5708,5.5708,5.5708,5.5708,5.5708,5.5708,5.5708,5.5708,5.5708,5.5708,5.5708,5.5708,5.5708,5.5708,5.5708,5.5708,5.5708,5.5708,5.5708,5.5708,5.5708,5.5708,5.5708,5.5708,5.5708,0.0,0.0,0.0,0.0,0.0,0.0,0.0,0.0,0.0,0.0,0.0,0.0,0.0,0.0,0.0,0.0,0.0,0.0,0.0,0.0,0.0,4.0306,4.0306,4.0688,4.148,4.224,4.31,4.4101,4.4843,4.5261,4.5308,4.5313,4.5399,4.5504,4.5573,4.5594,4.5594,4.5594,4.5594,4.5594,4.5594,4.5594,4.5594,4.5594,4.5594,4.5594,4.5594,4.5594,4.5594,4.5594,4.5594,0.0,0.0,0.0,4.5594,4.5594,4.5594,4.5594,4.5594,4.674,4.8159,4.9163,5.0053,5.0707,5.0707,5.0707,5.0707,0.0,0.0,0.0,0.0,0.0,0.0,0.0,0.0,0.0,0.0,0.0,0.0,0.0,0.0,0.0,0.0,0.0,0.0,0.0,0.0,0.0,0.0,5.5708,5.5708,5.5708,5.5708,5.5708,5.5708,5.5708,5.5708,5.5708,5.5708,5.5708,5.5708,5.5708,5.5708,5.5708,5.5708,5.5708,5.5708,5.5708,5.5708,5.5708,5.5708,5.5708,5.5708,5.5708,5.5708,5.5708,0.0,0.0,0.0,0.0,0.0,0.0,0.0,0.0,0.0,0.0,0.0,0.0,0.0,0.0,0.0,0.0,0.0,0.0,0.0,0.0,0.0,4.0306,4.0726,4.1361,4.2202,4.3056,4.3927,4.4824,4.5203,4.5429,4.5499,4.555,4.5559,4.5564,4.5581,4.5594,4.5594,4.5594,4.5594,4.5594,4.5594,4.5594,4.5594,4.5594,4.5594,4.5594,4.5594,4.5594,4.5594,4.5594,4.5594,4.5594,4.5594,0.0,0.0,0.0,4.5594,4.5802,4.6744,4.7548,4.8432,4.9784,5.0418,5.0707,5.0707,5.0707,5.0707,5.0707,0.0,0.0,0.0,0.0,0.0,0.0,0.0,0.0,0.0,0.0,0.0,0.0,0.0,0.0,0.0,0.0,0.0,0.0,0.0,0.0,5.5708,5.5708,5.5708,5.5708,5.5708,0.0,5.5708,5.5708,5.5708,5.5708,5.5708,5.5708,5.5708,5.5708,5.5708,5.5708,5.5708,5.5708,5.5708,5.5708,5.5708,5.5708,5.5708,5.5708,5.5708,5.5708,5.5708,5.5708,0.0,0.0,0.0,0.0,0.0,0.0,0.0,0.0,0.0,0.0,0.0,0.0,0.0,0.0,0.0,0.0,0.0,0.0,0.0,0.0,0.0,4.0592,4.117,4.1991,4.3075,4.3716,4.4483,4.5404,4.5419,4.5452,4.5522,4.5577,4.5594,4.5594,4.5594,4.5594,4.5594,4.5594,4.5594,4.5594,4.5594,4.5594,4.5594,4.5594,4.5594,4.5594,4.5594,4.5594,0.0,0.0,0.0,0.0,0.0,0.0,0.0,0.0,0.0,4.6244,4.7702,4.8255,4.8798,5.0322,5.0707,5.0707,5.0707,0.0,5.0707,0.0,0.0,0.0,0.0,0.0,0.0,0.0,0.0,0.0,0.0,0.0,0.0,0.0,0.0,0.0,0.0,0.0,0.0,0.0,0.0,0.0,5.5708,5.5708,5.5708,5.5708,5.5708,5.5708,5.5708,5.5708,5.5708,5.5708,5.5708,5.5708,5.5708,5.5708,5.5708,5.5708,5.5708,5.5708,5.5708,5.5708,5.5708,5.5708,5.5708,5.5708,5.5708,5.5708,5.5708,5.5708,0.0,0.0,0.0,0.0,0.0,0.0,0.0,0.0,0.0,0.0,0.0,0.0,3.5205,3.595,3.6772,3.764,0.0,0.0,0.0,0.0,0.0,4.1404,4.148,0.0,4.3892,4.4043,4.4518,4.54,4.5452,4.5522,4.559,4.559,4.5594,4.5594,4.5594,4.5594,4.5594,4.5594,4.5594,4.5594,4.5594,4.5594,4.5594,4.5594,4.5594,4.5594,4.5594,0.0,0.0,0.0,0.0,0.0,0.0,0.0,4.5594,0.0,0.0,0.0,4.787,4.8702,4.9553,5.0476,5.0707,5.0707,5.0707,0.0,0.0,0.0,0.0,0.0,0.0,0.0,0.0,0.0,0.0,0.0,0.0,0.0,0.0,0.0,0.0,0.0,0.0,0.0,0.0,0.0,0.0,0.0,5.5708,5.5708,5.5708,5.5708,5.5708,5.5708,5.5708,5.5708,5.5708,5.5708,5.5708,5.5708,5.5708,5.5708,5.5708,5.5708,5.5708,5.5708,5.5708,5.5708,5.5708,5.5708,5.5708,5.5708,5.5708,5.5708,5.5708,5.5708,0.0,0.0,0.0,0.0,0.0,0.0,0.0,0.0,0.0,0.0,0.0,0.0,0.0,3.5984,3.6829,3.7636,3.9011,0.0,0.0,0.0,0.0,4.15,4.2526,4.3415,4.4043,4.4642,4.5117,4.5452,4.549,4.5527,4.5594,4.5594,4.5594,4.5594,4.5594,4.5594,4.5594,4.5594,4.5594,4.5594,4.5594,4.5594,4.5594,4.5594,4.5594,0.0,0.0,0.0,0.0,0.0,0.0,0.0,0.0,0.0,0.0,4.5594,4.622,4.7081,4.787,4.874,4.961,5.0476,5.0707,5.0707,5.0707,5.0707,5.0707,0.0,0.0,0.0,0.0,0.0,0.0,0.0,0.0,0.0,0.0,0.0,0.0,0.0,0.0,0.0,0.0,0.0,0.0,0.0,0.0,0.0,5.5708,5.5708,5.5708,5.5708,5.5708,5.5708,5.5708,5.5708,5.5708,5.5708,5.5708,5.5708,5.5708,5.5708,5.5708,5.5708,5.5708,5.5708,5.5708,5.5708,5.5708,5.5708,5.5708,5.5708,5.5708,5.5708,5.5708,5.5708,0.0,0.0,0.0,0.0,0.0,0.0,0.0,0.0,0.0,3.554,0.0,0.0,0.0,0.0,3.7438,3.851,3.9668,4.0467,4.0758,4.1279,4.1819,4.2374,4.3474,4.4216,4.4523,4.5122,4.5453,4.5499,4.5517,4.5559,4.5594,4.5594,4.5594,4.5594,4.5594,4.5594,4.5594,4.5594,4.5594,4.5594,4.5594,4.5594,4.5594,0.0,0.0,0.0,0.0,0.0,0.0,0.0,0.0,0.0,0.0,0.0,0.0,0.0,4.6413,4.7428,4.7947,4.8952,4.9976,5.0553,5.0707,5.0707,5.0707,0.0,0.0,0.0,0.0,0.0,0.0,0.0,0.0,0.0,0.0,0.0,0.0,0.0,0.0,0.0,0.0,0.0,0.0,0.0,0.0,0.0,0.0,0.0,5.5708,5.5708,5.5708,5.5708,5.5708,5.5708,5.5708,5.5708,5.5708,5.5708,5.5708,5.5708,5.5708,5.5708,5.5708,5.5708,5.5708,5.5708,5.5708,5.5708,5.5708,5.5708,5.5708,5.5708,5.5708,5.5708,5.5708,5.5708,0.0,0.0,0.0,0.0,0.0,0.0,0.0,0.0,3.5633,3.5448,0.0,0.0,0.0,0.0,0.0,4.0266,4.0407,4.0775,4.1642,4.1719,4.2467,4.4135,0.0,0.0,4.5386,4.5476,4.5499,4.5504,4.5568,4.5594,4.5594,4.5594,4.5594,4.5594,4.5594,4.5594,4.5594,4.5594,4.5594,4.5594,0.0,4.5594,4.5594,0.0,0.0,0.0,4.5594,4.5594,0.0,4.5594,0.0,0.0,0.0,0.0,0.0,0.0,0.0,4.8101,0.0,0.0,0.0,5.0707,5.0707,5.0707,5.0707,0.0,0.0,0.0,0.0,0.0,0.0,0.0,0.0,0.0,0.0,0.0,0.0,0.0,0.0,0.0,0.0,0.0,0.0,0.0,0.0,0.0,0.0,5.5708,5.5708,5.5708,5.5708,5.5708,5.5708,5.5708,5.5708,5.5708,5.5708,5.5708,5.5708,5.5708,5.5708,5.5708,5.5708,5.5708,5.5708,5.5708,5.5708,5.5708,5.5708,5.5708,5.5708,5.5708,5.5708,5.5708,5.5708,5.5708,0.0,0.0,0.0,0.0,0.0,0.0,3.5418,3.562,3.5707,0.0,0.0,0.0,3.6811,3.8092,3.9337,4.0305,4.0407,4.0775,4.1642,4.2241,4.3066,4.4154,4.4767,4.5189,4.5481,4.5495,4.5517,4.5573,4.5586,4.5594,4.5594,4.5594,4.5594,4.5594,4.5594,4.5594,4.5594,4.5594,4.5594,4.5594,4.5594,4.5594,0.0,0.0,0.0,0.0,0.0,4.5594,4.5594,0.0,4.5594,4.5594,0.0,0.0,0.0,0.0,0.0,4.8101,4.8101,0.0,0.0,0.0,0.0,0.0,0.0,0.0,0.0,0.0,0.0,0.0,0.0,0.0,0.0,0.0,0.0,0.0,0.0,0.0,0.0,0.0,0.0,0.0,0.0,0.0,0.0,0.0,5.5708,5.5708,5.5708,5.5708,5.5708,5.5708,5.5708,5.5708,5.5708,5.5708,5.5708,5.5708,5.5708,5.5708,5.5708,5.5708,5.5708,5.5708,5.5708,5.5708,5.5708,5.5708,5.5708,5.5708,5.5708,5.5708,5.5708,5.5708,5.5708,5.5708,0.0,0.0,0.0,0.0,0.0,3.5307,3.5819,3.5828,3.5797,0.0,0.0,0.0,3.7991,3.9181,4.0085,4.0492,4.0814,4.1349,4.2241,4.3047,4.3873,4.4756,4.5236,4.5504,4.5531,4.5531,4.5564,4.5594,4.5594,4.5594,4.5594,4.5594,4.5594,4.5594,4.5594,4.5594,4.5594,4.5594,0.0,0.0,4.5594,0.0,0.0,4.5594,4.5594,0.0,0.0,0.0,4.5594,4.5594,4.5594,0.0,0.0,0.0,0.0,0.0,0.0,4.8101,4.8101,4.9375,5.0707,0.0,0.0,0.0,5.0707,5.0707,0.0,0.0,0.0,0.0,0.0,0.0,0.0,0.0,0.0,0.0,0.0,0.0,0.0,0.0,0.0,0.0,0.0,0.0,0.0,0.0,5.5708,5.5708,5.5708,5.5708,5.5708,5.5708,5.5708,5.5708,5.5708,5.5708,5.5708,5.5708,5.5708,5.5708,5.5708,5.5708,5.5708,5.5708,5.5708,5.5708,5.5708,5.5708,5.5708,5.5708,5.5708,5.5708,5.5708,5.5708,5.5708,5.5708,0.0,0.0,0.0,3.4724,3.5385,3.5897,3.5909,3.5911,3.5919,0.0,3.6862,3.8083,3.9672,4.0435,4.084,4.0825,4.1422,4.2217,4.3162,4.3893,4.4686,4.5556,4.5594,4.5594,4.5594,4.5594,4.5594,4.5594,4.5594,4.5594,4.5594,4.5594,4.5594,4.5594,4.5594,4.5594,4.5594,4.5594,0.0,4.5594,4.5594,4.5594,0.0,0.0,4.5599,4.5603,4.5607,4.5607,4.5607,4.5607,4.5607,0.0,0.0,0.0,0.0,0.0,4.6855,4.812,4.8216,4.9452,5.0707,0.0,0.0,0.0,5.0707,5.0707,5.0707,0.0,0.0,0.0,0.0,0.0,0.0,0.0,0.0,0.0,0.0,0.0,0.0,0.0,0.0,0.0,0.0,0.0,5.4799,5.5516,5.5651,5.5708,5.5708,5.5708,5.5708,5.5708,5.5708,5.5708,5.5708,5.5708,5.5708,5.5708,5.5708,5.5708,5.5708,5.5708,5.5708,5.5708,5.5708,5.5708,5.5708,5.5708,5.5708,5.5708,5.5708,5.5708,5.5708,5.5708,5.5708,5.5708,0.0,0.0,3.4822,3.5515,3.5789,3.5929,3.5961,3.5981,3.6237,3.6924,3.8343,3.9663,4.0643,4.086,4.1144,4.1622,4.1809,4.2493,4.3959,4.4201,4.4686,4.5556,4.5594,4.5594,4.5594,4.5594,4.5594,4.5594,4.5594,4.5594,4.5594,4.5594,4.5594,4.5594,4.5594,4.5594,4.5594,0.0,0.0,4.5594,4.5594,0.0,4.5618,4.5652,4.5688,4.5673,4.5687,4.568,4.568,0.0,4.568,4.5676,0.0,0.0,0.0,0.0,0.0,0.0,0.0,0.0,0.0,0.0,0.0,0.0,5.0707,5.0707,5.0707,0.0,0.0,0.0,0.0,0.0,0.0,0.0,0.0,0.0,0.0,0.0,0.0,0.0,0.0,0.0,0.0,0.0,5.4568,5.4722,5.5324,5.5708,5.5708,5.5708,5.5708,5.5708,5.5708,5.5708,5.5708,5.5708,5.5708,5.5708,5.5708,5.5708,5.5708,5.5708,5.5708,5.5708,5.5708,5.5708,5.5708,5.5708,5.5708,5.5708,5.5708,5.5708,5.5708,5.5708,5.5708,5.5708,3.4555,3.4965,3.5398,3.5877,3.5958,3.5961,3.5991,3.6364,3.6817,3.7236,3.8763,4.0124,4.0962,4.1403,4.1763,4.2065,4.2764,4.3548,4.4361,4.4736,4.5148,4.5575,4.5594,4.5594,4.5594,4.5594,4.5594,4.5594,4.5594,4.5594,4.5594,4.5594,4.5594,4.5594,4.5594,4.5594,4.5594,0.0,4.5594,4.5594,4.564,0.0,4.5652,4.5698,4.5695,4.5695,4.57,4.5704,4.5708,4.575,4.5723,0.0,0.0,4.573,4.5856,0.0,4.7483,4.8325,0.0,0.0,0.0,5.0707,0.0,0.0,0.0,5.0707,5.0707,5.0707,0.0,0.0,0.0,0.0,0.0,0.0,0.0,0.0,0.0,0.0,0.0,0.0,0.0,0.0,0.0,0.0,5.3568,5.4434,5.5247,5.5708,5.5708,5.5708,5.5708,5.5708,5.5708,5.5708,5.5708,5.5708,5.5708,5.5708,5.5708,5.5708,5.5708,5.5708,5.5708,5.5708,5.5708,5.5708,5.5708,5.5708,5.5708,5.5708,5.5708,5.5708,5.5708,5.5708,5.5708,5.5673,3.4914,3.5441,3.5914,3.5986,3.6007,3.607,3.6215,3.6842,3.7412,3.775,3.9117,4.0327,4.1011,4.1822,4.2379,4.2523,4.3778,4.4601,4.4737,0.0,0.0,4.5594,4.5594,4.5594,4.5594,4.5594,4.5594,4.5594,4.5594,4.5594,4.5594,4.5594,4.5594,4.5594,4.5603,4.5603,4.5594,0.0,0.0,4.5639,0.0,4.5682,4.5673,4.5707,4.5704,4.5708,4.5704,4.5712,4.5735,4.5788,0.0,4.5723,4.5777,4.5874,0.0,0.0,0.0,0.0,0.0,0.0,0.0,0.0,0.0,5.0707,0.0,0.0,0.0,5.0707,0.0,0.0,0.0,0.0,0.0,0.0,0.0,0.0,0.0,0.0,0.0,0.0,0.0,0.0,0.0,0.0,5.2544,5.4126,5.5011,5.5478,5.5478,5.5612,5.5708,5.5708,5.5708,5.5708,5.5708,5.5708,5.5708,5.5708,5.5708,5.5708,5.5708,5.5708,5.5708,5.5708,5.5708,5.5708,5.5708,5.5708,5.5708,5.5708,5.5708,5.5708,5.5708,5.5708,5.5708,5.5662,3.5753,3.5831,3.5916,3.5995,3.5998,3.6255,3.7025,3.7241,3.7828,3.9311,4.0347,4.0991,4.109,4.1873,4.2643,4.3317,0.0,0.0,4.5619,0.0,4.5714,4.5603,4.5594,4.5594,4.5594,4.5594,4.5594,4.5594,4.5594,4.5594,4.5594,4.5594,4.5594,4.5594,4.5657,4.5652,4.5594,0.0,4.5723,0.0,4.5723,4.5651,0.0,4.5676,4.5704,4.5715,4.5768,4.5793,4.5793,0.0,4.5794,4.5781,0.0,4.6279,4.7007,0.0,0.0,0.0,0.0,0.0,0.0,0.0,5.0707,0.0,0.0,0.0,5.0707,5.0707,0.0,5.0707,5.0707,0.0,0.0,0.0,0.0,0.0,0.0,0.0,0.0,0.0,0.0,0.0,0.0,0.0,0.0,5.3274,5.4145,5.4645,5.4645,5.5304,5.5708,5.5708,5.5708,5.5708,5.5708,5.5708,5.5708,5.5708,5.5708,5.5708,5.5708,5.5708,5.5708,5.5708,5.5708,5.5708,5.5708,5.5708,5.5708,5.5708,5.5708,5.5708,5.5708,5.5708,5.5708,5.5703,3.5959,3.5964,3.5972,3.6005,3.6417,3.6888,3.7242,3.8121,3.9175,4.0406,4.1303,4.1849,0.0,0.0,0.0,0.0,0.0,4.567,0.0,0.0,4.5835,4.5786,0.0,0.0,0.0,4.5727,4.5676,4.5594,4.5594,4.5594,4.5594,4.5594,4.5594,4.5594,4.5661,0.0,4.5652,0.0,4.5719,0.0,0.0,0.0,0.0,4.5727,4.5757,4.576,4.5793,4.5803,4.5803,0.0,4.6141,0.0,0.0,0.0,0.0,0.0,0.0,0.0,0.0,0.0,0.0,0.0,0.0,0.0,0.0,0.0,5.0707,0.0,0.0,0.0,0.0,0.0,0.0,0.0,0.0,0.0,0.0,0.0,0.0,0.0,0.0,0.0,0.0,0.0,0.0,0.0,0.0,5.3972,5.4472,5.4818,5.5228,5.5689,5.5708,5.5708,5.5708,5.5708,5.5708,5.5708,5.5708,5.5708,5.5708,5.5708,5.5708,5.5708,5.5708,5.5708,5.5708,5.5708,5.5708,5.5708,5.5708,5.5708,5.5708,5.5708,5.5602,5.5461,3.6302,3.6152,3.6081,3.6304,3.6871,3.7458,3.7926,0.0,0.0,0.0,0.0,0.0,4.2731,4.4106,0.0,0.0,4.5719,4.6148,0.0,0.0,4.594,0.0,0.0,0.0,0.0,0.0,4.5752,4.5647,4.5629,4.5631,4.5631,4.5618,4.5618,4.5635,0.0,4.5694,4.5705,0.0,4.5768,4.5799,4.5834,4.5822,4.5786,4.5809,4.5796,4.5803,4.5803,4.5803,4.5803,4.5803,4.6376,0.0,4.7096,0.0,0.0,0.0,0.0,0.0,5.0543,0.0,0.0,0.0,0.0,0.0,0.0,0.0,0.0,0.0,0.0,0.0,0.0,0.0,5.0707,0.0,0.0,0.0,0.0,0.0,0.0,0.0,0.0,0.0,0.0,0.0,0.0,0.0,0.0,0.0,5.376,5.401,5.4511,5.5343,5.5381,5.5478,5.5708,5.5708,5.5708,5.5708,5.5708,5.5708,5.5708,5.5708,5.5708,5.5708,5.5708,5.5708,5.5684,5.5618,5.559,5.5585,5.5497,5.5448,5.546,5.5568,5.5413,5.5158,3.7093,3.6586,3.6276,3.7105,0.0,0.0,0.0,0.0,0.0,0.0,0.0,0.0,0.0,0.0,0.0,0.0,0.0,4.6246,4.6112,0.0,4.6036,0.0,0.0,4.5905,0.0,0.0,0.0,4.5796,4.5719,4.5697,4.5697,4.5635,4.5635,4.5701,4.5703,4.5699,4.5717,4.5848,4.5934,4.5982,4.5985,4.5985,4.5978,0.0,4.5794,4.5803,4.5803,0.0,0.0,4.5803,4.6378,0.0,0.0,0.0,0.0,0.0,0.0,0.0,0.0,0.0,0.0,5.0717,0.0,0.0,0.0,0.0,5.0707,0.0,0.0,0.0,0.0,5.0707,5.0707,5.0707,0.0,0.0,0.0,0.0,0.0,0.0,0.0,0.0,0.0,0.0,0.0,0.0,0.0,0.0,5.1981,5.2774,5.3645,5.4511,5.453,5.4914,5.5689,5.5708,5.5708,5.5708,5.5708,5.5708,5.5708,5.5708,5.5708,5.5708,5.5708,5.5708,5.5673,5.5419,5.5314,5.5282,5.4952,5.4829,5.4866,5.5191,5.5104,5.4814,3.7982,3.7923,3.7807,0.0,0.0,0.0,0.0,4.0913,0.0,0.0,0.0,0.0,0.0,4.5348,4.5858,0.0,0.0,4.6288,4.6241,4.6221,0.0,0.0,0.0,4.6116,0.0,0.0,0.0,0.0,0.0,4.5703,4.5703,4.5687,4.5672,4.5707,4.5746,4.5777,0.0,0.0,0.0,0.0,0.0,4.6078,4.6067,0.0,0.0,4.5803,4.5803,4.5803,0.0,4.6461,4.7243,4.8067,4.8639,4.9579,5.0449,5.0463,5.0668,0.0,0.0,0.0,5.0846,5.0785,0.0,0.0,0.0,0.0,0.0,0.0,0.0,0.0,0.0,0.0,5.0707,5.0707,5.0707,5.0707,0.0,0.0,0.0,0.0,0.0,0.0,0.0,0.0,0.0,0.0,0.0,0.0,0.0,5.2178,5.2736,5.3606,5.3645,5.4049,5.4895,5.4914,5.517,5.5708,5.5708,5.5708,5.5708,5.5708,5.5708,5.5708,5.5708,5.5602,5.5437,5.5539,5.5332,5.4974,5.509,5.4866,5.4511,5.4851,5.4761,5.4438,3.8864,3.9039,0.0,0.0,0.0,0.0,0.0,0.0,0.0,0.0,4.3349,0.0,4.5327,0.0,4.6308,0.0,4.6308,4.6308,4.6308,4.6308,0.0,4.6306,4.6306,0.0,0.0,0.0,0.0,0.0,0.0,4.5746,4.5746,4.5712,4.5715,4.575,4.5777,4.5817,4.5838,4.5922,4.6002,0.0,0.0,4.6142,0.0,0.0,4.5944,0.0,0.0,4.5803,4.5919,4.6809,4.7676,4.8546,4.9436,5.0244,5.0894,5.0909,5.0901,5.0892,5.0851,5.0872,0.0,0.0,5.081,0.0,5.0715,0.0,0.0,0.0,0.0,0.0,0.0,0.0,5.0693,5.0693,5.0702,5.0707,0.0,5.0707,0.0,0.0,0.0,0.0,0.0,0.0,0.0,0.0,0.0,0.0,0.0,0.0,5.1851,5.2717,5.2736,5.3159,5.403,5.4049,5.4453,5.5266,5.5266,5.542,5.5708,5.5708,5.5708,5.5708,5.5708,5.5602,5.5437,5.5394,5.5152,5.4799,5.4784,5.4493,5.4159,5.4495,5.4405,5.4098,0.0,0.0,0.0,0.0,4.0542,0.0,0.0,0.0,4.1782,0.0,4.3764,4.4412,4.6112,4.6308,4.6308,4.6308,4.6308,0.0,4.6308,4.6308,0.0,0.0,4.6308,4.6308,4.6307,0.0,0.0,0.0,0.0,4.5811,4.5807,4.5731,4.5735,4.5811,4.5811,0.0,4.5908,4.6037,4.6141,4.6208,4.6268,4.6212,4.61,4.61,0.0,4.5803,4.5803,4.5823,4.5997,4.6867,4.7734,4.8624,4.9494,5.0283,5.0898,5.0898,5.0898,5.089,5.0892,5.0893,5.0882,5.0827,0.0,0.0,0.0,0.0,5.0701,0.0,0.0,0.0,0.0,0.0,0.0,5.0706,5.0697,5.0707,5.0707,0.0,0.0,0.0,0.0,0.0,0.0,0.0,0.0,0.0,0.0,0.0,0.0,0.0,0.0,5.1813,5.1846,5.2255,5.3121,5.314,5.3568,5.4434,5.4434,5.4857,5.5651,5.5651,5.567,5.5708,5.5708,5.5673,5.5618,5.5038,5.4799,5.4693,5.4072,5.3804,5.3832,5.4169,5.4072,5.3803,4.0601,4.0777,4.0777,0.0,4.0952,4.1325,0.0,0.0,0.0,0.0,4.4665,4.5077,4.6172,4.6308,4.6308,4.6308,4.6308,0.0,0.0,0.0,0.0,4.6308,4.6308,4.6308,4.6308,4.6161,0.0,4.6066,0.0,0.0,4.5789,4.5782,4.5782,4.5789,4.5789,4.5851,4.5977,4.6064,4.6162,4.6287,4.6289,4.6212,0.0,0.0,4.5988,4.5803,4.5803,4.6209,4.6906,4.7773,4.8643,4.9509,5.0322,5.0724,5.0898,5.0898,5.0898,5.0898,5.0905,5.0894,5.0894,5.0874,5.0897,5.0895,0.0,0.0,0.0,0.0,0.0,0.0,0.0,0.0,0.0,5.0693,5.0697,5.0707,0.0,0.0,0.0,5.0707,0.0,0.0,0.0,0.0,0.0,0.0,0.0,0.0,0.0,0.0,0.0,5.0996,5.1015,5.1395,5.2236,5.2236,5.2678,5.353,5.353,5.3972,5.4799,5.4799,5.5126,5.5708,5.5708,5.5442,5.5043,5.5138,5.472,5.4063,5.4133,5.4027,5.3804,5.3907,5.3879,5.3803,4.0991,0.0,0.0,4.1093,0.0,0.0,4.2329,0.0,0.0,4.4763,4.4999,0.0,4.6191,4.6308,4.6308,4.6308,4.6308,0.0,4.6308,0.0,0.0,4.6308,4.6308,4.6308,4.6308,4.6201,0.0,4.61,0.0,4.5867,4.5803,4.5803,4.5803,4.5803,4.5803,4.5864,4.601,4.6103,4.6195,4.6265,4.6289,0.0,0.0,4.61,4.5988,4.5842,4.6229,4.6674,4.7293,4.8546,4.9301,4.9838,5.0651,5.0898,5.0898,5.0898,5.0898,5.0898,5.0898,5.0898,5.0898,5.0898,5.0901,5.0901,5.0904,5.0863,5.0846,0.0,0.0,0.0,0.0,0.0,0.0,0.0,0.0,0.0,0.0,0.0,0.0,0.0,0.0,0.0,0.0,0.0,0.0,0.0,0.0,0.0,0.0,0.0,0.0,5.0707,5.0707,5.0919,5.1375,5.1375,5.1793,5.264,5.264,5.3082,5.3933,5.3933,5.4395,5.5159,5.5022,5.4982,5.5002,5.4909,5.4525,5.4017,5.4063,5.3972,5.3803,5.3803,5.3803,5.3803,4.1109,0.0,0.0,0.0,0.0,0.0,0.0,4.2749,0.0,4.496,0.0,4.5469,4.6211,4.6308,4.6308,4.6308,0.0,4.6308,4.6308,4.6308,4.6308,4.6308,4.6308,4.6308,4.6308,4.6238,0.0,0.0,4.6032,4.5938,4.5803,4.5803,4.5803,4.5803,4.5803,0.0,0.0,4.6146,4.6206,4.6212,4.6266,4.6209,4.6098,4.6089,4.5976,4.59,4.679,4.7177,4.7525,4.9146,4.9761,4.9974,5.0689,5.0898,5.0898,5.0898,5.0898,5.0898,5.0898,5.0898,5.0898,5.0898,5.0898,5.089,5.0897,5.0908,5.0908,5.0908,5.084,0.0,0.0,0.0,0.0,0.0,0.0,0.0,0.0,0.0,0.0,0.0,0.0,0.0,0.0,0.0,0.0,0.0,0.0,0.0,0.0,0.0,0.0,0.0,5.0707,0.0,5.0707,0.0,5.1048,5.1736,5.1736,5.2197,5.3024,5.3024,5.351,5.4308,5.399,5.4314,5.5013,5.4398,5.4187,5.4203,5.3907,5.3803,5.3803,5.3803,5.3803,5.3803,0.0,0.0,0.0,0.0,0.0,4.2888,4.4313,4.4548,4.4901,4.5937,4.6074,4.6133,4.6289,4.6308,4.6308,4.6308,4.6308,0.0,0.0,0.0,0.0,4.6308,4.6308,4.6308,4.6308,4.6238,4.6162,0.0,4.6032,4.5938,4.5803,4.5803,4.5803,4.5803,4.5803,0.0,4.6086,4.6161,0.0,4.6288,4.6238,4.6165,4.6093,4.6041,4.5925,4.59,4.679,4.756,4.8333,4.9359,5.0148,5.0709,5.0859,5.0898,5.0898,5.0898,5.0898,5.0898,5.0898,5.0898,5.0898,5.0898,5.0898,5.0898,5.089,5.0909,5.0909,5.0909,5.0886,5.0893,5.0897,0.0,0.0,0.0,0.0,0.0,0.0,0.0,0.0,0.0,0.0,0.0,0.0,0.0,0.0,0.0,0.0,0.0,0.0,0.0,0.0,0.0,0.0,0.0,0.0,0.0,0.0,5.0919,5.0919,5.1337,5.214,5.214,5.2601,5.3418,5.3121,5.3314,5.3789,5.3454,5.3534,5.3889,5.3813,5.3803,5.3803,5.3803,5.3803,5.3803,0.0,0.0,0.0,0.0,0.0,0.0,0.0,4.6054,0.0,4.6308,4.6699,4.6797,4.6348,4.6308,4.6308,4.6308,4.6308,4.6308,4.6308,4.6308,4.6308,4.6308,4.6308,0.0,4.6308,4.6267,4.6204,4.61,4.606,4.596,4.5803,4.5803,4.5803,4.5807,4.5864,4.5958,0.0,0.0,0.0,4.62,4.6202,4.6139,4.605,4.6,4.5926,4.59,4.679,4.737,4.7927,4.9243,5.0225,5.0898,5.0898,5.0898,5.0898,5.0898,5.0898,5.0898,5.0898,5.0898,5.0898,5.0898,5.0898,5.0898,5.0898,5.0898,5.0898,5.0898,5.0901,5.0888,5.0801,5.0733,0.0,0.0,0.0,0.0,0.0,0.0,0.0,0.0,0.0,0.0,0.0,0.0,0.0,0.0,0.0,0.0,0.0,0.0,0.0,0.0,0.0,0.0,0.0,0.0,0.0,5.0707,5.0707,5.0899,5.1279,5.1279,5.1661,5.2305,5.1993,5.2165,5.268,5.28,5.2966,5.3209,5.3636,5.3803,5.3803,5.3803,5.3803,5.3803,0.0,4.1793,0.0,0.0,4.4238,0.0,4.6699,4.7598,4.7773,4.6719,4.7168,4.7266,4.6406,4.6308,4.6308,4.6308,4.6308,4.6308,4.6308,4.6308,4.6308,4.6308,4.6308,4.6308,4.6308,4.6308,4.624,0.0,4.6107,4.6099,4.608,4.5898,4.5821,0.0,0.0,0.0,0.0,0.0,4.6143,4.6125,4.6146,4.6093,4.5997,4.5972,4.5883,4.5881,4.6577,4.6945,4.7312,4.8682,4.98,5.067,5.084,5.0898,5.0898,5.0898,5.0898,5.0898,5.0898,5.0898,5.0898,5.0898,5.0898,5.0898,5.0898,5.0898,5.0898,5.0898,5.0909,5.0855,5.0715,5.0696,0.0,0.0,0.0,0.0,0.0,0.0,0.0,0.0,0.0,0.0,0.0,0.0,0.0,0.0,0.0,0.0,0.0,0.0,0.0,0.0,0.0,0.0,5.0707,0.0,5.0707,0.0,5.0707,5.0707,5.0707,5.0707,5.0898,5.1207,5.0892,5.1047,5.1572,5.2306,5.2605,5.2679,5.3487,5.3803,5.3803,5.3803,5.3803,5.3803,0.0,0.0,0.0,0.0,0.0,0.0,0.0,4.9394,4.9355,4.7695,4.7558,4.7266,4.6406,4.6308,4.6308,4.6308,4.6308,4.6308,4.6308,4.6308,4.6308,4.6308,4.6308,4.6308,4.6308,4.6308,4.6266,0.0,0.0,4.6422,4.7043,4.6193,4.5854,0.0,0.0,0.0,0.0,4.6058,4.6084,4.6171,4.6078,4.6017,4.5989,4.5874,4.5817,4.5803,4.5881,4.6422,4.7119,4.7293,4.843,4.9935,5.067,5.0898,5.0898,5.0898,5.0898,5.0898,5.0898,5.0898,5.0898,5.0898,5.0898,5.0898,5.0898,5.0898,5.0898,5.0898,5.0909,5.0855,5.0715,5.0696,5.0702,0.0,0.0,0.0,0.0,0.0,0.0,0.0,0.0,0.0,0.0,0.0,0.0,0.0,0.0,0.0,0.0,0.0,0.0,0.0,0.0,5.0707,5.0707,5.0707,0.0,5.0707,5.0707,5.0707,5.0707,5.0707,5.0567,5.0303,5.0018,5.0052,5.0383,5.1964,5.2605,5.2679,5.3487,5.3803,5.3803,5.3803,5.3803,5.3803,0.0,0.0,0.0,0.0,0.0,0.0,0.0,4.998,4.9941,4.9258,4.8711,4.8047,4.7187,4.6601,4.6308,4.6308,4.6308,4.6308,4.6308,4.6308,4.6308,4.6308,4.6308,4.6308,4.6308,4.6308,4.6242,0.0,0.0,0.0,0.0,0.0,0.0,0.0,0.0,4.6037,4.6137,4.608,4.606,4.607,4.6015,4.5958,4.5864,4.5827,4.5803,4.5803,4.5803,4.6016,4.6403,4.6925,4.7908,4.9068,4.9916,5.0186,5.0264,5.0767,5.0898,5.0898,5.0898,5.0898,5.0898,5.0898,5.0898,5.0898,5.0898,5.0898,5.0898,5.0898,5.0869,5.0816,5.0716,5.0697,5.0693,0.0,0.0,0.0,0.0,0.0,0.0,0.0,0.0,0.0,0.0,0.0,0.0,0.0,0.0,0.0,0.0,0.0,0.0,5.0707,0.0,5.0707,5.0707,5.0707,5.0707,5.0707,5.0707,5.0707,5.0707,5.0707,5.0435,4.993,4.9469,4.9309,4.9457,5.0673,5.1435,5.1955,5.2772,5.3357,5.3803,5.3803,5.3803,5.3803,4.2578,0.0,4.5449,0.0,4.8281,4.957,5.043,5.0547,5.0469,5.0234,4.9433,4.8574,4.7695,4.6816,4.6308,4.6308,4.6308,4.6308,4.6308,4.6308,4.6308,4.6308,4.6308,0.0,4.6308,4.6308,4.6241,4.6131,4.611,0.0,0.0,0.0,0.0,0.0,4.6019,4.6035,4.6096,4.6048,4.6,4.5997,4.5964,4.5873,4.5803,4.5803,4.5803,4.5803,4.5803,4.5803,4.5881,4.6519,4.7138,4.7831,4.8952,4.932,4.9436,4.9993,5.0167,5.0225,5.0476,5.0554,5.0593,5.084,5.0898,5.0898,5.0898,5.0898,5.0894,5.087,5.0827,5.0752,5.0707,5.0707,5.0707,0.0,0.0,0.0,0.0,0.0,0.0,0.0,0.0,0.0,0.0,0.0,0.0,0.0,0.0,0.0,0.0,0.0,0.0,0.0,0.0,0.0,0.0,0.0,5.0707,5.0707,5.0707,5.0658,5.0549,5.0396,5.0094,4.9644,4.9133,4.8909,4.8964,4.9819,5.0655,5.1472,5.2289,5.3088,5.3803,5.3803,5.3803,5.3803,4.3359,4.4394,4.582,4.8418,4.9609,5.0469,5.1269,5.1387,5.1094,5.0293,4.9433,4.8574,4.7695,4.6816,4.6308,4.6308,4.6308,4.6308,4.6308,4.6308,4.6308,0.0,0.0,4.6308,4.6308,4.6308,4.6266,4.6202,0.0,0.0,4.7173,0.0,0.0,4.6093,4.5891,4.5919,4.6089,4.5888,4.587,4.5991,4.5864,4.5807,4.5803,4.5803,4.5803,4.5803,4.5803,4.5803,4.5803,4.5803,4.5823,4.6132,4.7869,4.8411,4.8411,4.843,4.843,4.8624,4.9475,4.9703,4.9916,5.0709,5.0898,5.0898,5.0898,5.0898,5.0878,5.0819,5.0757,5.0706,5.0697,5.0707,5.0707,5.0707,0.0,0.0,0.0,0.0,0.0,0.0,0.0,0.0,0.0,0.0,0.0,0.0,0.0,0.0,0.0,0.0,0.0,5.0707,5.0707,0.0,5.0707,5.0707,5.0707,5.0707,5.0707,5.0534,5.0189,4.9655,4.9404,4.9391,4.9044,4.8909,4.8964,4.9773,5.0609,5.1472,5.2289,5.3088,5.3803,5.3803,5.3803,5.3803,4.4355,4.625,4.8105,4.9531,5.0469,5.1094,5.1367,5.0937,5.0488,5.0234,4.8926,4.791,4.7637,4.6816,4.6308,0.0,4.6308,4.6308,0.0,4.6308,4.6308,4.6308,4.6308,4.6308,4.6308,4.6264,4.6202,4.6132,0.0,0.0,0.0,4.6328,4.6236,4.6027,4.5958,4.5966,4.6022,4.5864,4.5811,4.5871,4.5824,4.5803,4.5803,4.5803,4.5803,4.5803,4.5803,4.5803,4.5803,4.5803,4.5803,4.59,4.6442,4.7041,4.7637,4.8237,4.8392,4.8469,4.874,4.8817,4.8875,4.9126,4.9645,5.007,5.007,5.0515,5.0884,5.081,5.0757,5.0706,5.0697,5.0707,5.0707,5.0707,0.0,0.0,0.0,0.0,0.0,0.0,0.0,0.0,0.0,5.1188,0.0,0.0,0.0,0.0,0.0,0.0,0.0,0.0,5.0707,0.0,5.0707,5.0478,5.0458,5.0707,5.0478,5.03,5.0183,4.9641,4.9407,4.9391,4.9044,4.8909,4.8919,4.9187,5.0116,5.1435,5.1676,5.2605,5.3803,5.3803,5.3803,5.3803,4.5254,4.7324,4.9277,5.0449,5.1074,5.1308,5.0996,5.0527,4.9961,4.9316,4.8281,4.748,4.7148,4.6621,0.0,4.6308,4.6308,0.0,4.6308,4.6308,4.6308,4.6308,4.6308,4.6308,4.6308,0.0,0.0,4.61,4.5973,4.5917,4.5886,4.5917,4.5958,4.5999,4.5955,4.5913,4.5929,4.5844,4.5803,4.5803,4.5803,4.5803,4.5803,4.5803,4.5803,4.5803,4.5803,4.5803,4.5803,4.5803,4.5803,4.5803,4.5803,4.6171,4.6712,4.7254,4.7428,4.7486,4.7811,4.7908,4.7985,4.8314,4.8817,4.9297,4.9591,5.0034,5.0456,5.0702,5.073,5.0702,5.0693,5.0707,5.0707,5.0707,0.0,0.0,0.0,0.0,0.0,0.0,0.0,0.0,0.0,5.0976,0.0,0.0,0.0,0.0,0.0,0.0,0.0,5.0707,5.0707,0.0,5.0509,5.03,5.0319,5.0504,5.0208,5.0006,4.9884,4.9431,4.9217,4.9209,4.8985,4.8909,4.8919,4.9243,5.0172,5.1435,5.1732,5.2661,5.3803,5.3803,5.3803,5.3803,4.6152,4.7871,0.0,0.0,5.1406,0.0,5.0312,5.0156,4.9512,4.7812,4.7558,4.7207,4.6387,4.6308,4.6308,4.6308,0.0,0.0,0.0,4.6308,4.6308,4.6308,4.6308,0.0,4.6289,4.6235,4.6155,4.6084,4.5891,4.5854,4.5986,4.5867,4.5877,4.5983,4.5864,4.5803,4.5803,4.5803,4.5803,4.5803,4.5803,4.5803,4.5803,4.5803,4.5803,4.5803,4.5803,4.5803,4.5803,4.5803,4.5803,4.5803,4.5803,4.5803,4.5803,4.5803,4.5803,4.5977,4.679,4.7003,4.7196,4.8024,4.8256,4.8516,4.9327,4.951,4.971,5.0455,5.0664,5.0707,5.0707,5.0707,5.0707,5.0707,5.0707,5.0707,5.0707,0.0,0.0,0.0,0.0,0.0,0.0,5.1375,5.1505,0.0,0.0,0.0,0.0,0.0,0.0,5.0707,5.0707,5.0544,5.0201,5.0183,5.0165,5.0141,4.9884,4.9648,4.9391,4.9052,4.8909,4.8909,4.8909,4.8909,4.8964,4.9773,5.0609,5.1472,5.2289,5.3088,5.3803,5.3803,5.3803,5.3803,0.0,0.0,5.0937,5.1328,5.1406,5.1133,5.0312,4.9648,4.8828,4.7734,4.7012,4.6523,4.6328,4.6308,4.6308,4.6308,4.6308,4.6308,4.6308,4.6308,4.6308,4.6308,4.6308,4.6287,4.6215,4.6155,4.6039,4.5866,4.5818,4.5824,4.5854,4.5801,4.5824,4.5854,4.5801,4.5803,4.5803,4.5803,4.5803,4.5803,4.5803,4.5803,4.5803,4.5803,4.5803,4.5803,4.5803,4.5803,4.5803,4.5803,4.5803,4.5803,4.5803,4.5803,4.5803,4.5803,4.5803,4.5842,4.6055,4.6113,4.6151,4.6364,4.6925,4.763,4.8419,4.9066,4.9556,4.9742,5.0279,5.0707,5.0707,5.0707,5.0707,5.0707,5.0707,5.0707,5.0707,0.0,0.0,0.0,5.0861,5.0919,5.0726,5.0861,5.0919,0.0,0.0,0.0,0.0,0.0,5.0707,5.0707,5.0707,5.0544,5.0201,5.0006,4.979,4.9595,4.9521,4.9465,4.9391,4.9052,4.8909,4.8909,4.8909,4.8909,4.8964,4.9773,5.0609,5.1472,5.2289,5.3088,5.3803,5.3803,5.3803,5.3803,4.873,5.0254,5.1406,5.1406,5.1094,5.0566,4.9726,4.8867,4.7988,4.7129,4.6582,4.6308,4.6308,4.6308,4.6308,4.6308,4.6308,4.6308,4.6308,4.6308,4.6308,4.6308,4.6308,4.6267,4.6203,4.6135,4.5995,4.5803,4.5803,4.5803,4.5803,4.5803,4.5803,4.5803,4.5803,4.5803,4.5803,4.5803,4.5803,4.5803,4.5803,4.5803,4.5803,4.5803,4.5803,4.5803,4.5803,4.5803,4.5803,4.5803,4.5803,4.5803,4.5803,4.5803,4.5803,4.5803,4.5803,4.5803,4.5803,4.5803,4.5803,4.5803,4.6151,4.6717,4.7523,4.8046,4.8568,4.9291,4.9798,5.0226,5.063,5.0707,5.0707,5.0707,5.0707,5.0707,5.0707,5.0707,0.0,5.0707,5.0707,5.0707,5.0707,5.0707,5.0707,5.0707,0.0,0.0,5.0707,5.0707,5.0624,5.0483,5.0478,5.0274,4.9837,4.9698,4.9476,4.9176,4.9337,4.9329,4.9168,4.8976,4.8909,4.8909,4.8909,4.9113,4.9522,5.0358,5.1193,5.2029,5.2828,5.3423,5.3803,5.3803,5.3803,5.3803,4.9082,5.043,5.1406,5.1406,5.0723,4.9902,4.9023,4.8164,4.7285,4.6406,4.6308,4.6308,4.6308,4.6308,4.6308,4.6308,4.6308,4.6308,4.6308,4.6308,4.6308,4.6308,4.6289,4.6244,4.6195,4.6091,4.5964,4.5803,4.5803,4.5803,4.5803,4.5803,4.5803,4.5803,4.5803,4.5803,4.5803,4.5803,4.5803,4.5803,4.5803,4.5803,4.5803,4.5803,4.5803,4.5803,4.5803,4.5803,4.5803,4.5803,4.5803,4.5803,4.5803,4.5803,4.5803,4.5803,4.5803,4.5803,4.5803,4.5803,4.5803,4.5803,4.58,4.5988,4.6657,4.6903,4.7375,4.874,4.9221,4.963,5.0361,5.0611,5.0707,5.0707,5.0707,5.0707,5.0707,0.0,5.0707,5.0707,5.0707,5.0707,5.0707,5.0707,5.0707,5.0707,5.0707,0.0,0.0,5.0658,5.0478,5.0153,5.0183,4.9949,4.9415,4.9352,4.9184,4.8909,4.9193,4.9184,4.8909,4.8909,4.8909,4.8909,4.9039,4.9457,5.0182,5.1175,5.1974,5.2679,5.3487,5.3803,5.3803,5.3803,5.3803,5.3803,5.0703,5.1211,5.1406,5.1406,5.0723,4.9902,4.9023,4.8164,4.7285,4.6406,4.6308,4.6308,4.6308,4.6308,4.6308,4.6308,4.6308,4.6308,4.6308,4.6308,4.6308,4.6308,4.6242,4.6173,4.6118,4.5933,4.5832,4.5803,4.5803,4.5803,4.5803,4.5803,4.5803,4.5803,4.5803,4.5803,4.5803,4.5803,4.5803,4.5803,4.5803,4.5803,4.5803,4.5803,4.5803,4.5803,4.5803,4.5803,4.5803,4.5803,4.5803,4.5803,4.5803,4.5803,4.5803,4.5803,4.5803,4.5803,4.5803,4.5803,4.5803,4.5803,4.5801,4.5823,4.5889,4.642,4.699,4.7244,4.8413,4.9433,4.9591,5.0207,5.0707,5.0707,5.0707,5.0707,0.0,0.0,5.0707,5.0707,5.0707,5.0707,5.0707,5.0707,5.0707,5.0707,5.0707,5.0707,5.0707,5.0432,5.0147,4.9865,5.0074,4.9949,4.9415,4.9119,4.8942,4.8909,4.8942,4.8942,4.8909,4.8909,4.8909,4.8946,4.9624,4.9977,5.0219,5.1769,5.2494,5.2679,5.3487,5.3803,5.3803,5.3803,5.3803,5.3803,5.1074,5.1406,5.1406,5.1406,5.0351,4.9355,4.8965,4.7754,4.6758,4.6348,4.6308,4.6308,4.6308,4.6308,4.6308,4.6308,4.6308,4.6308,4.6308,4.6308,4.6288,4.6242,4.6211,4.615,4.6054,4.5869,4.5803,4.5803,4.5803,4.5803,4.5803,4.5803,4.5803,4.5803,4.5803,4.5803,4.5803,4.5803,4.5803,4.5803,4.5803,4.5803,4.5803,4.5803,4.5803,4.5803,4.5803,4.5803,4.5803,4.5803,4.5803,4.5803,4.5803,4.5803,4.5803,4.5803,4.5803,4.5803,4.5803,4.5803,4.58,4.5798,4.5799,4.5769,4.5726,4.5979,4.6373,4.6802,4.7524,4.8336,4.9221,4.9726,5.0149,5.0611,5.0707,0.0,0.0,5.0707,5.0707,5.0707,5.0707,5.0707,5.0707,5.0707,5.0707,5.0707,5.0707,5.0619,5.0437,5.0283,5.0019,4.9591,4.9535,4.9378,4.9135,4.8986,4.8909,4.8909,4.8909,4.8909,4.8909,4.8909,4.9169,4.9615,4.994,5.0609,5.1509,5.2289,5.2865,5.3283,5.3664,5.3803,5.3803,5.3803,5.3803,5.3803,5.1074,5.1406,5.1406,5.1406,5.0019,4.8906,4.8906,4.7422,4.6308,4.6308,4.6308,4.6308,4.6308,4.6308,4.6308,4.6308,4.6308,4.6289,4.6288,4.6287,4.6244,4.6204,4.6165,4.6098,4.5964,4.5841,4.5803,4.5803,4.5803,4.5803,4.5803,4.5803,4.5803,4.5803,4.5803,4.5803,4.5803,4.5803,4.5803,4.5803,4.5803,4.5803,4.5803,4.5803,4.5803,4.5803,4.5803,4.5803,4.5803,4.5803,4.5803,4.5803,4.5803,4.5803,4.5803,4.5803,4.5803,4.5803,4.5803,4.5803,4.5796,4.5795,4.58,4.5754,4.5717,4.5693,4.5845,4.6475,4.6755,4.7293,4.8586,4.9144,4.963,5.0284,0.0,0.0,0.0,5.0707,5.0707,5.0707,5.0707,5.0707,5.0707,5.0707,5.0707,5.0707,5.0624,5.0478,5.0212,5.0087,4.979,4.9313,4.9035,4.8909,4.8909,4.8909,4.8909,4.8909,4.8909,4.8909,4.8909,4.8909,4.9373,5.0209,5.0339,5.1249,5.2605,5.281,5.3237,5.3803,5.3803,5.3803,5.3803,5.3803,5.3803,5.3803,5.1074,5.1406,5.1406,5.1406,5.0019,4.8906,4.8906,4.7422,4.6308,4.6308,4.6308,4.6308,4.6308,4.6308,4.6308,4.6308,4.6308,4.6267,4.6209,4.6206,4.6206,4.6203,4.6078,4.5947,4.5824,4.581,4.5803,4.5803,4.5803,4.5803,4.5803,4.5803,4.5803,4.5803,4.5803,4.5803,4.5803,4.5803,4.5803,4.5803,4.5803,4.5803,4.5803,4.5803,4.5803,4.5803,4.5803,4.5803,4.5803,4.5803,4.5803,4.5803,4.5803,4.5803,4.5803,4.5803,4.5803,4.5803,4.5803,4.5803,4.5796,4.5795,4.5758,4.5719,4.569,4.5648,4.5614,4.5691,4.6336,4.6947,4.7062,4.8355,4.9413,4.949,0.0,0.0,5.0707,5.0707,5.0707,5.0707,5.0707,5.0707,5.0707,5.0707,5.0707,5.0707,5.0416,5.0237,5.0201,4.9733,4.9294,4.896,4.8917,4.8909,4.8909,4.8909,4.8909,4.8909,4.8909,4.8909,4.8909,4.8909,4.9373,5.0228,5.0971,5.1806,5.2661,5.3394,5.3757,5.3803,5.3803,5.3803,5.3803,5.3803,5.3803,5.3803,5.1074,5.1406,5.1406,5.1406,5.0387,4.9426,4.8965,4.7847,4.6867,4.6367,4.6308,4.6308,4.6308,4.6308,4.6308,4.6308,4.6265,4.6235,4.6204,4.6158,4.612,4.6074,4.5958,4.5841,4.5807,4.5803,4.5803,4.5803,4.5803,4.5803,4.5803,4.5803,4.5803,4.5803,4.5803,4.5803,4.5803,4.5803,4.5803,4.5803,4.5803,4.5803,4.5803,4.5803,4.5803,4.5803,4.5803,4.5803,4.5803,4.5803,4.5803,4.5803,4.5803,4.5803,4.58,4.5798,4.581,4.5783,4.5757,4.5772,4.5795,4.5746,4.5718,4.5694,4.5648,4.5627,4.5594,4.5594,4.5859,4.6259,4.6793,4.7832,4.8779,4.9317,0.0,5.0707,5.0707,5.0707,5.0707,5.0707,5.0707,5.0707,5.0707,5.0707,5.0614,5.041,5.0277,5.0056,4.9726,4.9307,4.9027,4.8909,4.8909,4.8909,4.8909,4.8909,4.8909,4.8909,4.8909,4.8909,4.8919,4.9429,5.0116,5.0989,5.1788,5.2605,5.3357,5.3673,5.3803,5.3803,5.3803,5.3803,5.3803,5.3803,5.3803,5.3803,5.1033,5.1364,5.1363,5.1337,5.0573,4.9703,4.8911,4.8033,4.7146,4.6334,4.6239,4.6239,4.6239,4.6239,4.6239,4.6239,4.6199,4.6156,4.6138,4.6051,4.6003,4.6002,4.5861,4.5803,4.5803,4.5803,4.5803,4.5803,4.5803,4.5803,4.5803,4.5803,4.5803,4.5803,4.5803,4.5803,4.5803,4.5803,4.5803,4.5803,4.5803,4.5803,4.5803,4.5803,4.5803,4.5803,4.5803,4.5803,4.5803,4.5803,4.5796,4.5805,4.5805,4.5798,4.5764,4.5777,4.5769,4.5758,4.5715,4.5727,4.5754,4.5717,4.5701,4.5688,4.5622,4.5594,4.5594,4.5594,4.5594,4.5782,4.6374,4.7178,4.8005,4.8856,4.9726,5.038,5.0649,5.0609,5.0549,5.0549,5.0549,5.0549,5.0549,5.0549,5.0442,5.0212,5.0031,4.9742,4.9263,4.9018,4.8909,4.8909,4.8909,4.8909,4.8909,4.8909,4.8909,4.8909,4.8909,4.9039,4.9299,4.9847,5.0711,5.1806,5.2364,5.307,5.3803,5.3803,5.3803,5.3803,5.3803,5.3803,5.3803,5.3803,5.3803,5.3803,5.0971,5.1296,5.1282,5.1216,5.0476,4.9617,4.8746,4.7868,4.7028,4.6215,4.61,4.61,4.61,4.61,4.61,4.61,4.61,4.6064,4.6007,4.5864,4.5867,4.5994,4.5861,4.5803,4.5803,4.5803,4.5803,4.5803,4.5803,4.5803,4.5803,4.5803,4.5803,4.5803,4.5803,4.5803,4.5803,4.5803,4.5803,4.5803,4.5803,4.5803,4.5803,4.5803,4.5803,4.5803,4.5803,4.5803,4.5803,4.5803,4.5798,4.5807,4.5807,4.5758,4.5704,4.5704,4.5704,4.5696,4.5694,4.5701,4.5701,4.5701,4.5701,4.5688,4.5622,4.5594,4.5594,4.5594,4.5594,4.5594,4.5594,4.6317,4.7158,4.7966,4.8832,4.9702,5.0567,5.0416,5.0201,5.0201,5.0201,5.0201,5.0201,5.0201,5.0201,5.0195,4.9705,4.9257,4.8926,4.8909,4.8909,4.8909,4.8909,4.8909,4.8909,4.8909,4.8909,4.8909,4.8909,4.9309,5.0089,5.0107,5.1026,5.2605,5.2605,5.307,5.3803,5.3803,5.3803,5.3803,5.3803,5.3803,5.3803,5.3803,5.3803,5.3803,5.0909,5.1237,5.1229,5.1207,5.0952,5.0459,4.9648,4.8727,4.785,4.7042,4.6449,4.61,4.61,4.61,4.61,4.61,4.6067,4.5982,4.5877,4.5831,4.5824,4.5867,4.5827,4.5803,4.5803,4.5803,4.5803,4.5803,4.5803,4.5803,4.5803,4.5803,4.5803,4.5803,4.5803,4.5803,4.5803,4.5803,4.5803,4.5803,4.5803,4.5803,4.5803,4.5803,4.5803,4.5803,4.5803,4.5809,4.5803,4.5803,4.5777,4.5723,4.5723,4.5715,4.57,4.571,4.5702,4.569,4.5644,4.5631,4.5631,4.5631,4.5631,4.5631,4.5594,4.5594,4.5594,4.5594,4.5594,4.5594,4.5594,4.6317,4.7093,4.7726,4.8542,4.9348,4.9986,5.0141,5.0201,5.0201,5.0416,5.0467,5.0218,5.0201,5.0031,4.967,4.9268,4.9002,4.8909,4.8909,4.8909,4.8909,4.8909,4.8909,4.8909,4.8909,4.8909,4.8909,4.8909,4.9309,5.0126,5.0729,5.1584,5.2624,5.32,5.358,5.3803,5.3803,5.3803,5.3803,5.3803,5.3803,5.3803,5.3803,5.3803,5.3803,5.0378,5.0914,5.1133,5.1089,5.1059,5.0759,4.994,4.9344,4.8544,4.7377,4.6807,4.6363,4.6013,4.5974,4.5974,4.5974,4.5933,4.5896,4.581,4.5803,4.5803,4.5803,4.5803,4.5803,4.5803,4.5803,4.5803,4.5803,4.5803,4.5803,4.5803,4.5803,4.5803,4.5803,4.5803,4.5803,4.5803,4.5803,4.5803,4.5803,4.5803,4.5803,4.5803,4.5803,4.5796,4.5801,4.5801,4.5776,4.5762,4.5762,4.5735,4.5699,4.566,4.5656,4.5671,4.5661,4.5652,4.5648,4.5599,4.5594,4.5594,4.5594,4.5594,4.5594,4.5594,4.5594,4.5594,4.5594,4.5594,4.5594,4.5594,4.595,4.6584,4.7684,4.8115,4.8754,4.9971,4.9994,4.9929,5.0038,5.0124,5.0113,4.9903,4.9884,4.9693,4.9231,4.901,4.8909,4.8909,4.8909,4.8909,4.8909,4.8909,4.8909,4.8909,4.8909,4.8909,4.8909,4.8909,4.9494,5.0636,5.1156,5.2011,5.3097,5.358,5.3803,5.3803,5.3803,5.3803,5.3803,5.3803,5.3803,5.3803,5.3803,5.3803,5.3803,4.9521,5.0427,5.1047,5.0925,5.0898,5.0651,4.9916,4.9742,4.9126,4.7544,4.7196,4.6809,4.5997,4.5842,4.5803,4.5803,4.5803,4.5803,4.5803,4.5803,4.5803,4.5803,4.5803,4.5803,4.5803,4.5803,4.5803,4.5803,4.5803,4.5803,4.5803,4.5803,4.5803,4.5803,4.5803,4.5803,4.5803,4.5803,4.5803,4.5803,4.5803,4.5803,4.58,4.58,4.5798,4.5781,4.5781,4.5754,4.57,4.5696,4.5687,4.5688,4.5627,4.5594,4.5594,4.5594,4.5594,4.5594,4.5594,4.5594,4.5594,4.5594,4.5594,4.5594,4.5594,4.5594,4.5594,4.5594,4.5577,4.5587,4.566,4.5452,4.5907,4.7823,4.772,4.8155,5.0282,4.9928,4.9514,4.9735,4.958,4.9419,4.9407,4.9376,4.9233,4.8916,4.8909,4.8909,4.8909,4.8909,4.8909,4.8909,4.8909,4.8909,4.8909,4.8909,4.8909,4.8909,4.8964,4.9856,5.1398,5.1472,5.2345,5.3803,5.3803,5.3803,5.3803,5.3803,5.3803,5.3803,5.3803,5.3803,5.3803,5.3803,5.3803,5.3803,4.8546,4.991,5.0921,5.0906,5.0898,5.084,5.067,5.0109,4.9568,4.9184,4.7947,4.7022,4.6848,4.6209,4.5803,4.5803,4.5803,4.5803,4.5803,4.5803,4.5803,4.5803,4.5803,4.5803,4.5803,4.5803,4.5803,4.5803,4.5803,4.5803,4.5803,4.5803,4.5803,4.5803,4.5803,4.5803,4.5803,4.5803,4.5803,4.5803,4.5803,4.5805,4.5799,4.5799,4.5773,4.5719,4.5719,4.5711,4.569,4.5633,4.5616,4.5627,4.5594,4.5594,4.5594,4.5594,4.5594,4.5594,4.5594,4.5594,4.5594,4.5594,4.5594,4.5594,4.5594,4.5594,4.5594,4.5594,4.5429,4.5484,4.6113,4.6018,4.6397,4.813,4.8327,4.8575,4.9544,4.9698,4.9663,4.9499,4.962,4.9634,4.9411,4.9168,4.8976,4.8909,4.8909,4.8909,4.8909,4.8909,4.8909,4.8909,4.8909,4.8909,4.8909,4.8909,4.8909,4.8909,4.954,5.0395,5.1416,5.2048,5.2865,5.3803,5.3803,5.3803,5.3803,5.3803,5.3803,5.3803,5.3803,5.3803,5.3803,5.3803,5.3803,5.3803,4.6983,4.8546,4.9838,5.0244,5.0651,5.0898,5.0898,5.0534,5.0128,4.9742,4.8914,4.8024,4.7196,4.6693,4.6248,4.5842,4.5803,4.5803,4.5803,4.5803,4.5803,4.5803,4.5803,4.5803,4.5803,4.5803,4.5803,4.5803,4.5803,4.5803,4.5803,4.5803,4.5803,4.5803,4.5803,4.5803,4.5803,4.5803,4.5803,4.5803,4.5805,4.5806,4.5804,4.5765,4.5731,4.5695,4.5695,4.5686,4.5644,4.5599,4.5594,4.5594,4.5594,4.5594,4.5594,4.5594,4.5594,4.5594,4.5594,4.5594,4.5594,4.5594,4.5594,4.5594,4.5594,4.5594,4.5725,4.6124,4.598,4.6026,4.686,4.6689,4.6871,4.8279,4.8298,4.8461,4.9456,4.9473,4.9374,4.9407,4.9385,4.9312,4.9184,4.9002,4.8909,4.8909,4.8909,4.8909,4.8909,4.8909,4.8909,4.8909,4.8909,4.8909,4.8909,4.8909,4.9094,4.9485,4.9903,5.0562,5.1435,5.2234,5.3042,5.3803,5.3803,5.3803,5.3803,5.3803,5.3803,5.3803,5.3803,5.3803,5.3803,5.3803,5.3803,5.3803,4.5436,4.6983,4.845,4.9339,5.0148,5.0689,5.0689,5.0801,5.067,4.9993,4.978,4.9146,4.7695,4.7273,4.6751,4.5881,4.5803,4.5803,4.5803,4.5803,4.5803,4.5803,4.5803,4.5803,4.5803,4.5803,4.5803,4.5803,4.5803,4.5803,4.5803,4.5803,4.5803,4.5803,4.5803,4.5803,4.5803,4.5803,4.58,4.5793,4.5799,4.58,4.5781,4.5727,4.5687,4.5688,4.5688,4.5644,4.5594,4.5594,4.5594,4.5594,4.5594,4.5594,4.5594,4.5594,4.5594,4.5594,4.5594,4.5594,4.5594,4.5594,4.5594,4.562,4.5719,4.5748,4.594,4.6666,4.6649,4.6749,4.7618,4.737,4.7394,4.8486,4.8284,4.8408,4.9563,4.9296,4.9069,4.9297,4.9069,4.8909,4.8909,4.8909,4.8909,4.8909,4.8909,4.8909,4.8909,4.8909,4.8909,4.8909,4.8909,4.8909,4.8909,4.8909,4.9299,5.0089,5.0256,5.0766,5.1639,5.2438,5.3181,5.3803,5.3803,5.3803,5.3803,5.3803,5.3803,5.3803,5.3803,5.3803,5.3803,5.3803,5.3803,5.3803,4.4597,4.6129,4.7544,4.8411,4.9301,4.9858,4.9858,5.0457,5.0859,5.0743,5.0128,4.961,4.9378,4.8005,4.6751,4.5881,4.5803,4.5803,4.5803,4.5803,4.5803,4.5803,4.5803,4.5803,4.5803,4.5803,4.5803,4.5803,4.5803,4.5803,4.5803,4.5803,4.5803,4.5803,4.5803,4.5803,4.5803,4.5803,4.5805,4.5795,4.5807,4.5766,4.5717,4.5694,4.5661,4.5603,4.5603,4.5618,4.5594,4.5594,4.5594,4.5594,4.5594,4.5594,4.5594,4.5594,4.5594,4.5594,4.5594,4.5594,4.5594,4.5594,4.5594,4.5719,4.6186,4.6292,4.633,4.6445,4.667,4.7076,4.7903,4.7804,4.7958,4.9096,4.923,4.9237,4.9423,4.938,4.9249,4.8993,4.8935,4.8909,4.8909,4.8909,4.8909,4.8909,4.8909,4.8909,4.8909,4.8909,4.8909,4.8909,4.8909,4.8909,4.8909,4.8909,4.9299,5.0107,5.0859,5.1658,5.2457,5.3274,5.3692,5.3803,5.3803,5.3803,5.3803,5.3803,5.3803,5.3803,5.3803,5.3803,5.3803,5.3803,5.3803,5.3803,4.2976,4.4523,4.5974,4.6848,4.8101,4.9146,4.9626,4.9993,5.0399,5.084,5.0593,5.0206,4.9742,4.814,4.6945,4.6558,4.6074,4.5803,4.5803,4.5803,4.5803,4.5803,4.5803,4.5803,4.5803,4.5803,4.5803,4.5803,4.5803,4.5803,4.5803,4.5803,4.5793,4.5794,4.5796,4.5793,4.5794,4.5794,4.5803,4.5804,4.5758,4.5734,4.5697,4.5652,4.5631,4.5594,4.5594,4.5594,4.5594,4.5594,4.5594,4.5594,4.5594,4.5594,4.5594,4.5594,4.5594,4.5594,4.5594,4.5594,4.5725,4.6201,4.6191,4.6241,4.6964,4.725,4.7389,4.7548,4.7571,4.7834,4.866,4.8586,4.8533,4.9046,4.9119,4.9119,4.9119,4.9119,4.9061,4.8926,4.8909,4.8909,4.8909,4.8909,4.8909,4.8909,4.8909,4.8909,4.8909,4.8909,4.8909,4.8909,4.8909,4.8909,4.8909,4.9346,4.9977,5.0841,5.1676,5.2271,5.2624,5.3432,5.3803,5.3803,5.3803,5.3803,5.3803,5.3803,5.3803,5.3803,5.3803,5.3803,5.3803,5.3803,5.3803,5.3859]}]]